<?xml version="1.0" encoding="UTF-8" standalone="no" ?>
<gpx xmlns="http://www.topografix.com/GPX/1/1" xmlns:xsi="http://www.w3.org/2001/XMLSchema-instance" xsi:schemaLocation="http://www.topografix.com/GPX/1/1 http://www.topografix.com/GPX/1/1/gpx.xsd" version="1.1" creator="VisuGPX - https://www.visugpx.com">
  <metadata>
    <name>Premier Thermique Louis Loudenvielle</name>
    <desc><![CDATA[Mon premier thermique  a Loudenvielle]]></desc>
  </metadata>
  <trk>
    <name><![CDATA[11100305]]></name>
    <trkseg>
      <trkpt lat="42.78008" lon="0.44239">
        <ele>1842.914</ele>
        <time>2011-10-03T17:43:16Z</time>
      </trkpt>
      <trkpt lat="42.78008" lon="0.44239">
        <ele>1842.507</ele>
        <time>2011-10-03T17:43:16Z</time>
      </trkpt>
      <trkpt lat="42.78024" lon="0.4421">
        <ele>1841.126</ele>
        <time>2011-10-03T17:43:21Z</time>
      </trkpt>
      <trkpt lat="42.78027" lon="0.44205">
        <ele>1840.291</ele>
        <time>2011-10-03T17:43:22Z</time>
      </trkpt>
      <trkpt lat="42.78029" lon="0.442">
        <ele>1839.715</ele>
        <time>2011-10-03T17:43:23Z</time>
      </trkpt>
      <trkpt lat="42.78031" lon="0.44194">
        <ele>1838.889</ele>
        <time>2011-10-03T17:43:24Z</time>
      </trkpt>
      <trkpt lat="42.78034" lon="0.44189">
        <ele>1838.009</ele>
        <time>2011-10-03T17:43:25Z</time>
      </trkpt>
      <trkpt lat="42.78039" lon="0.44185">
        <ele>1837.118</ele>
        <time>2011-10-03T17:43:26Z</time>
      </trkpt>
      <trkpt lat="42.78043" lon="0.44181">
        <ele>1836.344</ele>
        <time>2011-10-03T17:43:27Z</time>
      </trkpt>
      <trkpt lat="42.78046" lon="0.44176">
        <ele>1835.992</ele>
        <time>2011-10-03T17:43:28Z</time>
      </trkpt>
      <trkpt lat="42.78049" lon="0.4417">
        <ele>1835.741</ele>
        <time>2011-10-03T17:43:29Z</time>
      </trkpt>
      <trkpt lat="42.78052" lon="0.44163">
        <ele>1835.488</ele>
        <time>2011-10-03T17:43:30Z</time>
      </trkpt>
      <trkpt lat="42.78056" lon="0.44156">
        <ele>1834.6</ele>
        <time>2011-10-03T17:43:31Z</time>
      </trkpt>
      <trkpt lat="42.78061" lon="0.44149">
        <ele>1833.1</ele>
        <time>2011-10-03T17:43:32Z</time>
      </trkpt>
      <trkpt lat="42.78066" lon="0.44143">
        <ele>1831.953</ele>
        <time>2011-10-03T17:43:33Z</time>
      </trkpt>
      <trkpt lat="42.78071" lon="0.44138">
        <ele>1831.65</ele>
        <time>2011-10-03T17:43:34Z</time>
      </trkpt>
      <trkpt lat="42.78075" lon="0.44133">
        <ele>1831.773</ele>
        <time>2011-10-03T17:43:35Z</time>
      </trkpt>
      <trkpt lat="42.78078" lon="0.44128">
        <ele>1831.591</ele>
        <time>2011-10-03T17:43:36Z</time>
      </trkpt>
      <trkpt lat="42.78082" lon="0.44123">
        <ele>1830.712</ele>
        <time>2011-10-03T17:43:37Z</time>
      </trkpt>
      <trkpt lat="42.78087" lon="0.44117">
        <ele>1829.214</ele>
        <time>2011-10-03T17:43:38Z</time>
      </trkpt>
      <trkpt lat="42.78092" lon="0.44111">
        <ele>1828.118</ele>
        <time>2011-10-03T17:43:39Z</time>
      </trkpt>
      <trkpt lat="42.78096" lon="0.44105">
        <ele>1827.754</ele>
        <time>2011-10-03T17:43:40Z</time>
      </trkpt>
      <trkpt lat="42.781" lon="0.44099">
        <ele>1827.592</ele>
        <time>2011-10-03T17:43:41Z</time>
      </trkpt>
      <trkpt lat="42.78103" lon="0.44093">
        <ele>1827.066</ele>
        <time>2011-10-03T17:43:42Z</time>
      </trkpt>
      <trkpt lat="42.78106" lon="0.44086">
        <ele>1826.22</ele>
        <time>2011-10-03T17:43:43Z</time>
      </trkpt>
      <trkpt lat="42.7811" lon="0.44079">
        <ele>1825.014</ele>
        <time>2011-10-03T17:43:44Z</time>
      </trkpt>
      <trkpt lat="42.78114" lon="0.44072">
        <ele>1824.23</ele>
        <time>2011-10-03T17:43:45Z</time>
      </trkpt>
      <trkpt lat="42.78119" lon="0.44065">
        <ele>1823.646</ele>
        <time>2011-10-03T17:43:46Z</time>
      </trkpt>
      <trkpt lat="42.78123" lon="0.44058">
        <ele>1823.047</ele>
        <time>2011-10-03T17:43:47Z</time>
      </trkpt>
      <trkpt lat="42.7813" lon="0.44045">
        <ele>1822.142</ele>
        <time>2011-10-03T17:43:49Z</time>
      </trkpt>
      <trkpt lat="42.78134" lon="0.44038">
        <ele>1820.879</ele>
        <time>2011-10-03T17:43:50Z</time>
      </trkpt>
      <trkpt lat="42.78139" lon="0.44031">
        <ele>1819.684</ele>
        <time>2011-10-03T17:43:51Z</time>
      </trkpt>
      <trkpt lat="42.78139" lon="0.44031">
        <ele>1818.728</ele>
        <time>2011-10-03T17:43:51Z</time>
      </trkpt>
      <trkpt lat="42.78147" lon="0.44017">
        <ele>1817.992</ele>
        <time>2011-10-03T17:43:53Z</time>
      </trkpt>
      <trkpt lat="42.78151" lon="0.4401">
        <ele>1817.139</ele>
        <time>2011-10-03T17:43:54Z</time>
      </trkpt>
      <trkpt lat="42.78155" lon="0.44003">
        <ele>1816.018</ele>
        <time>2011-10-03T17:43:55Z</time>
      </trkpt>
      <trkpt lat="42.7816" lon="0.43997">
        <ele>1814.981</ele>
        <time>2011-10-03T17:43:56Z</time>
      </trkpt>
      <trkpt lat="42.78164" lon="0.43991">
        <ele>1814.166</ele>
        <time>2011-10-03T17:43:57Z</time>
      </trkpt>
      <trkpt lat="42.7817" lon="0.43985">
        <ele>1812.941</ele>
        <time>2011-10-03T17:43:58Z</time>
      </trkpt>
      <trkpt lat="42.78175" lon="0.43979">
        <ele>1811.906</ele>
        <time>2011-10-03T17:43:59Z</time>
      </trkpt>
      <trkpt lat="42.7818" lon="0.43974">
        <ele>1811.229</ele>
        <time>2011-10-03T17:44:00Z</time>
      </trkpt>
      <trkpt lat="42.78185" lon="0.43969">
        <ele>1810.652</ele>
        <time>2011-10-03T17:44:01Z</time>
      </trkpt>
      <trkpt lat="42.7819" lon="0.43965">
        <ele>1810.235</ele>
        <time>2011-10-03T17:44:02Z</time>
      </trkpt>
      <trkpt lat="42.78194" lon="0.4396">
        <ele>1809.618</ele>
        <time>2011-10-03T17:44:03Z</time>
      </trkpt>
      <trkpt lat="42.78198" lon="0.43954">
        <ele>1808.713</ele>
        <time>2011-10-03T17:44:04Z</time>
      </trkpt>
      <trkpt lat="42.78202" lon="0.43948">
        <ele>1807.415</ele>
        <time>2011-10-03T17:44:05Z</time>
      </trkpt>
      <trkpt lat="42.78207" lon="0.43942">
        <ele>1806.321</ele>
        <time>2011-10-03T17:44:06Z</time>
      </trkpt>
      <trkpt lat="42.78211" lon="0.43937">
        <ele>1805.339</ele>
        <time>2011-10-03T17:44:07Z</time>
      </trkpt>
      <trkpt lat="42.78216" lon="0.43931">
        <ele>1804.293</ele>
        <time>2011-10-03T17:44:08Z</time>
      </trkpt>
      <trkpt lat="42.7822" lon="0.43925">
        <ele>1803.204</ele>
        <time>2011-10-03T17:44:09Z</time>
      </trkpt>
      <trkpt lat="42.78224" lon="0.43919">
        <ele>1801.898</ele>
        <time>2011-10-03T17:44:10Z</time>
      </trkpt>
      <trkpt lat="42.78228" lon="0.43912">
        <ele>1800.951</ele>
        <time>2011-10-03T17:44:11Z</time>
      </trkpt>
      <trkpt lat="42.78233" lon="0.43906">
        <ele>1800.317</ele>
        <time>2011-10-03T17:44:12Z</time>
      </trkpt>
      <trkpt lat="42.78237" lon="0.439">
        <ele>1800.044</ele>
        <time>2011-10-03T17:44:13Z</time>
      </trkpt>
      <trkpt lat="42.7824" lon="0.43893">
        <ele>1799.969</ele>
        <time>2011-10-03T17:44:14Z</time>
      </trkpt>
      <trkpt lat="42.78243" lon="0.43887">
        <ele>1799.731</ele>
        <time>2011-10-03T17:44:15Z</time>
      </trkpt>
      <trkpt lat="42.78244" lon="0.4388">
        <ele>1799.104</ele>
        <time>2011-10-03T17:44:16Z</time>
      </trkpt>
      <trkpt lat="42.78246" lon="0.43872">
        <ele>1798.128</ele>
        <time>2011-10-03T17:44:17Z</time>
      </trkpt>
      <trkpt lat="42.78247" lon="0.43864">
        <ele>1797.134</ele>
        <time>2011-10-03T17:44:18Z</time>
      </trkpt>
      <trkpt lat="42.78248" lon="0.43855">
        <ele>1796.176</ele>
        <time>2011-10-03T17:44:19Z</time>
      </trkpt>
      <trkpt lat="42.78249" lon="0.43847">
        <ele>1795.096</ele>
        <time>2011-10-03T17:44:20Z</time>
      </trkpt>
      <trkpt lat="42.78251" lon="0.43838">
        <ele>1793.834</ele>
        <time>2011-10-03T17:44:21Z</time>
      </trkpt>
      <trkpt lat="42.78253" lon="0.43831">
        <ele>1792.595</ele>
        <time>2011-10-03T17:44:22Z</time>
      </trkpt>
      <trkpt lat="42.78256" lon="0.43823">
        <ele>1791.434</ele>
        <time>2011-10-03T17:44:23Z</time>
      </trkpt>
      <trkpt lat="42.78256" lon="0.43823">
        <ele>1790.575</ele>
        <time>2011-10-03T17:44:23Z</time>
      </trkpt>
      <trkpt lat="42.78264" lon="0.43811">
        <ele>1789.1</ele>
        <time>2011-10-03T17:44:25Z</time>
      </trkpt>
      <trkpt lat="42.78269" lon="0.43805">
        <ele>1787.948</ele>
        <time>2011-10-03T17:44:26Z</time>
      </trkpt>
      <trkpt lat="42.78274" lon="0.438">
        <ele>1787.413</ele>
        <time>2011-10-03T17:44:27Z</time>
      </trkpt>
      <trkpt lat="42.78285" lon="0.43793">
        <ele>1787.398</ele>
        <time>2011-10-03T17:44:29Z</time>
      </trkpt>
      <trkpt lat="42.7829" lon="0.43788">
        <ele>1787.5</ele>
        <time>2011-10-03T17:44:30Z</time>
      </trkpt>
      <trkpt lat="42.78295" lon="0.43783">
        <ele>1787.171</ele>
        <time>2011-10-03T17:44:31Z</time>
      </trkpt>
      <trkpt lat="42.78295" lon="0.43783">
        <ele>1786.07</ele>
        <time>2011-10-03T17:44:31Z</time>
      </trkpt>
      <trkpt lat="42.78303" lon="0.4377">
        <ele>1784.878</ele>
        <time>2011-10-03T17:44:33Z</time>
      </trkpt>
      <trkpt lat="42.78307" lon="0.43764">
        <ele>1783.646</ele>
        <time>2011-10-03T17:44:34Z</time>
      </trkpt>
      <trkpt lat="42.78311" lon="0.43757">
        <ele>1782.689</ele>
        <time>2011-10-03T17:44:35Z</time>
      </trkpt>
      <trkpt lat="42.78315" lon="0.4375">
        <ele>1781.927</ele>
        <time>2011-10-03T17:44:36Z</time>
      </trkpt>
      <trkpt lat="42.78315" lon="0.4375">
        <ele>1781.083</ele>
        <time>2011-10-03T17:44:36Z</time>
      </trkpt>
      <trkpt lat="42.7832" lon="0.43734">
        <ele>1780.182</ele>
        <time>2011-10-03T17:44:38Z</time>
      </trkpt>
      <trkpt lat="42.78323" lon="0.43726">
        <ele>1779.486</ele>
        <time>2011-10-03T17:44:39Z</time>
      </trkpt>
      <trkpt lat="42.78326" lon="0.43718">
        <ele>1779.2</ele>
        <time>2011-10-03T17:44:40Z</time>
      </trkpt>
      <trkpt lat="42.78328" lon="0.43711">
        <ele>1779.093</ele>
        <time>2011-10-03T17:44:41Z</time>
      </trkpt>
      <trkpt lat="42.78329" lon="0.43703">
        <ele>1778.806</ele>
        <time>2011-10-03T17:44:42Z</time>
      </trkpt>
      <trkpt lat="42.78331" lon="0.43696">
        <ele>1777.906</ele>
        <time>2011-10-03T17:44:43Z</time>
      </trkpt>
      <trkpt lat="42.78335" lon="0.43688">
        <ele>1776.636</ele>
        <time>2011-10-03T17:44:44Z</time>
      </trkpt>
      <trkpt lat="42.78338" lon="0.43682">
        <ele>1775.361</ele>
        <time>2011-10-03T17:44:45Z</time>
      </trkpt>
      <trkpt lat="42.78342" lon="0.43675">
        <ele>1774.4</ele>
        <time>2011-10-03T17:44:46Z</time>
      </trkpt>
      <trkpt lat="42.78345" lon="0.43668">
        <ele>1773.409</ele>
        <time>2011-10-03T17:44:47Z</time>
      </trkpt>
      <trkpt lat="42.78348" lon="0.43662">
        <ele>1772.371</ele>
        <time>2011-10-03T17:44:48Z</time>
      </trkpt>
      <trkpt lat="42.78351" lon="0.43655">
        <ele>1771.06</ele>
        <time>2011-10-03T17:44:49Z</time>
      </trkpt>
      <trkpt lat="42.78355" lon="0.43648">
        <ele>1769.645</ele>
        <time>2011-10-03T17:44:50Z</time>
      </trkpt>
      <trkpt lat="42.78358" lon="0.43641">
        <ele>1768.514</ele>
        <time>2011-10-03T17:44:51Z</time>
      </trkpt>
      <trkpt lat="42.78362" lon="0.43634">
        <ele>1766.62</ele>
        <time>2011-10-03T17:44:52Z</time>
      </trkpt>
      <trkpt lat="42.78366" lon="0.43626">
        <ele>1765.149</ele>
        <time>2011-10-03T17:44:53Z</time>
      </trkpt>
      <trkpt lat="42.78369" lon="0.43618">
        <ele>1764.24</ele>
        <time>2011-10-03T17:44:54Z</time>
      </trkpt>
      <trkpt lat="42.78372" lon="0.43611">
        <ele>1763.772</ele>
        <time>2011-10-03T17:44:55Z</time>
      </trkpt>
      <trkpt lat="42.78375" lon="0.43605">
        <ele>1763.568</ele>
        <time>2011-10-03T17:44:56Z</time>
      </trkpt>
      <trkpt lat="42.78378" lon="0.43599">
        <ele>1763.047</ele>
        <time>2011-10-03T17:44:57Z</time>
      </trkpt>
      <trkpt lat="42.78381" lon="0.43593">
        <ele>1762.11</ele>
        <time>2011-10-03T17:44:58Z</time>
      </trkpt>
      <trkpt lat="42.78385" lon="0.43586">
        <ele>1761.157</ele>
        <time>2011-10-03T17:44:59Z</time>
      </trkpt>
      <trkpt lat="42.78389" lon="0.4358">
        <ele>1760.661</ele>
        <time>2011-10-03T17:45:00Z</time>
      </trkpt>
      <trkpt lat="42.78392" lon="0.43573">
        <ele>1760.724</ele>
        <time>2011-10-03T17:45:01Z</time>
      </trkpt>
      <trkpt lat="42.78397" lon="0.43567">
        <ele>1760.96</ele>
        <time>2011-10-03T17:45:02Z</time>
      </trkpt>
      <trkpt lat="42.784" lon="0.43564">
        <ele>1761.089</ele>
        <time>2011-10-03T17:45:03Z</time>
      </trkpt>
      <trkpt lat="42.78404" lon="0.43558">
        <ele>1761.251</ele>
        <time>2011-10-03T17:45:04Z</time>
      </trkpt>
      <trkpt lat="42.78408" lon="0.43551">
        <ele>1761.623</ele>
        <time>2011-10-03T17:45:05Z</time>
      </trkpt>
      <trkpt lat="42.78413" lon="0.43546">
        <ele>1762.081</ele>
        <time>2011-10-03T17:45:06Z</time>
      </trkpt>
      <trkpt lat="42.78417" lon="0.43542">
        <ele>1762.267</ele>
        <time>2011-10-03T17:45:07Z</time>
      </trkpt>
      <trkpt lat="42.78421" lon="0.43537">
        <ele>1761.98</ele>
        <time>2011-10-03T17:45:08Z</time>
      </trkpt>
      <trkpt lat="42.78426" lon="0.43533">
        <ele>1761.5</ele>
        <time>2011-10-03T17:45:09Z</time>
      </trkpt>
      <trkpt lat="42.78434" lon="0.43522">
        <ele>1761.098</ele>
        <time>2011-10-03T17:45:11Z</time>
      </trkpt>
      <trkpt lat="42.78434" lon="0.43522">
        <ele>1760.617</ele>
        <time>2011-10-03T17:45:11Z</time>
      </trkpt>
      <trkpt lat="42.78441" lon="0.4351">
        <ele>1759.818</ele>
        <time>2011-10-03T17:45:13Z</time>
      </trkpt>
      <trkpt lat="42.78445" lon="0.43503">
        <ele>1758.803</ele>
        <time>2011-10-03T17:45:14Z</time>
      </trkpt>
      <trkpt lat="42.78449" lon="0.43496">
        <ele>1758.046</ele>
        <time>2011-10-03T17:45:15Z</time>
      </trkpt>
      <trkpt lat="42.78453" lon="0.43489">
        <ele>1757.794</ele>
        <time>2011-10-03T17:45:16Z</time>
      </trkpt>
      <trkpt lat="42.78453" lon="0.43489">
        <ele>1757.781</ele>
        <time>2011-10-03T17:45:16Z</time>
      </trkpt>
      <trkpt lat="42.78458" lon="0.43475">
        <ele>1757.425</ele>
        <time>2011-10-03T17:45:18Z</time>
      </trkpt>
      <trkpt lat="42.78461" lon="0.43467">
        <ele>1756.943</ele>
        <time>2011-10-03T17:45:19Z</time>
      </trkpt>
      <trkpt lat="42.78465" lon="0.43459">
        <ele>1755.5</ele>
        <time>2011-10-03T17:45:20Z</time>
      </trkpt>
      <trkpt lat="42.78469" lon="0.43451">
        <ele>1754.423</ele>
        <time>2011-10-03T17:45:21Z</time>
      </trkpt>
      <trkpt lat="42.78473" lon="0.43444">
        <ele>1753.737</ele>
        <time>2011-10-03T17:45:22Z</time>
      </trkpt>
      <trkpt lat="42.78476" lon="0.43437">
        <ele>1753.198</ele>
        <time>2011-10-03T17:45:23Z</time>
      </trkpt>
      <trkpt lat="42.78479" lon="0.43429">
        <ele>1752.467</ele>
        <time>2011-10-03T17:45:24Z</time>
      </trkpt>
      <trkpt lat="42.78483" lon="0.43422">
        <ele>1751.104</ele>
        <time>2011-10-03T17:45:25Z</time>
      </trkpt>
      <trkpt lat="42.78486" lon="0.43414">
        <ele>1749.916</ele>
        <time>2011-10-03T17:45:26Z</time>
      </trkpt>
      <trkpt lat="42.7849" lon="0.43406">
        <ele>1748.857</ele>
        <time>2011-10-03T17:45:27Z</time>
      </trkpt>
      <trkpt lat="42.78492" lon="0.43398">
        <ele>1748.05</ele>
        <time>2011-10-03T17:45:28Z</time>
      </trkpt>
      <trkpt lat="42.78494" lon="0.43389">
        <ele>1747.408</ele>
        <time>2011-10-03T17:45:29Z</time>
      </trkpt>
      <trkpt lat="42.78496" lon="0.43381">
        <ele>1746.866</ele>
        <time>2011-10-03T17:45:30Z</time>
      </trkpt>
      <trkpt lat="42.78498" lon="0.43373">
        <ele>1746.453</ele>
        <time>2011-10-03T17:45:31Z</time>
      </trkpt>
      <trkpt lat="42.78502" lon="0.43365">
        <ele>1746.414</ele>
        <time>2011-10-03T17:45:32Z</time>
      </trkpt>
      <trkpt lat="42.78505" lon="0.43358">
        <ele>1746.57</ele>
        <time>2011-10-03T17:45:33Z</time>
      </trkpt>
      <trkpt lat="42.78508" lon="0.43351">
        <ele>1746.77</ele>
        <time>2011-10-03T17:45:34Z</time>
      </trkpt>
      <trkpt lat="42.78511" lon="0.43344">
        <ele>1746.414</ele>
        <time>2011-10-03T17:45:35Z</time>
      </trkpt>
      <trkpt lat="42.78515" lon="0.43338">
        <ele>1745.606</ele>
        <time>2011-10-03T17:45:36Z</time>
      </trkpt>
      <trkpt lat="42.78519" lon="0.4333">
        <ele>1744.97</ele>
        <time>2011-10-03T17:45:37Z</time>
      </trkpt>
      <trkpt lat="42.78523" lon="0.43323">
        <ele>1744.858</ele>
        <time>2011-10-03T17:45:38Z</time>
      </trkpt>
      <trkpt lat="42.78526" lon="0.43314">
        <ele>1745.267</ele>
        <time>2011-10-03T17:45:39Z</time>
      </trkpt>
      <trkpt lat="42.78529" lon="0.43305">
        <ele>1745.839</ele>
        <time>2011-10-03T17:45:40Z</time>
      </trkpt>
      <trkpt lat="42.78532" lon="0.43298">
        <ele>1746.06</ele>
        <time>2011-10-03T17:45:41Z</time>
      </trkpt>
      <trkpt lat="42.78534" lon="0.43291">
        <ele>1745.77</ele>
        <time>2011-10-03T17:45:42Z</time>
      </trkpt>
      <trkpt lat="42.78538" lon="0.43283">
        <ele>1745.273</ele>
        <time>2011-10-03T17:45:43Z</time>
      </trkpt>
      <trkpt lat="42.78541" lon="0.43275">
        <ele>1744.846</ele>
        <time>2011-10-03T17:45:44Z</time>
      </trkpt>
      <trkpt lat="42.78541" lon="0.43275">
        <ele>1744.794</ele>
        <time>2011-10-03T17:45:44Z</time>
      </trkpt>
      <trkpt lat="42.78545" lon="0.43256">
        <ele>1744.691</ele>
        <time>2011-10-03T17:45:46Z</time>
      </trkpt>
      <trkpt lat="42.78548" lon="0.43248">
        <ele>1744.278</ele>
        <time>2011-10-03T17:45:47Z</time>
      </trkpt>
      <trkpt lat="42.78551" lon="0.43241">
        <ele>1743.588</ele>
        <time>2011-10-03T17:45:48Z</time>
      </trkpt>
      <trkpt lat="42.78558" lon="0.43226">
        <ele>1742.749</ele>
        <time>2011-10-03T17:45:50Z</time>
      </trkpt>
      <trkpt lat="42.78561" lon="0.43218">
        <ele>1741.967</ele>
        <time>2011-10-03T17:45:51Z</time>
      </trkpt>
      <trkpt lat="42.78561" lon="0.43218">
        <ele>1741.221</ele>
        <time>2011-10-03T17:45:51Z</time>
      </trkpt>
      <trkpt lat="42.78567" lon="0.43203">
        <ele>1740.688</ele>
        <time>2011-10-03T17:45:53Z</time>
      </trkpt>
      <trkpt lat="42.78569" lon="0.43196">
        <ele>1740.177</ele>
        <time>2011-10-03T17:45:54Z</time>
      </trkpt>
      <trkpt lat="42.78571" lon="0.43189">
        <ele>1739.57</ele>
        <time>2011-10-03T17:45:55Z</time>
      </trkpt>
      <trkpt lat="42.78571" lon="0.43189">
        <ele>1738.356</ele>
        <time>2011-10-03T17:45:55Z</time>
      </trkpt>
      <trkpt lat="42.78571" lon="0.43189">
        <ele>1736.923</ele>
        <time>2011-10-03T17:45:55Z</time>
      </trkpt>
      <trkpt lat="42.7858" lon="0.43166">
        <ele>1735.429</ele>
        <time>2011-10-03T17:45:58Z</time>
      </trkpt>
      <trkpt lat="42.78583" lon="0.43157">
        <ele>1734.178</ele>
        <time>2011-10-03T17:45:59Z</time>
      </trkpt>
      <trkpt lat="42.78586" lon="0.4315">
        <ele>1733.197</ele>
        <time>2011-10-03T17:46:00Z</time>
      </trkpt>
      <trkpt lat="42.78589" lon="0.43143">
        <ele>1731.84</ele>
        <time>2011-10-03T17:46:01Z</time>
      </trkpt>
      <trkpt lat="42.78593" lon="0.43135">
        <ele>1730.355</ele>
        <time>2011-10-03T17:46:02Z</time>
      </trkpt>
      <trkpt lat="42.78593" lon="0.43135">
        <ele>1728.727</ele>
        <time>2011-10-03T17:46:02Z</time>
      </trkpt>
      <trkpt lat="42.78602" lon="0.4312">
        <ele>1727.626</ele>
        <time>2011-10-03T17:46:04Z</time>
      </trkpt>
      <trkpt lat="42.78605" lon="0.43112">
        <ele>1726.892</ele>
        <time>2011-10-03T17:46:05Z</time>
      </trkpt>
      <trkpt lat="42.78609" lon="0.43104">
        <ele>1726.415</ele>
        <time>2011-10-03T17:46:06Z</time>
      </trkpt>
      <trkpt lat="42.78612" lon="0.43096">
        <ele>1725.725</ele>
        <time>2011-10-03T17:46:07Z</time>
      </trkpt>
      <trkpt lat="42.78615" lon="0.43088">
        <ele>1724.975</ele>
        <time>2011-10-03T17:46:08Z</time>
      </trkpt>
      <trkpt lat="42.78619" lon="0.4308">
        <ele>1724.54</ele>
        <time>2011-10-03T17:46:09Z</time>
      </trkpt>
      <trkpt lat="42.78622" lon="0.43073">
        <ele>1724.262</ele>
        <time>2011-10-03T17:46:10Z</time>
      </trkpt>
      <trkpt lat="42.78625" lon="0.43065">
        <ele>1723.711</ele>
        <time>2011-10-03T17:46:11Z</time>
      </trkpt>
      <trkpt lat="42.78626" lon="0.43056">
        <ele>1722.811</ele>
        <time>2011-10-03T17:46:12Z</time>
      </trkpt>
      <trkpt lat="42.78627" lon="0.43048">
        <ele>1721.668</ele>
        <time>2011-10-03T17:46:13Z</time>
      </trkpt>
      <trkpt lat="42.78629" lon="0.43039">
        <ele>1719.814</ele>
        <time>2011-10-03T17:46:14Z</time>
      </trkpt>
      <trkpt lat="42.7863" lon="0.4303">
        <ele>1717.997</ele>
        <time>2011-10-03T17:46:15Z</time>
      </trkpt>
      <trkpt lat="42.78632" lon="0.43021">
        <ele>1716.397</ele>
        <time>2011-10-03T17:46:16Z</time>
      </trkpt>
      <trkpt lat="42.78634" lon="0.43012">
        <ele>1714.904</ele>
        <time>2011-10-03T17:46:17Z</time>
      </trkpt>
      <trkpt lat="42.78636" lon="0.43002">
        <ele>1713.597</ele>
        <time>2011-10-03T17:46:18Z</time>
      </trkpt>
      <trkpt lat="42.78638" lon="0.42993">
        <ele>1712.539</ele>
        <time>2011-10-03T17:46:19Z</time>
      </trkpt>
      <trkpt lat="42.7864" lon="0.42983">
        <ele>1711.611</ele>
        <time>2011-10-03T17:46:20Z</time>
      </trkpt>
      <trkpt lat="42.78642" lon="0.42974">
        <ele>1710.321</ele>
        <time>2011-10-03T17:46:21Z</time>
      </trkpt>
      <trkpt lat="42.78645" lon="0.42954">
        <ele>1708.831</ele>
        <time>2011-10-03T17:46:23Z</time>
      </trkpt>
      <trkpt lat="42.78646" lon="0.42943">
        <ele>1707.426</ele>
        <time>2011-10-03T17:46:24Z</time>
      </trkpt>
      <trkpt lat="42.78648" lon="0.42934">
        <ele>1706.256</ele>
        <time>2011-10-03T17:46:25Z</time>
      </trkpt>
      <trkpt lat="42.7865" lon="0.42925">
        <ele>1704.956</ele>
        <time>2011-10-03T17:46:26Z</time>
      </trkpt>
      <trkpt lat="42.7865" lon="0.42925">
        <ele>1703.81</ele>
        <time>2011-10-03T17:46:26Z</time>
      </trkpt>
      <trkpt lat="42.78653" lon="0.42907">
        <ele>1702.416</ele>
        <time>2011-10-03T17:46:28Z</time>
      </trkpt>
      <trkpt lat="42.78655" lon="0.42897">
        <ele>1701.269</ele>
        <time>2011-10-03T17:46:29Z</time>
      </trkpt>
      <trkpt lat="42.78657" lon="0.42888">
        <ele>1700.345</ele>
        <time>2011-10-03T17:46:30Z</time>
      </trkpt>
      <trkpt lat="42.78658" lon="0.42878">
        <ele>1699.922</ele>
        <time>2011-10-03T17:46:31Z</time>
      </trkpt>
      <trkpt lat="42.78659" lon="0.42869">
        <ele>1699.876</ele>
        <time>2011-10-03T17:46:32Z</time>
      </trkpt>
      <trkpt lat="42.78659" lon="0.42869">
        <ele>1699.697</ele>
        <time>2011-10-03T17:46:32Z</time>
      </trkpt>
      <trkpt lat="42.78659" lon="0.42854">
        <ele>1699.026</ele>
        <time>2011-10-03T17:46:34Z</time>
      </trkpt>
      <trkpt lat="42.7866" lon="0.42846">
        <ele>1697.661</ele>
        <time>2011-10-03T17:46:35Z</time>
      </trkpt>
      <trkpt lat="42.78662" lon="0.42838">
        <ele>1696.752</ele>
        <time>2011-10-03T17:46:36Z</time>
      </trkpt>
      <trkpt lat="42.78664" lon="0.42829">
        <ele>1697.074</ele>
        <time>2011-10-03T17:46:37Z</time>
      </trkpt>
      <trkpt lat="42.78667" lon="0.42822">
        <ele>1698.266</ele>
        <time>2011-10-03T17:46:38Z</time>
      </trkpt>
      <trkpt lat="42.78667" lon="0.42815">
        <ele>1699.285</ele>
        <time>2011-10-03T17:46:39Z</time>
      </trkpt>
      <trkpt lat="42.78668" lon="0.42809">
        <ele>1699.559</ele>
        <time>2011-10-03T17:46:40Z</time>
      </trkpt>
      <trkpt lat="42.78668" lon="0.42801">
        <ele>1699.179</ele>
        <time>2011-10-03T17:46:41Z</time>
      </trkpt>
      <trkpt lat="42.7867" lon="0.42792">
        <ele>1698.809</ele>
        <time>2011-10-03T17:46:42Z</time>
      </trkpt>
      <trkpt lat="42.78672" lon="0.42783">
        <ele>1699.118</ele>
        <time>2011-10-03T17:46:43Z</time>
      </trkpt>
      <trkpt lat="42.78673" lon="0.42774">
        <ele>1700.35</ele>
        <time>2011-10-03T17:46:44Z</time>
      </trkpt>
      <trkpt lat="42.78674" lon="0.42766">
        <ele>1701.288</ele>
        <time>2011-10-03T17:46:45Z</time>
      </trkpt>
      <trkpt lat="42.78677" lon="0.4276">
        <ele>1701.47</ele>
        <time>2011-10-03T17:46:46Z</time>
      </trkpt>
      <trkpt lat="42.7868" lon="0.42753">
        <ele>1701.3</ele>
        <time>2011-10-03T17:46:47Z</time>
      </trkpt>
      <trkpt lat="42.78686" lon="0.42739">
        <ele>1701.024</ele>
        <time>2011-10-03T17:46:49Z</time>
      </trkpt>
      <trkpt lat="42.78689" lon="0.42733">
        <ele>1700.785</ele>
        <time>2011-10-03T17:46:50Z</time>
      </trkpt>
      <trkpt lat="42.78692" lon="0.42726">
        <ele>1700.473</ele>
        <time>2011-10-03T17:46:51Z</time>
      </trkpt>
      <trkpt lat="42.78692" lon="0.42726">
        <ele>1700.164</ele>
        <time>2011-10-03T17:46:51Z</time>
      </trkpt>
      <trkpt lat="42.78699" lon="0.42712">
        <ele>1700.218</ele>
        <time>2011-10-03T17:46:53Z</time>
      </trkpt>
      <trkpt lat="42.78702" lon="0.42704">
        <ele>1700.838</ele>
        <time>2011-10-03T17:46:54Z</time>
      </trkpt>
      <trkpt lat="42.78704" lon="0.42697">
        <ele>1701.46</ele>
        <time>2011-10-03T17:46:55Z</time>
      </trkpt>
      <trkpt lat="42.78706" lon="0.42691">
        <ele>1701.391</ele>
        <time>2011-10-03T17:46:56Z</time>
      </trkpt>
      <trkpt lat="42.7871" lon="0.42687">
        <ele>1700.643</ele>
        <time>2011-10-03T17:46:57Z</time>
      </trkpt>
      <trkpt lat="42.78715" lon="0.42682">
        <ele>1699.571</ele>
        <time>2011-10-03T17:46:58Z</time>
      </trkpt>
      <trkpt lat="42.78719" lon="0.42676">
        <ele>1698.296</ele>
        <time>2011-10-03T17:46:59Z</time>
      </trkpt>
      <trkpt lat="42.78723" lon="0.4267">
        <ele>1697.361</ele>
        <time>2011-10-03T17:47:00Z</time>
      </trkpt>
      <trkpt lat="42.78727" lon="0.42663">
        <ele>1696.462</ele>
        <time>2011-10-03T17:47:01Z</time>
      </trkpt>
      <trkpt lat="42.78732" lon="0.42656">
        <ele>1695.582</ele>
        <time>2011-10-03T17:47:02Z</time>
      </trkpt>
      <trkpt lat="42.78736" lon="0.42648">
        <ele>1694.713</ele>
        <time>2011-10-03T17:47:03Z</time>
      </trkpt>
      <trkpt lat="42.7874" lon="0.4264">
        <ele>1693.396</ele>
        <time>2011-10-03T17:47:04Z</time>
      </trkpt>
      <trkpt lat="42.78744" lon="0.4263">
        <ele>1691.809</ele>
        <time>2011-10-03T17:47:05Z</time>
      </trkpt>
      <trkpt lat="42.78747" lon="0.4262">
        <ele>1690.313</ele>
        <time>2011-10-03T17:47:06Z</time>
      </trkpt>
      <trkpt lat="42.78751" lon="0.4261">
        <ele>1689.2</ele>
        <time>2011-10-03T17:47:07Z</time>
      </trkpt>
      <trkpt lat="42.78751" lon="0.4261">
        <ele>1689.003</ele>
        <time>2011-10-03T17:47:07Z</time>
      </trkpt>
      <trkpt lat="42.78758" lon="0.4259">
        <ele>1689.129</ele>
        <time>2011-10-03T17:47:09Z</time>
      </trkpt>
      <trkpt lat="42.78765" lon="0.42573">
        <ele>1689.167</ele>
        <time>2011-10-03T17:47:11Z</time>
      </trkpt>
      <trkpt lat="42.78765" lon="0.42573">
        <ele>1688.655</ele>
        <time>2011-10-03T17:47:11Z</time>
      </trkpt>
      <trkpt lat="42.78776" lon="0.42557">
        <ele>1687.814</ele>
        <time>2011-10-03T17:47:13Z</time>
      </trkpt>
      <trkpt lat="42.78781" lon="0.42549">
        <ele>1687.14</ele>
        <time>2011-10-03T17:47:14Z</time>
      </trkpt>
      <trkpt lat="42.78786" lon="0.42541">
        <ele>1686.61</ele>
        <time>2011-10-03T17:47:15Z</time>
      </trkpt>
      <trkpt lat="42.7879" lon="0.42534">
        <ele>1685.975</ele>
        <time>2011-10-03T17:47:16Z</time>
      </trkpt>
      <trkpt lat="42.78794" lon="0.42526">
        <ele>1685.182</ele>
        <time>2011-10-03T17:47:17Z</time>
      </trkpt>
      <trkpt lat="42.78798" lon="0.42518">
        <ele>1684.086</ele>
        <time>2011-10-03T17:47:18Z</time>
      </trkpt>
      <trkpt lat="42.78803" lon="0.42511">
        <ele>1683.168</ele>
        <time>2011-10-03T17:47:19Z</time>
      </trkpt>
      <trkpt lat="42.78807" lon="0.42504">
        <ele>1682.396</ele>
        <time>2011-10-03T17:47:20Z</time>
      </trkpt>
      <trkpt lat="42.78811" lon="0.42498">
        <ele>1681.58</ele>
        <time>2011-10-03T17:47:21Z</time>
      </trkpt>
      <trkpt lat="42.78815" lon="0.42491">
        <ele>1680.487</ele>
        <time>2011-10-03T17:47:22Z</time>
      </trkpt>
      <trkpt lat="42.7882" lon="0.42483">
        <ele>1679.388</ele>
        <time>2011-10-03T17:47:23Z</time>
      </trkpt>
      <trkpt lat="42.78825" lon="0.42476">
        <ele>1678.486</ele>
        <time>2011-10-03T17:47:24Z</time>
      </trkpt>
      <trkpt lat="42.7883" lon="0.4247">
        <ele>1677.74</ele>
        <time>2011-10-03T17:47:25Z</time>
      </trkpt>
      <trkpt lat="42.78836" lon="0.42464">
        <ele>1677.072</ele>
        <time>2011-10-03T17:47:26Z</time>
      </trkpt>
      <trkpt lat="42.78841" lon="0.42458">
        <ele>1675.894</ele>
        <time>2011-10-03T17:47:27Z</time>
      </trkpt>
      <trkpt lat="42.78846" lon="0.42452">
        <ele>1674.199</ele>
        <time>2011-10-03T17:47:28Z</time>
      </trkpt>
      <trkpt lat="42.78852" lon="0.42446">
        <ele>1672.453</ele>
        <time>2011-10-03T17:47:29Z</time>
      </trkpt>
      <trkpt lat="42.78858" lon="0.4244">
        <ele>1670.941</ele>
        <time>2011-10-03T17:47:30Z</time>
      </trkpt>
      <trkpt lat="42.78858" lon="0.4244">
        <ele>1670.011</ele>
        <time>2011-10-03T17:47:30Z</time>
      </trkpt>
      <trkpt lat="42.78869" lon="0.42426">
        <ele>1669.232</ele>
        <time>2011-10-03T17:47:32Z</time>
      </trkpt>
      <trkpt lat="42.78878" lon="0.42411">
        <ele>1668.627</ele>
        <time>2011-10-03T17:47:34Z</time>
      </trkpt>
      <trkpt lat="42.78882" lon="0.42404">
        <ele>1667.485</ele>
        <time>2011-10-03T17:47:35Z</time>
      </trkpt>
      <trkpt lat="42.78887" lon="0.42397">
        <ele>1666.729</ele>
        <time>2011-10-03T17:47:36Z</time>
      </trkpt>
      <trkpt lat="42.78887" lon="0.42397">
        <ele>1664.826</ele>
        <time>2011-10-03T17:47:36Z</time>
      </trkpt>
      <trkpt lat="42.78896" lon="0.42383">
        <ele>1662.742</ele>
        <time>2011-10-03T17:47:38Z</time>
      </trkpt>
      <trkpt lat="42.789" lon="0.42374">
        <ele>1661.105</ele>
        <time>2011-10-03T17:47:39Z</time>
      </trkpt>
      <trkpt lat="42.78904" lon="0.42365">
        <ele>1660.051</ele>
        <time>2011-10-03T17:47:40Z</time>
      </trkpt>
      <trkpt lat="42.78908" lon="0.42356">
        <ele>1659.21</ele>
        <time>2011-10-03T17:47:41Z</time>
      </trkpt>
      <trkpt lat="42.78908" lon="0.42356">
        <ele>1658.42</ele>
        <time>2011-10-03T17:47:41Z</time>
      </trkpt>
      <trkpt lat="42.78912" lon="0.42348">
        <ele>1657.264</ele>
        <time>2011-10-03T17:47:42Z</time>
      </trkpt>
      <trkpt lat="42.7892" lon="0.42332">
        <ele>1656.135</ele>
        <time>2011-10-03T17:47:44Z</time>
      </trkpt>
      <trkpt lat="42.78923" lon="0.42323">
        <ele>1655.032</ele>
        <time>2011-10-03T17:47:45Z</time>
      </trkpt>
      <trkpt lat="42.78927" lon="0.42314">
        <ele>1654.213</ele>
        <time>2011-10-03T17:47:46Z</time>
      </trkpt>
      <trkpt lat="42.7893" lon="0.42306">
        <ele>1653.391</ele>
        <time>2011-10-03T17:47:47Z</time>
      </trkpt>
      <trkpt lat="42.78934" lon="0.42297">
        <ele>1652.557</ele>
        <time>2011-10-03T17:47:48Z</time>
      </trkpt>
      <trkpt lat="42.78938" lon="0.42288">
        <ele>1651.424</ele>
        <time>2011-10-03T17:47:49Z</time>
      </trkpt>
      <trkpt lat="42.78941" lon="0.42279">
        <ele>1649.458</ele>
        <time>2011-10-03T17:47:50Z</time>
      </trkpt>
      <trkpt lat="42.78945" lon="0.42269">
        <ele>1647.473</ele>
        <time>2011-10-03T17:47:51Z</time>
      </trkpt>
      <trkpt lat="42.78948" lon="0.42259">
        <ele>1645.343</ele>
        <time>2011-10-03T17:47:52Z</time>
      </trkpt>
      <trkpt lat="42.78953" lon="0.42249">
        <ele>1643.31</ele>
        <time>2011-10-03T17:47:53Z</time>
      </trkpt>
      <trkpt lat="42.78957" lon="0.4224">
        <ele>1641.71</ele>
        <time>2011-10-03T17:47:54Z</time>
      </trkpt>
      <trkpt lat="42.78961" lon="0.42232">
        <ele>1640.228</ele>
        <time>2011-10-03T17:47:55Z</time>
      </trkpt>
      <trkpt lat="42.78965" lon="0.42223">
        <ele>1638.498</ele>
        <time>2011-10-03T17:47:56Z</time>
      </trkpt>
      <trkpt lat="42.78968" lon="0.42213">
        <ele>1636.816</ele>
        <time>2011-10-03T17:47:57Z</time>
      </trkpt>
      <trkpt lat="42.78972" lon="0.42204">
        <ele>1635.245</ele>
        <time>2011-10-03T17:47:58Z</time>
      </trkpt>
      <trkpt lat="42.78976" lon="0.42195">
        <ele>1633.564</ele>
        <time>2011-10-03T17:47:59Z</time>
      </trkpt>
      <trkpt lat="42.7898" lon="0.42185">
        <ele>1631.728</ele>
        <time>2011-10-03T17:48:00Z</time>
      </trkpt>
      <trkpt lat="42.78984" lon="0.42176">
        <ele>1630.046</ele>
        <time>2011-10-03T17:48:01Z</time>
      </trkpt>
      <trkpt lat="42.78988" lon="0.42166">
        <ele>1628.616</ele>
        <time>2011-10-03T17:48:02Z</time>
      </trkpt>
      <trkpt lat="42.78988" lon="0.42166">
        <ele>1628.022</ele>
        <time>2011-10-03T17:48:02Z</time>
      </trkpt>
      <trkpt lat="42.78992" lon="0.42148">
        <ele>1627.547</ele>
        <time>2011-10-03T17:48:04Z</time>
      </trkpt>
      <trkpt lat="42.78993" lon="0.42141">
        <ele>1626.55</ele>
        <time>2011-10-03T17:48:05Z</time>
      </trkpt>
      <trkpt lat="42.78994" lon="0.42133">
        <ele>1624.747</ele>
        <time>2011-10-03T17:48:06Z</time>
      </trkpt>
      <trkpt lat="42.78996" lon="0.42125">
        <ele>1622.736</ele>
        <time>2011-10-03T17:48:07Z</time>
      </trkpt>
      <trkpt lat="42.78999" lon="0.42117">
        <ele>1621.006</ele>
        <time>2011-10-03T17:48:08Z</time>
      </trkpt>
      <trkpt lat="42.79002" lon="0.42108">
        <ele>1619.722</ele>
        <time>2011-10-03T17:48:09Z</time>
      </trkpt>
      <trkpt lat="42.79004" lon="0.421">
        <ele>1618.742</ele>
        <time>2011-10-03T17:48:10Z</time>
      </trkpt>
      <trkpt lat="42.79006" lon="0.42092">
        <ele>1617.49</ele>
        <time>2011-10-03T17:48:11Z</time>
      </trkpt>
      <trkpt lat="42.79008" lon="0.42085">
        <ele>1615.948</ele>
        <time>2011-10-03T17:48:12Z</time>
      </trkpt>
      <trkpt lat="42.79008" lon="0.42085">
        <ele>1614.458</ele>
        <time>2011-10-03T17:48:12Z</time>
      </trkpt>
      <trkpt lat="42.79015" lon="0.42059">
        <ele>1612.897</ele>
        <time>2011-10-03T17:48:15Z</time>
      </trkpt>
      <trkpt lat="42.79015" lon="0.42059">
        <ele>1611.791</ele>
        <time>2011-10-03T17:48:15Z</time>
      </trkpt>
      <trkpt lat="42.79017" lon="0.42051">
        <ele>1610.652</ele>
        <time>2011-10-03T17:48:16Z</time>
      </trkpt>
      <trkpt lat="42.7902" lon="0.42035">
        <ele>1609.611</ele>
        <time>2011-10-03T17:48:18Z</time>
      </trkpt>
      <trkpt lat="42.79023" lon="0.42027">
        <ele>1608.334</ele>
        <time>2011-10-03T17:48:19Z</time>
      </trkpt>
      <trkpt lat="42.79025" lon="0.42018">
        <ele>1606.923</ele>
        <time>2011-10-03T17:48:20Z</time>
      </trkpt>
      <trkpt lat="42.79027" lon="0.42009">
        <ele>1605.529</ele>
        <time>2011-10-03T17:48:21Z</time>
      </trkpt>
      <trkpt lat="42.79027" lon="0.42009">
        <ele>1604.221</ele>
        <time>2011-10-03T17:48:21Z</time>
      </trkpt>
      <trkpt lat="42.79031" lon="0.41992">
        <ele>1602.959</ele>
        <time>2011-10-03T17:48:23Z</time>
      </trkpt>
      <trkpt lat="42.79034" lon="0.41984">
        <ele>1601.66</ele>
        <time>2011-10-03T17:48:24Z</time>
      </trkpt>
      <trkpt lat="42.79036" lon="0.41975">
        <ele>1600.561</ele>
        <time>2011-10-03T17:48:25Z</time>
      </trkpt>
      <trkpt lat="42.79038" lon="0.41966">
        <ele>1599.701</ele>
        <time>2011-10-03T17:48:26Z</time>
      </trkpt>
      <trkpt lat="42.79041" lon="0.41958">
        <ele>1599.026</ele>
        <time>2011-10-03T17:48:27Z</time>
      </trkpt>
      <trkpt lat="42.79043" lon="0.41951">
        <ele>1598.244</ele>
        <time>2011-10-03T17:48:28Z</time>
      </trkpt>
      <trkpt lat="42.79046" lon="0.41944">
        <ele>1597.134</ele>
        <time>2011-10-03T17:48:29Z</time>
      </trkpt>
      <trkpt lat="42.7905" lon="0.41936">
        <ele>1596.195</ele>
        <time>2011-10-03T17:48:30Z</time>
      </trkpt>
      <trkpt lat="42.79053" lon="0.41928">
        <ele>1594.524</ele>
        <time>2011-10-03T17:48:31Z</time>
      </trkpt>
      <trkpt lat="42.79057" lon="0.4192">
        <ele>1593.234</ele>
        <time>2011-10-03T17:48:32Z</time>
      </trkpt>
      <trkpt lat="42.79061" lon="0.41913">
        <ele>1592.447</ele>
        <time>2011-10-03T17:48:33Z</time>
      </trkpt>
      <trkpt lat="42.79065" lon="0.41906">
        <ele>1591.801</ele>
        <time>2011-10-03T17:48:34Z</time>
      </trkpt>
      <trkpt lat="42.79069" lon="0.419">
        <ele>1591.326</ele>
        <time>2011-10-03T17:48:35Z</time>
      </trkpt>
      <trkpt lat="42.79073" lon="0.41893">
        <ele>1590.659</ele>
        <time>2011-10-03T17:48:36Z</time>
      </trkpt>
      <trkpt lat="42.79077" lon="0.41886">
        <ele>1589.76</ele>
        <time>2011-10-03T17:48:37Z</time>
      </trkpt>
      <trkpt lat="42.79081" lon="0.41879">
        <ele>1588.705</ele>
        <time>2011-10-03T17:48:38Z</time>
      </trkpt>
      <trkpt lat="42.79085" lon="0.41872">
        <ele>1587.419</ele>
        <time>2011-10-03T17:48:39Z</time>
      </trkpt>
      <trkpt lat="42.7909" lon="0.41865">
        <ele>1586.231</ele>
        <time>2011-10-03T17:48:40Z</time>
      </trkpt>
      <trkpt lat="42.79094" lon="0.41858">
        <ele>1585.127</ele>
        <time>2011-10-03T17:48:41Z</time>
      </trkpt>
      <trkpt lat="42.79098" lon="0.41851">
        <ele>1583.859</ele>
        <time>2011-10-03T17:48:42Z</time>
      </trkpt>
      <trkpt lat="42.79102" lon="0.41844">
        <ele>1582.273</ele>
        <time>2011-10-03T17:48:43Z</time>
      </trkpt>
      <trkpt lat="42.79106" lon="0.41836">
        <ele>1580.539</ele>
        <time>2011-10-03T17:48:44Z</time>
      </trkpt>
      <trkpt lat="42.7911" lon="0.41828">
        <ele>1579.228</ele>
        <time>2011-10-03T17:48:45Z</time>
      </trkpt>
      <trkpt lat="42.79114" lon="0.4182">
        <ele>1578.378</ele>
        <time>2011-10-03T17:48:46Z</time>
      </trkpt>
      <trkpt lat="42.79118" lon="0.41812">
        <ele>1577.772</ele>
        <time>2011-10-03T17:48:47Z</time>
      </trkpt>
      <trkpt lat="42.79121" lon="0.41804">
        <ele>1577.027</ele>
        <time>2011-10-03T17:48:48Z</time>
      </trkpt>
      <trkpt lat="42.79123" lon="0.41796">
        <ele>1576.002</ele>
        <time>2011-10-03T17:48:49Z</time>
      </trkpt>
      <trkpt lat="42.79127" lon="0.41787">
        <ele>1574.877</ele>
        <time>2011-10-03T17:48:50Z</time>
      </trkpt>
      <trkpt lat="42.7913" lon="0.41779">
        <ele>1573.655</ele>
        <time>2011-10-03T17:48:51Z</time>
      </trkpt>
      <trkpt lat="42.79133" lon="0.4177">
        <ele>1572.615</ele>
        <time>2011-10-03T17:48:52Z</time>
      </trkpt>
      <trkpt lat="42.79137" lon="0.41762">
        <ele>1571.676</ele>
        <time>2011-10-03T17:48:53Z</time>
      </trkpt>
      <trkpt lat="42.7914" lon="0.41754">
        <ele>1570.891</ele>
        <time>2011-10-03T17:48:54Z</time>
      </trkpt>
      <trkpt lat="42.79147" lon="0.41739">
        <ele>1570.025</ele>
        <time>2011-10-03T17:48:56Z</time>
      </trkpt>
      <trkpt lat="42.79147" lon="0.41739">
        <ele>1569.101</ele>
        <time>2011-10-03T17:48:56Z</time>
      </trkpt>
      <trkpt lat="42.79154" lon="0.41724">
        <ele>1568.358</ele>
        <time>2011-10-03T17:48:58Z</time>
      </trkpt>
      <trkpt lat="42.79158" lon="0.41716">
        <ele>1566.863</ele>
        <time>2011-10-03T17:48:59Z</time>
      </trkpt>
      <trkpt lat="42.79162" lon="0.41708">
        <ele>1565.438</ele>
        <time>2011-10-03T17:49:00Z</time>
      </trkpt>
      <trkpt lat="42.79165" lon="0.417">
        <ele>1564.14</ele>
        <time>2011-10-03T17:49:01Z</time>
      </trkpt>
      <trkpt lat="42.79169" lon="0.41692">
        <ele>1563.03</ele>
        <time>2011-10-03T17:49:02Z</time>
      </trkpt>
      <trkpt lat="42.79172" lon="0.41684">
        <ele>1562.242</ele>
        <time>2011-10-03T17:49:03Z</time>
      </trkpt>
      <trkpt lat="42.79175" lon="0.41676">
        <ele>1561.779</ele>
        <time>2011-10-03T17:49:04Z</time>
      </trkpt>
      <trkpt lat="42.79177" lon="0.41668">
        <ele>1561.529</ele>
        <time>2011-10-03T17:49:05Z</time>
      </trkpt>
      <trkpt lat="42.79179" lon="0.41661">
        <ele>1561.38</ele>
        <time>2011-10-03T17:49:06Z</time>
      </trkpt>
      <trkpt lat="42.79182" lon="0.41654">
        <ele>1561.004</ele>
        <time>2011-10-03T17:49:07Z</time>
      </trkpt>
      <trkpt lat="42.79184" lon="0.41648">
        <ele>1560.277</ele>
        <time>2011-10-03T17:49:08Z</time>
      </trkpt>
      <trkpt lat="42.79187" lon="0.41642">
        <ele>1559.164</ele>
        <time>2011-10-03T17:49:09Z</time>
      </trkpt>
      <trkpt lat="42.7919" lon="0.41634">
        <ele>1558.432</ele>
        <time>2011-10-03T17:49:10Z</time>
      </trkpt>
      <trkpt lat="42.79192" lon="0.41625">
        <ele>1558.195</ele>
        <time>2011-10-03T17:49:11Z</time>
      </trkpt>
      <trkpt lat="42.79194" lon="0.41616">
        <ele>1558.207</ele>
        <time>2011-10-03T17:49:12Z</time>
      </trkpt>
      <trkpt lat="42.79195" lon="0.41608">
        <ele>1557.855</ele>
        <time>2011-10-03T17:49:13Z</time>
      </trkpt>
      <trkpt lat="42.79197" lon="0.416">
        <ele>1556.72</ele>
        <time>2011-10-03T17:49:14Z</time>
      </trkpt>
      <trkpt lat="42.79199" lon="0.41592">
        <ele>1555.016</ele>
        <time>2011-10-03T17:49:15Z</time>
      </trkpt>
      <trkpt lat="42.79202" lon="0.41584">
        <ele>1553.276</ele>
        <time>2011-10-03T17:49:16Z</time>
      </trkpt>
      <trkpt lat="42.79205" lon="0.41575">
        <ele>1551.487</ele>
        <time>2011-10-03T17:49:17Z</time>
      </trkpt>
      <trkpt lat="42.79207" lon="0.41566">
        <ele>1549.969</ele>
        <time>2011-10-03T17:49:18Z</time>
      </trkpt>
      <trkpt lat="42.79209" lon="0.41557">
        <ele>1548.554</ele>
        <time>2011-10-03T17:49:19Z</time>
      </trkpt>
      <trkpt lat="42.79211" lon="0.41548">
        <ele>1547.277</ele>
        <time>2011-10-03T17:49:20Z</time>
      </trkpt>
      <trkpt lat="42.79214" lon="0.4154">
        <ele>1546.136</ele>
        <time>2011-10-03T17:49:21Z</time>
      </trkpt>
      <trkpt lat="42.79217" lon="0.41532">
        <ele>1545.076</ele>
        <time>2011-10-03T17:49:22Z</time>
      </trkpt>
      <trkpt lat="42.79219" lon="0.41525">
        <ele>1543.723</ele>
        <time>2011-10-03T17:49:23Z</time>
      </trkpt>
      <trkpt lat="42.79219" lon="0.41525">
        <ele>1542.799</ele>
        <time>2011-10-03T17:49:23Z</time>
      </trkpt>
      <trkpt lat="42.79223" lon="0.41506">
        <ele>1541.49</ele>
        <time>2011-10-03T17:49:25Z</time>
      </trkpt>
      <trkpt lat="42.79225" lon="0.41497">
        <ele>1540.01</ele>
        <time>2011-10-03T17:49:26Z</time>
      </trkpt>
      <trkpt lat="42.79227" lon="0.41488">
        <ele>1538.629</ele>
        <time>2011-10-03T17:49:27Z</time>
      </trkpt>
      <trkpt lat="42.7923" lon="0.4148">
        <ele>1537.032</ele>
        <time>2011-10-03T17:49:28Z</time>
      </trkpt>
      <trkpt lat="42.79234" lon="0.41462">
        <ele>1535.721</ele>
        <time>2011-10-03T17:49:30Z</time>
      </trkpt>
      <trkpt lat="42.79236" lon="0.41453">
        <ele>1534.497</ele>
        <time>2011-10-03T17:49:31Z</time>
      </trkpt>
      <trkpt lat="42.79236" lon="0.41453">
        <ele>1533.203</ele>
        <time>2011-10-03T17:49:31Z</time>
      </trkpt>
      <trkpt lat="42.79242" lon="0.41438">
        <ele>1531.874</ele>
        <time>2011-10-03T17:49:33Z</time>
      </trkpt>
      <trkpt lat="42.79245" lon="0.41431">
        <ele>1530.233</ele>
        <time>2011-10-03T17:49:34Z</time>
      </trkpt>
      <trkpt lat="42.79249" lon="0.41424">
        <ele>1528.412</ele>
        <time>2011-10-03T17:49:35Z</time>
      </trkpt>
      <trkpt lat="42.79252" lon="0.41416">
        <ele>1526.77</ele>
        <time>2011-10-03T17:49:36Z</time>
      </trkpt>
      <trkpt lat="42.79252" lon="0.41416">
        <ele>1525.604</ele>
        <time>2011-10-03T17:49:36Z</time>
      </trkpt>
      <trkpt lat="42.79256" lon="0.41401">
        <ele>1524.647</ele>
        <time>2011-10-03T17:49:38Z</time>
      </trkpt>
      <trkpt lat="42.79258" lon="0.41395">
        <ele>1523.228</ele>
        <time>2011-10-03T17:49:39Z</time>
      </trkpt>
      <trkpt lat="42.7926" lon="0.41388">
        <ele>1521.321</ele>
        <time>2011-10-03T17:49:40Z</time>
      </trkpt>
      <trkpt lat="42.79263" lon="0.41379">
        <ele>1519.506</ele>
        <time>2011-10-03T17:49:41Z</time>
      </trkpt>
      <trkpt lat="42.79265" lon="0.41371">
        <ele>1517.824</ele>
        <time>2011-10-03T17:49:42Z</time>
      </trkpt>
      <trkpt lat="42.79267" lon="0.41363">
        <ele>1516.633</ele>
        <time>2011-10-03T17:49:43Z</time>
      </trkpt>
      <trkpt lat="42.79269" lon="0.41356">
        <ele>1515.723</ele>
        <time>2011-10-03T17:49:44Z</time>
      </trkpt>
      <trkpt lat="42.7927" lon="0.41348">
        <ele>1514.927</ele>
        <time>2011-10-03T17:49:45Z</time>
      </trkpt>
      <trkpt lat="42.79271" lon="0.4134">
        <ele>1514.084</ele>
        <time>2011-10-03T17:49:46Z</time>
      </trkpt>
      <trkpt lat="42.79273" lon="0.41331">
        <ele>1513.312</ele>
        <time>2011-10-03T17:49:47Z</time>
      </trkpt>
      <trkpt lat="42.79274" lon="0.41321">
        <ele>1512.501</ele>
        <time>2011-10-03T17:49:48Z</time>
      </trkpt>
      <trkpt lat="42.79276" lon="0.41313">
        <ele>1511.673</ele>
        <time>2011-10-03T17:49:49Z</time>
      </trkpt>
      <trkpt lat="42.79277" lon="0.41304">
        <ele>1510.592</ele>
        <time>2011-10-03T17:49:50Z</time>
      </trkpt>
      <trkpt lat="42.79278" lon="0.41295">
        <ele>1509.535</ele>
        <time>2011-10-03T17:49:51Z</time>
      </trkpt>
      <trkpt lat="42.7928" lon="0.41285">
        <ele>1509.049</ele>
        <time>2011-10-03T17:49:52Z</time>
      </trkpt>
      <trkpt lat="42.79281" lon="0.41275">
        <ele>1509.049</ele>
        <time>2011-10-03T17:49:53Z</time>
      </trkpt>
      <trkpt lat="42.79281" lon="0.41266">
        <ele>1509.475</ele>
        <time>2011-10-03T17:49:54Z</time>
      </trkpt>
      <trkpt lat="42.79282" lon="0.41257">
        <ele>1509.716</ele>
        <time>2011-10-03T17:49:55Z</time>
      </trkpt>
      <trkpt lat="42.79283" lon="0.41249">
        <ele>1509.301</ele>
        <time>2011-10-03T17:49:56Z</time>
      </trkpt>
      <trkpt lat="42.79284" lon="0.41241">
        <ele>1508.455</ele>
        <time>2011-10-03T17:49:57Z</time>
      </trkpt>
      <trkpt lat="42.79286" lon="0.41231">
        <ele>1507.46</ele>
        <time>2011-10-03T17:49:58Z</time>
      </trkpt>
      <trkpt lat="42.79288" lon="0.41222">
        <ele>1506.663</ele>
        <time>2011-10-03T17:49:59Z</time>
      </trkpt>
      <trkpt lat="42.7929" lon="0.41213">
        <ele>1506.369</ele>
        <time>2011-10-03T17:50:00Z</time>
      </trkpt>
      <trkpt lat="42.79292" lon="0.41204">
        <ele>1506.307</ele>
        <time>2011-10-03T17:50:01Z</time>
      </trkpt>
      <trkpt lat="42.79293" lon="0.41195">
        <ele>1506.122</ele>
        <time>2011-10-03T17:50:02Z</time>
      </trkpt>
      <trkpt lat="42.79294" lon="0.41186">
        <ele>1505.352</ele>
        <time>2011-10-03T17:50:03Z</time>
      </trkpt>
      <trkpt lat="42.79296" lon="0.41177">
        <ele>1504.328</ele>
        <time>2011-10-03T17:50:04Z</time>
      </trkpt>
      <trkpt lat="42.79296" lon="0.41177">
        <ele>1503.424</ele>
        <time>2011-10-03T17:50:04Z</time>
      </trkpt>
      <trkpt lat="42.79302" lon="0.41158">
        <ele>1503.137</ele>
        <time>2011-10-03T17:50:06Z</time>
      </trkpt>
      <trkpt lat="42.79305" lon="0.41149">
        <ele>1503.347</ele>
        <time>2011-10-03T17:50:07Z</time>
      </trkpt>
      <trkpt lat="42.79309" lon="0.41132">
        <ele>1503.606</ele>
        <time>2011-10-03T17:50:09Z</time>
      </trkpt>
      <trkpt lat="42.79311" lon="0.41123">
        <ele>1503.703</ele>
        <time>2011-10-03T17:50:10Z</time>
      </trkpt>
      <trkpt lat="42.79314" lon="0.41113">
        <ele>1503.674</ele>
        <time>2011-10-03T17:50:11Z</time>
      </trkpt>
      <trkpt lat="42.79314" lon="0.41113">
        <ele>1503.596</ele>
        <time>2011-10-03T17:50:11Z</time>
      </trkpt>
      <trkpt lat="42.7932" lon="0.41097">
        <ele>1503.411</ele>
        <time>2011-10-03T17:50:13Z</time>
      </trkpt>
      <trkpt lat="42.79324" lon="0.41089">
        <ele>1503.21</ele>
        <time>2011-10-03T17:50:14Z</time>
      </trkpt>
      <trkpt lat="42.79327" lon="0.41081">
        <ele>1502.939</ele>
        <time>2011-10-03T17:50:15Z</time>
      </trkpt>
      <trkpt lat="42.79329" lon="0.41073">
        <ele>1502.552</ele>
        <time>2011-10-03T17:50:16Z</time>
      </trkpt>
      <trkpt lat="42.79329" lon="0.41073">
        <ele>1501.881</ele>
        <time>2011-10-03T17:50:16Z</time>
      </trkpt>
      <trkpt lat="42.79336" lon="0.41055">
        <ele>1501.185</ele>
        <time>2011-10-03T17:50:18Z</time>
      </trkpt>
      <trkpt lat="42.79338" lon="0.41047">
        <ele>1500.89</ele>
        <time>2011-10-03T17:50:19Z</time>
      </trkpt>
      <trkpt lat="42.79341" lon="0.41038">
        <ele>1501.142</ele>
        <time>2011-10-03T17:50:20Z</time>
      </trkpt>
      <trkpt lat="42.79343" lon="0.4103">
        <ele>1502.247</ele>
        <time>2011-10-03T17:50:21Z</time>
      </trkpt>
      <trkpt lat="42.79345" lon="0.41023">
        <ele>1503.177</ele>
        <time>2011-10-03T17:50:22Z</time>
      </trkpt>
      <trkpt lat="42.79346" lon="0.41016">
        <ele>1503.491</ele>
        <time>2011-10-03T17:50:23Z</time>
      </trkpt>
      <trkpt lat="42.79349" lon="0.41009">
        <ele>1503.276</ele>
        <time>2011-10-03T17:50:24Z</time>
      </trkpt>
      <trkpt lat="42.79352" lon="0.41001">
        <ele>1503.002</ele>
        <time>2011-10-03T17:50:25Z</time>
      </trkpt>
      <trkpt lat="42.79355" lon="0.40992">
        <ele>1503.167</ele>
        <time>2011-10-03T17:50:26Z</time>
      </trkpt>
      <trkpt lat="42.79358" lon="0.40983">
        <ele>1503.622</ele>
        <time>2011-10-03T17:50:27Z</time>
      </trkpt>
      <trkpt lat="42.7936" lon="0.40975">
        <ele>1503.725</ele>
        <time>2011-10-03T17:50:28Z</time>
      </trkpt>
      <trkpt lat="42.79363" lon="0.40967">
        <ele>1503.39</ele>
        <time>2011-10-03T17:50:29Z</time>
      </trkpt>
      <trkpt lat="42.79371" lon="0.4095">
        <ele>1503.136</ele>
        <time>2011-10-03T17:50:31Z</time>
      </trkpt>
      <trkpt lat="42.79371" lon="0.4095">
        <ele>1503.36</ele>
        <time>2011-10-03T17:50:31Z</time>
      </trkpt>
      <trkpt lat="42.79377" lon="0.40934">
        <ele>1504.067</ele>
        <time>2011-10-03T17:50:33Z</time>
      </trkpt>
      <trkpt lat="42.7938" lon="0.40927">
        <ele>1505.06</ele>
        <time>2011-10-03T17:50:34Z</time>
      </trkpt>
      <trkpt lat="42.79382" lon="0.40921">
        <ele>1505.664</ele>
        <time>2011-10-03T17:50:35Z</time>
      </trkpt>
      <trkpt lat="42.79385" lon="0.40912">
        <ele>1505.708</ele>
        <time>2011-10-03T17:50:36Z</time>
      </trkpt>
      <trkpt lat="42.79385" lon="0.40912">
        <ele>1505.543</ele>
        <time>2011-10-03T17:50:36Z</time>
      </trkpt>
      <trkpt lat="42.79392" lon="0.40893">
        <ele>1505.895</ele>
        <time>2011-10-03T17:50:38Z</time>
      </trkpt>
      <trkpt lat="42.79395" lon="0.40885">
        <ele>1506.982</ele>
        <time>2011-10-03T17:50:39Z</time>
      </trkpt>
      <trkpt lat="42.79398" lon="0.40876">
        <ele>1508.253</ele>
        <time>2011-10-03T17:50:40Z</time>
      </trkpt>
      <trkpt lat="42.79401" lon="0.40868">
        <ele>1509.416</ele>
        <time>2011-10-03T17:50:41Z</time>
      </trkpt>
      <trkpt lat="42.79404" lon="0.4086">
        <ele>1509.979</ele>
        <time>2011-10-03T17:50:42Z</time>
      </trkpt>
      <trkpt lat="42.79408" lon="0.40851">
        <ele>1510.533</ele>
        <time>2011-10-03T17:50:43Z</time>
      </trkpt>
      <trkpt lat="42.79411" lon="0.40843">
        <ele>1511.275</ele>
        <time>2011-10-03T17:50:44Z</time>
      </trkpt>
      <trkpt lat="42.79414" lon="0.40835">
        <ele>1512.048</ele>
        <time>2011-10-03T17:50:45Z</time>
      </trkpt>
      <trkpt lat="42.79416" lon="0.40827">
        <ele>1512.576</ele>
        <time>2011-10-03T17:50:46Z</time>
      </trkpt>
      <trkpt lat="42.79419" lon="0.40818">
        <ele>1512.778</ele>
        <time>2011-10-03T17:50:47Z</time>
      </trkpt>
      <trkpt lat="42.79422" lon="0.40809">
        <ele>1513.181</ele>
        <time>2011-10-03T17:50:48Z</time>
      </trkpt>
      <trkpt lat="42.79426" lon="0.40801">
        <ele>1513.844</ele>
        <time>2011-10-03T17:50:49Z</time>
      </trkpt>
      <trkpt lat="42.7943" lon="0.40793">
        <ele>1514.341</ele>
        <time>2011-10-03T17:50:50Z</time>
      </trkpt>
      <trkpt lat="42.79434" lon="0.40786">
        <ele>1514.728</ele>
        <time>2011-10-03T17:50:51Z</time>
      </trkpt>
      <trkpt lat="42.79438" lon="0.4078">
        <ele>1515.086</ele>
        <time>2011-10-03T17:50:52Z</time>
      </trkpt>
      <trkpt lat="42.79446" lon="0.40766">
        <ele>1515.587</ele>
        <time>2011-10-03T17:50:54Z</time>
      </trkpt>
      <trkpt lat="42.79449" lon="0.4076">
        <ele>1516.196</ele>
        <time>2011-10-03T17:50:55Z</time>
      </trkpt>
      <trkpt lat="42.79452" lon="0.40754">
        <ele>1516.637</ele>
        <time>2011-10-03T17:50:56Z</time>
      </trkpt>
      <trkpt lat="42.79452" lon="0.40754">
        <ele>1516.353</ele>
        <time>2011-10-03T17:50:56Z</time>
      </trkpt>
      <trkpt lat="42.79456" lon="0.40742">
        <ele>1515.231</ele>
        <time>2011-10-03T17:50:58Z</time>
      </trkpt>
      <trkpt lat="42.79459" lon="0.40733">
        <ele>1513.662</ele>
        <time>2011-10-03T17:50:59Z</time>
      </trkpt>
      <trkpt lat="42.79463" lon="0.40725">
        <ele>1512.083</ele>
        <time>2011-10-03T17:51:00Z</time>
      </trkpt>
      <trkpt lat="42.79467" lon="0.40718">
        <ele>1511.281</ele>
        <time>2011-10-03T17:51:01Z</time>
      </trkpt>
      <trkpt lat="42.79467" lon="0.40718">
        <ele>1511.418</ele>
        <time>2011-10-03T17:51:01Z</time>
      </trkpt>
      <trkpt lat="42.79475" lon="0.40707">
        <ele>1511.967</ele>
        <time>2011-10-03T17:51:03Z</time>
      </trkpt>
      <trkpt lat="42.79479" lon="0.40702">
        <ele>1512.614</ele>
        <time>2011-10-03T17:51:04Z</time>
      </trkpt>
      <trkpt lat="42.79483" lon="0.40696">
        <ele>1512.86</ele>
        <time>2011-10-03T17:51:05Z</time>
      </trkpt>
      <trkpt lat="42.79488" lon="0.4069">
        <ele>1512.973</ele>
        <time>2011-10-03T17:51:06Z</time>
      </trkpt>
      <trkpt lat="42.79492" lon="0.40685">
        <ele>1513.403</ele>
        <time>2011-10-03T17:51:07Z</time>
      </trkpt>
      <trkpt lat="42.79497" lon="0.4068">
        <ele>1514.284</ele>
        <time>2011-10-03T17:51:08Z</time>
      </trkpt>
      <trkpt lat="42.795" lon="0.40676">
        <ele>1515.466</ele>
        <time>2011-10-03T17:51:09Z</time>
      </trkpt>
      <trkpt lat="42.79504" lon="0.40671">
        <ele>1516.239</ele>
        <time>2011-10-03T17:51:10Z</time>
      </trkpt>
      <trkpt lat="42.79508" lon="0.40665">
        <ele>1516.632</ele>
        <time>2011-10-03T17:51:11Z</time>
      </trkpt>
      <trkpt lat="42.79512" lon="0.40659">
        <ele>1516.979</ele>
        <time>2011-10-03T17:51:12Z</time>
      </trkpt>
      <trkpt lat="42.79516" lon="0.40654">
        <ele>1517.525</ele>
        <time>2011-10-03T17:51:13Z</time>
      </trkpt>
      <trkpt lat="42.79519" lon="0.40648">
        <ele>1518.043</ele>
        <time>2011-10-03T17:51:14Z</time>
      </trkpt>
      <trkpt lat="42.79523" lon="0.40643">
        <ele>1518.832</ele>
        <time>2011-10-03T17:51:15Z</time>
      </trkpt>
      <trkpt lat="42.79526" lon="0.40636">
        <ele>1519.41</ele>
        <time>2011-10-03T17:51:16Z</time>
      </trkpt>
      <trkpt lat="42.7953" lon="0.4063">
        <ele>1519.873</ele>
        <time>2011-10-03T17:51:17Z</time>
      </trkpt>
      <trkpt lat="42.79533" lon="0.40623">
        <ele>1520.383</ele>
        <time>2011-10-03T17:51:18Z</time>
      </trkpt>
      <trkpt lat="42.79537" lon="0.40617">
        <ele>1521.227</ele>
        <time>2011-10-03T17:51:19Z</time>
      </trkpt>
      <trkpt lat="42.79541" lon="0.4061">
        <ele>1522.41</ele>
        <time>2011-10-03T17:51:20Z</time>
      </trkpt>
      <trkpt lat="42.79544" lon="0.40603">
        <ele>1523.655</ele>
        <time>2011-10-03T17:51:21Z</time>
      </trkpt>
      <trkpt lat="42.79547" lon="0.40597">
        <ele>1524.627</ele>
        <time>2011-10-03T17:51:22Z</time>
      </trkpt>
      <trkpt lat="42.79549" lon="0.4059">
        <ele>1525.289</ele>
        <time>2011-10-03T17:51:23Z</time>
      </trkpt>
      <trkpt lat="42.79553" lon="0.40583">
        <ele>1525.702</ele>
        <time>2011-10-03T17:51:24Z</time>
      </trkpt>
      <trkpt lat="42.79556" lon="0.40576">
        <ele>1526.126</ele>
        <time>2011-10-03T17:51:25Z</time>
      </trkpt>
      <trkpt lat="42.7956" lon="0.40569">
        <ele>1526.567</ele>
        <time>2011-10-03T17:51:26Z</time>
      </trkpt>
      <trkpt lat="42.79563" lon="0.40562">
        <ele>1527.071</ele>
        <time>2011-10-03T17:51:27Z</time>
      </trkpt>
      <trkpt lat="42.79567" lon="0.40556">
        <ele>1527.595</ele>
        <time>2011-10-03T17:51:28Z</time>
      </trkpt>
      <trkpt lat="42.79571" lon="0.4055">
        <ele>1528.076</ele>
        <time>2011-10-03T17:51:29Z</time>
      </trkpt>
      <trkpt lat="42.79576" lon="0.40544">
        <ele>1528.45</ele>
        <time>2011-10-03T17:51:30Z</time>
      </trkpt>
      <trkpt lat="42.7958" lon="0.40537">
        <ele>1528.852</ele>
        <time>2011-10-03T17:51:31Z</time>
      </trkpt>
      <trkpt lat="42.79587" lon="0.40525">
        <ele>1529.243</ele>
        <time>2011-10-03T17:51:33Z</time>
      </trkpt>
      <trkpt lat="42.79591" lon="0.40519">
        <ele>1529.63</ele>
        <time>2011-10-03T17:51:34Z</time>
      </trkpt>
      <trkpt lat="42.79595" lon="0.40513">
        <ele>1529.862</ele>
        <time>2011-10-03T17:51:35Z</time>
      </trkpt>
      <trkpt lat="42.79599" lon="0.40507">
        <ele>1530.121</ele>
        <time>2011-10-03T17:51:36Z</time>
      </trkpt>
      <trkpt lat="42.79599" lon="0.40507">
        <ele>1530.5</ele>
        <time>2011-10-03T17:51:36Z</time>
      </trkpt>
      <trkpt lat="42.79607" lon="0.40494">
        <ele>1530.846</ele>
        <time>2011-10-03T17:51:38Z</time>
      </trkpt>
      <trkpt lat="42.79611" lon="0.40488">
        <ele>1531.165</ele>
        <time>2011-10-03T17:51:39Z</time>
      </trkpt>
      <trkpt lat="42.79615" lon="0.40481">
        <ele>1531.379</ele>
        <time>2011-10-03T17:51:40Z</time>
      </trkpt>
      <trkpt lat="42.79619" lon="0.40475">
        <ele>1531.639</ele>
        <time>2011-10-03T17:51:41Z</time>
      </trkpt>
      <trkpt lat="42.79619" lon="0.40475">
        <ele>1531.935</ele>
        <time>2011-10-03T17:51:41Z</time>
      </trkpt>
      <trkpt lat="42.79626" lon="0.40462">
        <ele>1532.683</ele>
        <time>2011-10-03T17:51:43Z</time>
      </trkpt>
      <trkpt lat="42.79629" lon="0.40456">
        <ele>1533.391</ele>
        <time>2011-10-03T17:51:44Z</time>
      </trkpt>
      <trkpt lat="42.79632" lon="0.4045">
        <ele>1533.807</ele>
        <time>2011-10-03T17:51:45Z</time>
      </trkpt>
      <trkpt lat="42.79636" lon="0.40444">
        <ele>1534.01</ele>
        <time>2011-10-03T17:51:46Z</time>
      </trkpt>
      <trkpt lat="42.79639" lon="0.40436">
        <ele>1534.052</ele>
        <time>2011-10-03T17:51:47Z</time>
      </trkpt>
      <trkpt lat="42.79642" lon="0.40429">
        <ele>1534.132</ele>
        <time>2011-10-03T17:51:48Z</time>
      </trkpt>
      <trkpt lat="42.79645" lon="0.40421">
        <ele>1534.353</ele>
        <time>2011-10-03T17:51:49Z</time>
      </trkpt>
      <trkpt lat="42.79648" lon="0.40414">
        <ele>1534.646</ele>
        <time>2011-10-03T17:51:50Z</time>
      </trkpt>
      <trkpt lat="42.79652" lon="0.40408">
        <ele>1534.852</ele>
        <time>2011-10-03T17:51:51Z</time>
      </trkpt>
      <trkpt lat="42.79655" lon="0.40403">
        <ele>1534.888</ele>
        <time>2011-10-03T17:51:52Z</time>
      </trkpt>
      <trkpt lat="42.79659" lon="0.40397">
        <ele>1534.81</ele>
        <time>2011-10-03T17:51:53Z</time>
      </trkpt>
      <trkpt lat="42.79663" lon="0.4039">
        <ele>1534.779</ele>
        <time>2011-10-03T17:51:54Z</time>
      </trkpt>
      <trkpt lat="42.79666" lon="0.40384">
        <ele>1534.769</ele>
        <time>2011-10-03T17:51:55Z</time>
      </trkpt>
      <trkpt lat="42.7967" lon="0.40379">
        <ele>1534.821</ele>
        <time>2011-10-03T17:51:56Z</time>
      </trkpt>
      <trkpt lat="42.79675" lon="0.40374">
        <ele>1534.97</ele>
        <time>2011-10-03T17:51:57Z</time>
      </trkpt>
      <trkpt lat="42.79679" lon="0.4037">
        <ele>1535.132</ele>
        <time>2011-10-03T17:51:58Z</time>
      </trkpt>
      <trkpt lat="42.79683" lon="0.40365">
        <ele>1535.114</ele>
        <time>2011-10-03T17:51:59Z</time>
      </trkpt>
      <trkpt lat="42.79687" lon="0.40359">
        <ele>1534.875</ele>
        <time>2011-10-03T17:52:00Z</time>
      </trkpt>
      <trkpt lat="42.79692" lon="0.40353">
        <ele>1534.684</ele>
        <time>2011-10-03T17:52:01Z</time>
      </trkpt>
      <trkpt lat="42.79696" lon="0.40348">
        <ele>1534.671</ele>
        <time>2011-10-03T17:52:02Z</time>
      </trkpt>
      <trkpt lat="42.79701" lon="0.40343">
        <ele>1534.885</ele>
        <time>2011-10-03T17:52:03Z</time>
      </trkpt>
      <trkpt lat="42.79701" lon="0.40343">
        <ele>1535.161</ele>
        <time>2011-10-03T17:52:03Z</time>
      </trkpt>
      <trkpt lat="42.79712" lon="0.40326">
        <ele>1535.436</ele>
        <time>2011-10-03T17:52:06Z</time>
      </trkpt>
      <trkpt lat="42.79712" lon="0.40326">
        <ele>1535.824</ele>
        <time>2011-10-03T17:52:06Z</time>
      </trkpt>
      <trkpt lat="42.79721" lon="0.40316">
        <ele>1536.186</ele>
        <time>2011-10-03T17:52:08Z</time>
      </trkpt>
      <trkpt lat="42.79726" lon="0.40312">
        <ele>1536.481</ele>
        <time>2011-10-03T17:52:09Z</time>
      </trkpt>
      <trkpt lat="42.7973" lon="0.40307">
        <ele>1536.807</ele>
        <time>2011-10-03T17:52:10Z</time>
      </trkpt>
      <trkpt lat="42.79735" lon="0.40301">
        <ele>1537.179</ele>
        <time>2011-10-03T17:52:11Z</time>
      </trkpt>
      <trkpt lat="42.79735" lon="0.40301">
        <ele>1537.594</ele>
        <time>2011-10-03T17:52:11Z</time>
      </trkpt>
      <trkpt lat="42.79743" lon="0.4029">
        <ele>1538.061</ele>
        <time>2011-10-03T17:52:13Z</time>
      </trkpt>
      <trkpt lat="42.79746" lon="0.40285">
        <ele>1538.319</ele>
        <time>2011-10-03T17:52:14Z</time>
      </trkpt>
      <trkpt lat="42.7975" lon="0.40279">
        <ele>1538.399</ele>
        <time>2011-10-03T17:52:15Z</time>
      </trkpt>
      <trkpt lat="42.79754" lon="0.40273">
        <ele>1538.481</ele>
        <time>2011-10-03T17:52:16Z</time>
      </trkpt>
      <trkpt lat="42.79758" lon="0.40266">
        <ele>1538.806</ele>
        <time>2011-10-03T17:52:17Z</time>
      </trkpt>
      <trkpt lat="42.79761" lon="0.40259">
        <ele>1539.321</ele>
        <time>2011-10-03T17:52:18Z</time>
      </trkpt>
      <trkpt lat="42.79764" lon="0.40251">
        <ele>1539.79</ele>
        <time>2011-10-03T17:52:19Z</time>
      </trkpt>
      <trkpt lat="42.79768" lon="0.40244">
        <ele>1539.957</ele>
        <time>2011-10-03T17:52:20Z</time>
      </trkpt>
      <trkpt lat="42.79771" lon="0.40237">
        <ele>1540.12</ele>
        <time>2011-10-03T17:52:21Z</time>
      </trkpt>
      <trkpt lat="42.79775" lon="0.4023">
        <ele>1540.283</ele>
        <time>2011-10-03T17:52:22Z</time>
      </trkpt>
      <trkpt lat="42.79779" lon="0.40224">
        <ele>1540.171</ele>
        <time>2011-10-03T17:52:23Z</time>
      </trkpt>
      <trkpt lat="42.79782" lon="0.40218">
        <ele>1539.742</ele>
        <time>2011-10-03T17:52:24Z</time>
      </trkpt>
      <trkpt lat="42.79787" lon="0.40211">
        <ele>1539.481</ele>
        <time>2011-10-03T17:52:25Z</time>
      </trkpt>
      <trkpt lat="42.79791" lon="0.40205">
        <ele>1539.786</ele>
        <time>2011-10-03T17:52:26Z</time>
      </trkpt>
      <trkpt lat="42.79796" lon="0.402">
        <ele>1540.351</ele>
        <time>2011-10-03T17:52:27Z</time>
      </trkpt>
      <trkpt lat="42.798" lon="0.40196">
        <ele>1541.187</ele>
        <time>2011-10-03T17:52:28Z</time>
      </trkpt>
      <trkpt lat="42.79805" lon="0.40193">
        <ele>1541.425</ele>
        <time>2011-10-03T17:52:29Z</time>
      </trkpt>
      <trkpt lat="42.7981" lon="0.40191">
        <ele>1540.972</ele>
        <time>2011-10-03T17:52:30Z</time>
      </trkpt>
      <trkpt lat="42.79815" lon="0.40187">
        <ele>1540.413</ele>
        <time>2011-10-03T17:52:31Z</time>
      </trkpt>
      <trkpt lat="42.79822" lon="0.40182">
        <ele>1540.698</ele>
        <time>2011-10-03T17:52:32Z</time>
      </trkpt>
      <trkpt lat="42.79828" lon="0.40177">
        <ele>1541.818</ele>
        <time>2011-10-03T17:52:33Z</time>
      </trkpt>
      <trkpt lat="42.79834" lon="0.40173">
        <ele>1543.064</ele>
        <time>2011-10-03T17:52:34Z</time>
      </trkpt>
      <trkpt lat="42.79845" lon="0.40169">
        <ele>1543.915</ele>
        <time>2011-10-03T17:52:36Z</time>
      </trkpt>
      <trkpt lat="42.79845" lon="0.40169">
        <ele>1543.796</ele>
        <time>2011-10-03T17:52:36Z</time>
      </trkpt>
      <trkpt lat="42.79855" lon="0.40173">
        <ele>1543.11</ele>
        <time>2011-10-03T17:52:38Z</time>
      </trkpt>
      <trkpt lat="42.79861" lon="0.40181">
        <ele>1542.168</ele>
        <time>2011-10-03T17:52:39Z</time>
      </trkpt>
      <trkpt lat="42.79865" lon="0.4019">
        <ele>1541.593</ele>
        <time>2011-10-03T17:52:40Z</time>
      </trkpt>
      <trkpt lat="42.79865" lon="0.4019">
        <ele>1541.705</ele>
        <time>2011-10-03T17:52:40Z</time>
      </trkpt>
      <trkpt lat="42.79865" lon="0.4019">
        <ele>1541.823</ele>
        <time>2011-10-03T17:52:40Z</time>
      </trkpt>
      <trkpt lat="42.7988" lon="0.4021">
        <ele>1541.545</ele>
        <time>2011-10-03T17:52:43Z</time>
      </trkpt>
      <trkpt lat="42.79885" lon="0.40215">
        <ele>1541.448</ele>
        <time>2011-10-03T17:52:44Z</time>
      </trkpt>
      <trkpt lat="42.79891" lon="0.40217">
        <ele>1542.104</ele>
        <time>2011-10-03T17:52:45Z</time>
      </trkpt>
      <trkpt lat="42.79891" lon="0.40217">
        <ele>1543.134</ele>
        <time>2011-10-03T17:52:45Z</time>
      </trkpt>
      <trkpt lat="42.79902" lon="0.4022">
        <ele>1543.819</ele>
        <time>2011-10-03T17:52:47Z</time>
      </trkpt>
      <trkpt lat="42.79908" lon="0.40219">
        <ele>1543.64</ele>
        <time>2011-10-03T17:52:48Z</time>
      </trkpt>
      <trkpt lat="42.79913" lon="0.40217">
        <ele>1543.077</ele>
        <time>2011-10-03T17:52:49Z</time>
      </trkpt>
      <trkpt lat="42.79918" lon="0.40215">
        <ele>1542.848</ele>
        <time>2011-10-03T17:52:50Z</time>
      </trkpt>
      <trkpt lat="42.79923" lon="0.40211">
        <ele>1543.05</ele>
        <time>2011-10-03T17:52:51Z</time>
      </trkpt>
      <trkpt lat="42.79929" lon="0.40207">
        <ele>1543.403</ele>
        <time>2011-10-03T17:52:52Z</time>
      </trkpt>
      <trkpt lat="42.79933" lon="0.40201">
        <ele>1543.528</ele>
        <time>2011-10-03T17:52:53Z</time>
      </trkpt>
      <trkpt lat="42.79937" lon="0.40194">
        <ele>1543.427</ele>
        <time>2011-10-03T17:52:54Z</time>
      </trkpt>
      <trkpt lat="42.79941" lon="0.40187">
        <ele>1543.405</ele>
        <time>2011-10-03T17:52:55Z</time>
      </trkpt>
      <trkpt lat="42.79944" lon="0.40179">
        <ele>1543.578</ele>
        <time>2011-10-03T17:52:56Z</time>
      </trkpt>
      <trkpt lat="42.79947" lon="0.40172">
        <ele>1543.854</ele>
        <time>2011-10-03T17:52:57Z</time>
      </trkpt>
      <trkpt lat="42.7995" lon="0.40164">
        <ele>1543.99</ele>
        <time>2011-10-03T17:52:58Z</time>
      </trkpt>
      <trkpt lat="42.79952" lon="0.40155">
        <ele>1543.956</ele>
        <time>2011-10-03T17:52:59Z</time>
      </trkpt>
      <trkpt lat="42.79954" lon="0.40147">
        <ele>1543.843</ele>
        <time>2011-10-03T17:53:00Z</time>
      </trkpt>
      <trkpt lat="42.79957" lon="0.40139">
        <ele>1543.822</ele>
        <time>2011-10-03T17:53:01Z</time>
      </trkpt>
      <trkpt lat="42.79959" lon="0.40131">
        <ele>1543.757</ele>
        <time>2011-10-03T17:53:02Z</time>
      </trkpt>
      <trkpt lat="42.79959" lon="0.40131">
        <ele>1543.646</ele>
        <time>2011-10-03T17:53:02Z</time>
      </trkpt>
      <trkpt lat="42.79961" lon="0.40112">
        <ele>1543.493</ele>
        <time>2011-10-03T17:53:04Z</time>
      </trkpt>
      <trkpt lat="42.79963" lon="0.40103">
        <ele>1543.501</ele>
        <time>2011-10-03T17:53:05Z</time>
      </trkpt>
      <trkpt lat="42.79965" lon="0.40094">
        <ele>1543.746</ele>
        <time>2011-10-03T17:53:06Z</time>
      </trkpt>
      <trkpt lat="42.79968" lon="0.40086">
        <ele>1544.031</ele>
        <time>2011-10-03T17:53:07Z</time>
      </trkpt>
      <trkpt lat="42.79971" lon="0.40078">
        <ele>1544.288</ele>
        <time>2011-10-03T17:53:08Z</time>
      </trkpt>
      <trkpt lat="42.79971" lon="0.40078">
        <ele>1544.464</ele>
        <time>2011-10-03T17:53:08Z</time>
      </trkpt>
      <trkpt lat="42.79975" lon="0.40061">
        <ele>1544.785</ele>
        <time>2011-10-03T17:53:10Z</time>
      </trkpt>
      <trkpt lat="42.79978" lon="0.40052">
        <ele>1544.889</ele>
        <time>2011-10-03T17:53:11Z</time>
      </trkpt>
      <trkpt lat="42.79981" lon="0.40044">
        <ele>1544.856</ele>
        <time>2011-10-03T17:53:12Z</time>
      </trkpt>
      <trkpt lat="42.79984" lon="0.40035">
        <ele>1544.859</ele>
        <time>2011-10-03T17:53:13Z</time>
      </trkpt>
      <trkpt lat="42.79986" lon="0.40025">
        <ele>1545.034</ele>
        <time>2011-10-03T17:53:14Z</time>
      </trkpt>
      <trkpt lat="42.79989" lon="0.40015">
        <ele>1545.342</ele>
        <time>2011-10-03T17:53:15Z</time>
      </trkpt>
      <trkpt lat="42.79991" lon="0.40006">
        <ele>1545.526</ele>
        <time>2011-10-03T17:53:16Z</time>
      </trkpt>
      <trkpt lat="42.79999" lon="0.39987">
        <ele>1545.615</ele>
        <time>2011-10-03T17:53:18Z</time>
      </trkpt>
      <trkpt lat="42.80004" lon="0.39978">
        <ele>1546.04</ele>
        <time>2011-10-03T17:53:19Z</time>
      </trkpt>
      <trkpt lat="42.80008" lon="0.39969">
        <ele>1547.093</ele>
        <time>2011-10-03T17:53:20Z</time>
      </trkpt>
      <trkpt lat="42.80012" lon="0.39962">
        <ele>1548.48</ele>
        <time>2011-10-03T17:53:21Z</time>
      </trkpt>
      <trkpt lat="42.80017" lon="0.39955">
        <ele>1550.152</ele>
        <time>2011-10-03T17:53:22Z</time>
      </trkpt>
      <trkpt lat="42.80023" lon="0.39948">
        <ele>1551.113</ele>
        <time>2011-10-03T17:53:23Z</time>
      </trkpt>
      <trkpt lat="42.80029" lon="0.3994">
        <ele>1551.759</ele>
        <time>2011-10-03T17:53:24Z</time>
      </trkpt>
      <trkpt lat="42.80035" lon="0.39932">
        <ele>1551.829</ele>
        <time>2011-10-03T17:53:25Z</time>
      </trkpt>
      <trkpt lat="42.8004" lon="0.39923">
        <ele>1551.746</ele>
        <time>2011-10-03T17:53:26Z</time>
      </trkpt>
      <trkpt lat="42.80045" lon="0.39916">
        <ele>1551.634</ele>
        <time>2011-10-03T17:53:27Z</time>
      </trkpt>
      <trkpt lat="42.80051" lon="0.39909">
        <ele>1551.646</ele>
        <time>2011-10-03T17:53:28Z</time>
      </trkpt>
      <trkpt lat="42.80056" lon="0.39904">
        <ele>1551.825</ele>
        <time>2011-10-03T17:53:29Z</time>
      </trkpt>
      <trkpt lat="42.80061" lon="0.39899">
        <ele>1552.139</ele>
        <time>2011-10-03T17:53:30Z</time>
      </trkpt>
      <trkpt lat="42.80066" lon="0.39893">
        <ele>1552.329</ele>
        <time>2011-10-03T17:53:31Z</time>
      </trkpt>
      <trkpt lat="42.80071" lon="0.39886">
        <ele>1552.616</ele>
        <time>2011-10-03T17:53:32Z</time>
      </trkpt>
      <trkpt lat="42.80076" lon="0.3988">
        <ele>1553.067</ele>
        <time>2011-10-03T17:53:33Z</time>
      </trkpt>
      <trkpt lat="42.80082" lon="0.39875">
        <ele>1553.444</ele>
        <time>2011-10-03T17:53:34Z</time>
      </trkpt>
      <trkpt lat="42.80088" lon="0.39871">
        <ele>1553.602</ele>
        <time>2011-10-03T17:53:35Z</time>
      </trkpt>
      <trkpt lat="42.80094" lon="0.39866">
        <ele>1553.385</ele>
        <time>2011-10-03T17:53:36Z</time>
      </trkpt>
      <trkpt lat="42.80098" lon="0.39858">
        <ele>1553.062</ele>
        <time>2011-10-03T17:53:37Z</time>
      </trkpt>
      <trkpt lat="42.80101" lon="0.39848">
        <ele>1553.313</ele>
        <time>2011-10-03T17:53:38Z</time>
      </trkpt>
      <trkpt lat="42.80101" lon="0.39838">
        <ele>1553.907</ele>
        <time>2011-10-03T17:53:39Z</time>
      </trkpt>
      <trkpt lat="42.801" lon="0.39828">
        <ele>1554.446</ele>
        <time>2011-10-03T17:53:40Z</time>
      </trkpt>
      <trkpt lat="42.80098" lon="0.3982">
        <ele>1554.427</ele>
        <time>2011-10-03T17:53:41Z</time>
      </trkpt>
      <trkpt lat="42.80093" lon="0.39811">
        <ele>1553.706</ele>
        <time>2011-10-03T17:53:42Z</time>
      </trkpt>
      <trkpt lat="42.80086" lon="0.39804">
        <ele>1552.91</ele>
        <time>2011-10-03T17:53:43Z</time>
      </trkpt>
      <trkpt lat="42.80077" lon="0.39801">
        <ele>1552.759</ele>
        <time>2011-10-03T17:53:44Z</time>
      </trkpt>
      <trkpt lat="42.80067" lon="0.398">
        <ele>1553.539</ele>
        <time>2011-10-03T17:53:45Z</time>
      </trkpt>
      <trkpt lat="42.80057" lon="0.39801">
        <ele>1554.669</ele>
        <time>2011-10-03T17:53:46Z</time>
      </trkpt>
      <trkpt lat="42.80048" lon="0.39801">
        <ele>1555.534</ele>
        <time>2011-10-03T17:53:47Z</time>
      </trkpt>
      <trkpt lat="42.8004" lon="0.39801">
        <ele>1556.026</ele>
        <time>2011-10-03T17:53:48Z</time>
      </trkpt>
      <trkpt lat="42.80032" lon="0.39803">
        <ele>1556.345</ele>
        <time>2011-10-03T17:53:49Z</time>
      </trkpt>
      <trkpt lat="42.80024" lon="0.39805">
        <ele>1556.871</ele>
        <time>2011-10-03T17:53:50Z</time>
      </trkpt>
      <trkpt lat="42.80024" lon="0.39805">
        <ele>1557.485</ele>
        <time>2011-10-03T17:53:50Z</time>
      </trkpt>
      <trkpt lat="42.80007" lon="0.39812">
        <ele>1558.277</ele>
        <time>2011-10-03T17:53:52Z</time>
      </trkpt>
      <trkpt lat="42.79989" lon="0.39819">
        <ele>1559.117</ele>
        <time>2011-10-03T17:53:54Z</time>
      </trkpt>
      <trkpt lat="42.79981" lon="0.39825">
        <ele>1560.233</ele>
        <time>2011-10-03T17:53:55Z</time>
      </trkpt>
      <trkpt lat="42.79981" lon="0.39825">
        <ele>1561.112</ele>
        <time>2011-10-03T17:53:55Z</time>
      </trkpt>
      <trkpt lat="42.79981" lon="0.39825">
        <ele>1561.558</ele>
        <time>2011-10-03T17:53:55Z</time>
      </trkpt>
      <trkpt lat="42.79964" lon="0.39854">
        <ele>1561.881</ele>
        <time>2011-10-03T17:53:58Z</time>
      </trkpt>
      <trkpt lat="42.79964" lon="0.39854">
        <ele>1562.592</ele>
        <time>2011-10-03T17:53:58Z</time>
      </trkpt>
      <trkpt lat="42.79969" lon="0.3988">
        <ele>1563.347</ele>
        <time>2011-10-03T17:54:00Z</time>
      </trkpt>
      <trkpt lat="42.79973" lon="0.39892">
        <ele>1564.116</ele>
        <time>2011-10-03T17:54:01Z</time>
      </trkpt>
      <trkpt lat="42.79979" lon="0.39899">
        <ele>1564.58</ele>
        <time>2011-10-03T17:54:02Z</time>
      </trkpt>
      <trkpt lat="42.79986" lon="0.39903">
        <ele>1564.745</ele>
        <time>2011-10-03T17:54:03Z</time>
      </trkpt>
      <trkpt lat="42.79993" lon="0.39905">
        <ele>1565.06</ele>
        <time>2011-10-03T17:54:04Z</time>
      </trkpt>
      <trkpt lat="42.79999" lon="0.39904">
        <ele>1565.82</ele>
        <time>2011-10-03T17:54:05Z</time>
      </trkpt>
      <trkpt lat="42.80004" lon="0.39899">
        <ele>1567.089</ele>
        <time>2011-10-03T17:54:06Z</time>
      </trkpt>
      <trkpt lat="42.80008" lon="0.39891">
        <ele>1568.642</ele>
        <time>2011-10-03T17:54:07Z</time>
      </trkpt>
      <trkpt lat="42.8001" lon="0.39883">
        <ele>1569.248</ele>
        <time>2011-10-03T17:54:08Z</time>
      </trkpt>
      <trkpt lat="42.80012" lon="0.39873">
        <ele>1569.072</ele>
        <time>2011-10-03T17:54:09Z</time>
      </trkpt>
      <trkpt lat="42.80004" lon="0.39863">
        <ele>1568.804</ele>
        <time>2011-10-03T17:54:10Z</time>
      </trkpt>
      <trkpt lat="42.79996" lon="0.39856">
        <ele>1568.696</ele>
        <time>2011-10-03T17:54:11Z</time>
      </trkpt>
      <trkpt lat="42.79987" lon="0.39854">
        <ele>1568.722</ele>
        <time>2011-10-03T17:54:12Z</time>
      </trkpt>
      <trkpt lat="42.79977" lon="0.39858">
        <ele>1568.776</ele>
        <time>2011-10-03T17:54:13Z</time>
      </trkpt>
      <trkpt lat="42.79969" lon="0.39866">
        <ele>1569.034</ele>
        <time>2011-10-03T17:54:14Z</time>
      </trkpt>
      <trkpt lat="42.79963" lon="0.39878">
        <ele>1569.622</ele>
        <time>2011-10-03T17:54:15Z</time>
      </trkpt>
      <trkpt lat="42.79963" lon="0.39878">
        <ele>1570.336</ele>
        <time>2011-10-03T17:54:15Z</time>
      </trkpt>
      <trkpt lat="42.79965" lon="0.39911">
        <ele>1570.982</ele>
        <time>2011-10-03T17:54:18Z</time>
      </trkpt>
      <trkpt lat="42.79969" lon="0.3992">
        <ele>1571.221</ele>
        <time>2011-10-03T17:54:19Z</time>
      </trkpt>
      <trkpt lat="42.79975" lon="0.39927">
        <ele>1571.307</ele>
        <time>2011-10-03T17:54:20Z</time>
      </trkpt>
      <trkpt lat="42.79982" lon="0.3993">
        <ele>1571.557</ele>
        <time>2011-10-03T17:54:21Z</time>
      </trkpt>
      <trkpt lat="42.79982" lon="0.3993">
        <ele>1572.134</ele>
        <time>2011-10-03T17:54:21Z</time>
      </trkpt>
      <trkpt lat="42.79994" lon="0.39924">
        <ele>1573.424</ele>
        <time>2011-10-03T17:54:23Z</time>
      </trkpt>
      <trkpt lat="42.79998" lon="0.39917">
        <ele>1575.062</ele>
        <time>2011-10-03T17:54:24Z</time>
      </trkpt>
      <trkpt lat="42.8" lon="0.39909">
        <ele>1576.394</ele>
        <time>2011-10-03T17:54:25Z</time>
      </trkpt>
      <trkpt lat="42.80003" lon="0.39899">
        <ele>1576.922</ele>
        <time>2011-10-03T17:54:26Z</time>
      </trkpt>
      <trkpt lat="42.80003" lon="0.39889">
        <ele>1577.54</ele>
        <time>2011-10-03T17:54:27Z</time>
      </trkpt>
      <trkpt lat="42.79997" lon="0.39879">
        <ele>1578.108</ele>
        <time>2011-10-03T17:54:28Z</time>
      </trkpt>
      <trkpt lat="42.79988" lon="0.39873">
        <ele>1578.653</ele>
        <time>2011-10-03T17:54:29Z</time>
      </trkpt>
      <trkpt lat="42.79979" lon="0.3987">
        <ele>1579.126</ele>
        <time>2011-10-03T17:54:30Z</time>
      </trkpt>
      <trkpt lat="42.79968" lon="0.39873">
        <ele>1579.502</ele>
        <time>2011-10-03T17:54:31Z</time>
      </trkpt>
      <trkpt lat="42.79959" lon="0.39878">
        <ele>1580.088</ele>
        <time>2011-10-03T17:54:32Z</time>
      </trkpt>
      <trkpt lat="42.79951" lon="0.39886">
        <ele>1581.043</ele>
        <time>2011-10-03T17:54:33Z</time>
      </trkpt>
      <trkpt lat="42.79944" lon="0.39895">
        <ele>1581.679</ele>
        <time>2011-10-03T17:54:34Z</time>
      </trkpt>
      <trkpt lat="42.79938" lon="0.39905">
        <ele>1582.016</ele>
        <time>2011-10-03T17:54:35Z</time>
      </trkpt>
      <trkpt lat="42.79934" lon="0.39916">
        <ele>1581.875</ele>
        <time>2011-10-03T17:54:36Z</time>
      </trkpt>
      <trkpt lat="42.79931" lon="0.39928">
        <ele>1581.495</ele>
        <time>2011-10-03T17:54:37Z</time>
      </trkpt>
      <trkpt lat="42.79934" lon="0.39941">
        <ele>1581.513</ele>
        <time>2011-10-03T17:54:38Z</time>
      </trkpt>
      <trkpt lat="42.79939" lon="0.3995">
        <ele>1581.849</ele>
        <time>2011-10-03T17:54:39Z</time>
      </trkpt>
      <trkpt lat="42.79946" lon="0.39956">
        <ele>1582.632</ele>
        <time>2011-10-03T17:54:40Z</time>
      </trkpt>
      <trkpt lat="42.79954" lon="0.39957">
        <ele>1583.502</ele>
        <time>2011-10-03T17:54:41Z</time>
      </trkpt>
      <trkpt lat="42.79961" lon="0.39956">
        <ele>1584.284</ele>
        <time>2011-10-03T17:54:42Z</time>
      </trkpt>
      <trkpt lat="42.79967" lon="0.39951">
        <ele>1585.157</ele>
        <time>2011-10-03T17:54:43Z</time>
      </trkpt>
      <trkpt lat="42.79972" lon="0.39945">
        <ele>1586.318</ele>
        <time>2011-10-03T17:54:44Z</time>
      </trkpt>
      <trkpt lat="42.79974" lon="0.39937">
        <ele>1587.738</ele>
        <time>2011-10-03T17:54:45Z</time>
      </trkpt>
      <trkpt lat="42.79973" lon="0.39928">
        <ele>1589.198</ele>
        <time>2011-10-03T17:54:46Z</time>
      </trkpt>
      <trkpt lat="42.7997" lon="0.39919">
        <ele>1590.672</ele>
        <time>2011-10-03T17:54:47Z</time>
      </trkpt>
      <trkpt lat="42.79963" lon="0.39911">
        <ele>1591.816</ele>
        <time>2011-10-03T17:54:48Z</time>
      </trkpt>
      <trkpt lat="42.79955" lon="0.39905">
        <ele>1592.553</ele>
        <time>2011-10-03T17:54:49Z</time>
      </trkpt>
      <trkpt lat="42.79946" lon="0.39903">
        <ele>1592.855</ele>
        <time>2011-10-03T17:54:50Z</time>
      </trkpt>
      <trkpt lat="42.79935" lon="0.39905">
        <ele>1593.01</ele>
        <time>2011-10-03T17:54:51Z</time>
      </trkpt>
      <trkpt lat="42.79917" lon="0.39916">
        <ele>1593.279</ele>
        <time>2011-10-03T17:54:53Z</time>
      </trkpt>
      <trkpt lat="42.7991" lon="0.39927">
        <ele>1593.57</ele>
        <time>2011-10-03T17:54:54Z</time>
      </trkpt>
      <trkpt lat="42.79905" lon="0.39938">
        <ele>1593.805</ele>
        <time>2011-10-03T17:54:55Z</time>
      </trkpt>
      <trkpt lat="42.79901" lon="0.39951">
        <ele>1593.998</ele>
        <time>2011-10-03T17:54:56Z</time>
      </trkpt>
      <trkpt lat="42.79901" lon="0.39951">
        <ele>1594.034</ele>
        <time>2011-10-03T17:54:56Z</time>
      </trkpt>
      <trkpt lat="42.79909" lon="0.39972">
        <ele>1593.86</ele>
        <time>2011-10-03T17:54:58Z</time>
      </trkpt>
      <trkpt lat="42.79917" lon="0.39978">
        <ele>1593.446</ele>
        <time>2011-10-03T17:54:59Z</time>
      </trkpt>
      <trkpt lat="42.79925" lon="0.3998">
        <ele>1593.101</ele>
        <time>2011-10-03T17:55:00Z</time>
      </trkpt>
      <trkpt lat="42.79934" lon="0.39977">
        <ele>1593.191</ele>
        <time>2011-10-03T17:55:01Z</time>
      </trkpt>
      <trkpt lat="42.7994" lon="0.39972">
        <ele>1593.896</ele>
        <time>2011-10-03T17:55:02Z</time>
      </trkpt>
      <trkpt lat="42.79943" lon="0.39965">
        <ele>1595.046</ele>
        <time>2011-10-03T17:55:03Z</time>
      </trkpt>
      <trkpt lat="42.79943" lon="0.39957">
        <ele>1596.52</ele>
        <time>2011-10-03T17:55:04Z</time>
      </trkpt>
      <trkpt lat="42.79942" lon="0.39948">
        <ele>1598.144</ele>
        <time>2011-10-03T17:55:05Z</time>
      </trkpt>
      <trkpt lat="42.79939" lon="0.3994">
        <ele>1599.486</ele>
        <time>2011-10-03T17:55:06Z</time>
      </trkpt>
      <trkpt lat="42.79935" lon="0.39932">
        <ele>1600.705</ele>
        <time>2011-10-03T17:55:07Z</time>
      </trkpt>
      <trkpt lat="42.79928" lon="0.39926">
        <ele>1601.91</ele>
        <time>2011-10-03T17:55:08Z</time>
      </trkpt>
      <trkpt lat="42.7992" lon="0.39921">
        <ele>1602.727</ele>
        <time>2011-10-03T17:55:09Z</time>
      </trkpt>
      <trkpt lat="42.79911" lon="0.3992">
        <ele>1603.217</ele>
        <time>2011-10-03T17:55:10Z</time>
      </trkpt>
      <trkpt lat="42.79901" lon="0.39921">
        <ele>1603.617</ele>
        <time>2011-10-03T17:55:11Z</time>
      </trkpt>
      <trkpt lat="42.79892" lon="0.39925">
        <ele>1603.781</ele>
        <time>2011-10-03T17:55:12Z</time>
      </trkpt>
      <trkpt lat="42.79884" lon="0.39934">
        <ele>1603.437</ele>
        <time>2011-10-03T17:55:13Z</time>
      </trkpt>
      <trkpt lat="42.79877" lon="0.39944">
        <ele>1602.769</ele>
        <time>2011-10-03T17:55:14Z</time>
      </trkpt>
      <trkpt lat="42.79872" lon="0.39955">
        <ele>1601.761</ele>
        <time>2011-10-03T17:55:15Z</time>
      </trkpt>
      <trkpt lat="42.79872" lon="0.39955">
        <ele>1600.84</ele>
        <time>2011-10-03T17:55:15Z</time>
      </trkpt>
      <trkpt lat="42.7987" lon="0.39978">
        <ele>1599.817</ele>
        <time>2011-10-03T17:55:17Z</time>
      </trkpt>
      <trkpt lat="42.79878" lon="0.39996">
        <ele>1599.121</ele>
        <time>2011-10-03T17:55:19Z</time>
      </trkpt>
      <trkpt lat="42.79884" lon="0.40002">
        <ele>1599.141</ele>
        <time>2011-10-03T17:55:20Z</time>
      </trkpt>
      <trkpt lat="42.7989" lon="0.40009">
        <ele>1599.776</ele>
        <time>2011-10-03T17:55:21Z</time>
      </trkpt>
      <trkpt lat="42.7989" lon="0.40009">
        <ele>1601.505</ele>
        <time>2011-10-03T17:55:21Z</time>
      </trkpt>
      <trkpt lat="42.79898" lon="0.40013">
        <ele>1603.315</ele>
        <time>2011-10-03T17:55:22Z</time>
      </trkpt>
      <trkpt lat="42.79914" lon="0.40012">
        <ele>1604.985</ele>
        <time>2011-10-03T17:55:24Z</time>
      </trkpt>
      <trkpt lat="42.79921" lon="0.40007">
        <ele>1606.052</ele>
        <time>2011-10-03T17:55:25Z</time>
      </trkpt>
      <trkpt lat="42.79927" lon="0.40002">
        <ele>1607.03</ele>
        <time>2011-10-03T17:55:26Z</time>
      </trkpt>
      <trkpt lat="42.79932" lon="0.39995">
        <ele>1608.249</ele>
        <time>2011-10-03T17:55:27Z</time>
      </trkpt>
      <trkpt lat="42.79935" lon="0.39987">
        <ele>1609.904</ele>
        <time>2011-10-03T17:55:28Z</time>
      </trkpt>
      <trkpt lat="42.79936" lon="0.3998">
        <ele>1611.379</ele>
        <time>2011-10-03T17:55:29Z</time>
      </trkpt>
      <trkpt lat="42.79936" lon="0.39972">
        <ele>1612.646</ele>
        <time>2011-10-03T17:55:30Z</time>
      </trkpt>
      <trkpt lat="42.79934" lon="0.39964">
        <ele>1613.904</ele>
        <time>2011-10-03T17:55:31Z</time>
      </trkpt>
      <trkpt lat="42.7993" lon="0.39956">
        <ele>1615.251</ele>
        <time>2011-10-03T17:55:32Z</time>
      </trkpt>
      <trkpt lat="42.79924" lon="0.3995">
        <ele>1616.658</ele>
        <time>2011-10-03T17:55:33Z</time>
      </trkpt>
      <trkpt lat="42.79915" lon="0.39945">
        <ele>1617.631</ele>
        <time>2011-10-03T17:55:34Z</time>
      </trkpt>
      <trkpt lat="42.79906" lon="0.39945">
        <ele>1618.159</ele>
        <time>2011-10-03T17:55:35Z</time>
      </trkpt>
      <trkpt lat="42.79896" lon="0.3995">
        <ele>1618.545</ele>
        <time>2011-10-03T17:55:36Z</time>
      </trkpt>
      <trkpt lat="42.79889" lon="0.39958">
        <ele>1619.427</ele>
        <time>2011-10-03T17:55:37Z</time>
      </trkpt>
      <trkpt lat="42.79884" lon="0.39968">
        <ele>1620.938</ele>
        <time>2011-10-03T17:55:38Z</time>
      </trkpt>
      <trkpt lat="42.79882" lon="0.39979">
        <ele>1622.475</ele>
        <time>2011-10-03T17:55:39Z</time>
      </trkpt>
      <trkpt lat="42.79881" lon="0.3999">
        <ele>1623.878</ele>
        <time>2011-10-03T17:55:40Z</time>
      </trkpt>
      <trkpt lat="42.79883" lon="0.4">
        <ele>1624.559</ele>
        <time>2011-10-03T17:55:41Z</time>
      </trkpt>
      <trkpt lat="42.79887" lon="0.40009">
        <ele>1624.756</ele>
        <time>2011-10-03T17:55:42Z</time>
      </trkpt>
      <trkpt lat="42.79894" lon="0.40016">
        <ele>1624.761</ele>
        <time>2011-10-03T17:55:43Z</time>
      </trkpt>
      <trkpt lat="42.79901" lon="0.4002">
        <ele>1625.119</ele>
        <time>2011-10-03T17:55:44Z</time>
      </trkpt>
      <trkpt lat="42.79908" lon="0.40019">
        <ele>1626.185</ele>
        <time>2011-10-03T17:55:45Z</time>
      </trkpt>
      <trkpt lat="42.79916" lon="0.40017">
        <ele>1627.795</ele>
        <time>2011-10-03T17:55:46Z</time>
      </trkpt>
      <trkpt lat="42.79923" lon="0.40014">
        <ele>1628.789</ele>
        <time>2011-10-03T17:55:47Z</time>
      </trkpt>
      <trkpt lat="42.79928" lon="0.40011">
        <ele>1629.444</ele>
        <time>2011-10-03T17:55:48Z</time>
      </trkpt>
      <trkpt lat="42.79934" lon="0.40007">
        <ele>1628.874</ele>
        <time>2011-10-03T17:55:49Z</time>
      </trkpt>
      <trkpt lat="42.79937" lon="0.39998">
        <ele>1628.004</ele>
        <time>2011-10-03T17:55:50Z</time>
      </trkpt>
      <trkpt lat="42.79941" lon="0.39985">
        <ele>1627.611</ele>
        <time>2011-10-03T17:55:51Z</time>
      </trkpt>
      <trkpt lat="42.79941" lon="0.39974">
        <ele>1627.787</ele>
        <time>2011-10-03T17:55:52Z</time>
      </trkpt>
      <trkpt lat="42.79938" lon="0.39963">
        <ele>1628.254</ele>
        <time>2011-10-03T17:55:53Z</time>
      </trkpt>
      <trkpt lat="42.79934" lon="0.39952">
        <ele>1629.026</ele>
        <time>2011-10-03T17:55:54Z</time>
      </trkpt>
      <trkpt lat="42.79925" lon="0.39931">
        <ele>1630.764</ele>
        <time>2011-10-03T17:55:56Z</time>
      </trkpt>
      <trkpt lat="42.79925" lon="0.39931">
        <ele>1632.445</ele>
        <time>2011-10-03T17:55:56Z</time>
      </trkpt>
      <trkpt lat="42.79916" lon="0.39925">
        <ele>1633.617</ele>
        <time>2011-10-03T17:55:57Z</time>
      </trkpt>
      <trkpt lat="42.79895" lon="0.39928">
        <ele>1634.704</ele>
        <time>2011-10-03T17:55:59Z</time>
      </trkpt>
      <trkpt lat="42.79885" lon="0.39931">
        <ele>1636.316</ele>
        <time>2011-10-03T17:56:00Z</time>
      </trkpt>
      <trkpt lat="42.79875" lon="0.39936">
        <ele>1637.768</ele>
        <time>2011-10-03T17:56:01Z</time>
      </trkpt>
      <trkpt lat="42.79867" lon="0.39941">
        <ele>1638.415</ele>
        <time>2011-10-03T17:56:02Z</time>
      </trkpt>
      <trkpt lat="42.7986" lon="0.39947">
        <ele>1638.119</ele>
        <time>2011-10-03T17:56:03Z</time>
      </trkpt>
      <trkpt lat="42.79855" lon="0.3996">
        <ele>1637.479</ele>
        <time>2011-10-03T17:56:04Z</time>
      </trkpt>
      <trkpt lat="42.79853" lon="0.39972">
        <ele>1636.921</ele>
        <time>2011-10-03T17:56:05Z</time>
      </trkpt>
      <trkpt lat="42.79854" lon="0.39983">
        <ele>1636.643</ele>
        <time>2011-10-03T17:56:06Z</time>
      </trkpt>
      <trkpt lat="42.79858" lon="0.39991">
        <ele>1636.902</ele>
        <time>2011-10-03T17:56:07Z</time>
      </trkpt>
      <trkpt lat="42.79864" lon="0.39997">
        <ele>1637.694</ele>
        <time>2011-10-03T17:56:08Z</time>
      </trkpt>
      <trkpt lat="42.79864" lon="0.39997">
        <ele>1638.946</ele>
        <time>2011-10-03T17:56:08Z</time>
      </trkpt>
      <trkpt lat="42.79876" lon="0.4">
        <ele>1640.202</ele>
        <time>2011-10-03T17:56:10Z</time>
      </trkpt>
      <trkpt lat="42.79882" lon="0.39998">
        <ele>1641.121</ele>
        <time>2011-10-03T17:56:11Z</time>
      </trkpt>
      <trkpt lat="42.79887" lon="0.39994">
        <ele>1641.494</ele>
        <time>2011-10-03T17:56:12Z</time>
      </trkpt>
      <trkpt lat="42.79891" lon="0.39988">
        <ele>1641.426</ele>
        <time>2011-10-03T17:56:13Z</time>
      </trkpt>
      <trkpt lat="42.79891" lon="0.39988">
        <ele>1641.365</ele>
        <time>2011-10-03T17:56:13Z</time>
      </trkpt>
      <trkpt lat="42.79902" lon="0.39978">
        <ele>1641.58</ele>
        <time>2011-10-03T17:56:15Z</time>
      </trkpt>
      <trkpt lat="42.79907" lon="0.39972">
        <ele>1642.256</ele>
        <time>2011-10-03T17:56:16Z</time>
      </trkpt>
      <trkpt lat="42.79912" lon="0.39966">
        <ele>1643.209</ele>
        <time>2011-10-03T17:56:17Z</time>
      </trkpt>
      <trkpt lat="42.79916" lon="0.39958">
        <ele>1644.105</ele>
        <time>2011-10-03T17:56:18Z</time>
      </trkpt>
      <trkpt lat="42.79918" lon="0.39949">
        <ele>1644.991</ele>
        <time>2011-10-03T17:56:19Z</time>
      </trkpt>
      <trkpt lat="42.79918" lon="0.3994">
        <ele>1645.883</ele>
        <time>2011-10-03T17:56:20Z</time>
      </trkpt>
      <trkpt lat="42.79916" lon="0.3993">
        <ele>1646.642</ele>
        <time>2011-10-03T17:56:21Z</time>
      </trkpt>
      <trkpt lat="42.7991" lon="0.39921">
        <ele>1647.148</ele>
        <time>2011-10-03T17:56:22Z</time>
      </trkpt>
      <trkpt lat="42.79904" lon="0.39913">
        <ele>1647.318</ele>
        <time>2011-10-03T17:56:23Z</time>
      </trkpt>
      <trkpt lat="42.79896" lon="0.39908">
        <ele>1647.624</ele>
        <time>2011-10-03T17:56:24Z</time>
      </trkpt>
      <trkpt lat="42.79885" lon="0.39906">
        <ele>1648.002</ele>
        <time>2011-10-03T17:56:25Z</time>
      </trkpt>
      <trkpt lat="42.79875" lon="0.39908">
        <ele>1648.395</ele>
        <time>2011-10-03T17:56:26Z</time>
      </trkpt>
      <trkpt lat="42.79865" lon="0.39914">
        <ele>1648.808</ele>
        <time>2011-10-03T17:56:27Z</time>
      </trkpt>
      <trkpt lat="42.7985" lon="0.39935">
        <ele>1649.111</ele>
        <time>2011-10-03T17:56:29Z</time>
      </trkpt>
      <trkpt lat="42.79846" lon="0.39947">
        <ele>1649.443</ele>
        <time>2011-10-03T17:56:30Z</time>
      </trkpt>
      <trkpt lat="42.79843" lon="0.39958">
        <ele>1649.762</ele>
        <time>2011-10-03T17:56:31Z</time>
      </trkpt>
      <trkpt lat="42.79843" lon="0.39958">
        <ele>1650.186</ele>
        <time>2011-10-03T17:56:31Z</time>
      </trkpt>
      <trkpt lat="42.79852" lon="0.39978">
        <ele>1650.829</ele>
        <time>2011-10-03T17:56:33Z</time>
      </trkpt>
      <trkpt lat="42.79857" lon="0.39984">
        <ele>1651.651</ele>
        <time>2011-10-03T17:56:34Z</time>
      </trkpt>
      <trkpt lat="42.79863" lon="0.39985">
        <ele>1652.968</ele>
        <time>2011-10-03T17:56:35Z</time>
      </trkpt>
      <trkpt lat="42.79869" lon="0.39983">
        <ele>1654.215</ele>
        <time>2011-10-03T17:56:36Z</time>
      </trkpt>
      <trkpt lat="42.79869" lon="0.39983">
        <ele>1654.956</ele>
        <time>2011-10-03T17:56:36Z</time>
      </trkpt>
      <trkpt lat="42.7988" lon="0.39972">
        <ele>1655.352</ele>
        <time>2011-10-03T17:56:38Z</time>
      </trkpt>
      <trkpt lat="42.79885" lon="0.39964">
        <ele>1655.514</ele>
        <time>2011-10-03T17:56:39Z</time>
      </trkpt>
      <trkpt lat="42.7989" lon="0.39955">
        <ele>1656.072</ele>
        <time>2011-10-03T17:56:40Z</time>
      </trkpt>
      <trkpt lat="42.79893" lon="0.39946">
        <ele>1656.975</ele>
        <time>2011-10-03T17:56:41Z</time>
      </trkpt>
      <trkpt lat="42.79897" lon="0.39937">
        <ele>1658.32</ele>
        <time>2011-10-03T17:56:42Z</time>
      </trkpt>
      <trkpt lat="42.79898" lon="0.39929">
        <ele>1660.847</ele>
        <time>2011-10-03T17:56:43Z</time>
      </trkpt>
      <trkpt lat="42.79899" lon="0.39921">
        <ele>1662.587</ele>
        <time>2011-10-03T17:56:44Z</time>
      </trkpt>
      <trkpt lat="42.799" lon="0.39912">
        <ele>1663.467</ele>
        <time>2011-10-03T17:56:45Z</time>
      </trkpt>
      <trkpt lat="42.79898" lon="0.39904">
        <ele>1663.799</ele>
        <time>2011-10-03T17:56:46Z</time>
      </trkpt>
      <trkpt lat="42.79891" lon="0.39895">
        <ele>1664.243</ele>
        <time>2011-10-03T17:56:47Z</time>
      </trkpt>
      <trkpt lat="42.79883" lon="0.39889">
        <ele>1664.945</ele>
        <time>2011-10-03T17:56:48Z</time>
      </trkpt>
      <trkpt lat="42.79874" lon="0.39887">
        <ele>1665.703</ele>
        <time>2011-10-03T17:56:49Z</time>
      </trkpt>
      <trkpt lat="42.79864" lon="0.39889">
        <ele>1666.309</ele>
        <time>2011-10-03T17:56:50Z</time>
      </trkpt>
      <trkpt lat="42.79854" lon="0.39895">
        <ele>1666.546</ele>
        <time>2011-10-03T17:56:51Z</time>
      </trkpt>
      <trkpt lat="42.79846" lon="0.39903">
        <ele>1666.388</ele>
        <time>2011-10-03T17:56:52Z</time>
      </trkpt>
      <trkpt lat="42.79839" lon="0.39913">
        <ele>1665.84</ele>
        <time>2011-10-03T17:56:53Z</time>
      </trkpt>
      <trkpt lat="42.79834" lon="0.39925">
        <ele>1664.914</ele>
        <time>2011-10-03T17:56:54Z</time>
      </trkpt>
      <trkpt lat="42.79837" lon="0.39947">
        <ele>1664.227</ele>
        <time>2011-10-03T17:56:56Z</time>
      </trkpt>
      <trkpt lat="42.79837" lon="0.39947">
        <ele>1664.319</ele>
        <time>2011-10-03T17:56:56Z</time>
      </trkpt>
      <trkpt lat="42.79842" lon="0.39956">
        <ele>1665.086</ele>
        <time>2011-10-03T17:56:57Z</time>
      </trkpt>
      <trkpt lat="42.79853" lon="0.39964">
        <ele>1666.424</ele>
        <time>2011-10-03T17:56:59Z</time>
      </trkpt>
      <trkpt lat="42.79858" lon="0.39965">
        <ele>1667.292</ele>
        <time>2011-10-03T17:57:00Z</time>
      </trkpt>
      <trkpt lat="42.79864" lon="0.39966">
        <ele>1667.301</ele>
        <time>2011-10-03T17:57:01Z</time>
      </trkpt>
      <trkpt lat="42.7987" lon="0.39965">
        <ele>1667.107</ele>
        <time>2011-10-03T17:57:02Z</time>
      </trkpt>
      <trkpt lat="42.79877" lon="0.39962">
        <ele>1667.266</ele>
        <time>2011-10-03T17:57:03Z</time>
      </trkpt>
      <trkpt lat="42.79884" lon="0.39958">
        <ele>1667.965</ele>
        <time>2011-10-03T17:57:04Z</time>
      </trkpt>
      <trkpt lat="42.7989" lon="0.39955">
        <ele>1668.803</ele>
        <time>2011-10-03T17:57:05Z</time>
      </trkpt>
      <trkpt lat="42.79897" lon="0.39952">
        <ele>1669.433</ele>
        <time>2011-10-03T17:57:06Z</time>
      </trkpt>
      <trkpt lat="42.79903" lon="0.39948">
        <ele>1670.014</ele>
        <time>2011-10-03T17:57:07Z</time>
      </trkpt>
      <trkpt lat="42.79908" lon="0.39944">
        <ele>1670.933</ele>
        <time>2011-10-03T17:57:08Z</time>
      </trkpt>
      <trkpt lat="42.79908" lon="0.39944">
        <ele>1671.737</ele>
        <time>2011-10-03T17:57:08Z</time>
      </trkpt>
      <trkpt lat="42.79919" lon="0.39935">
        <ele>1673.477</ele>
        <time>2011-10-03T17:57:10Z</time>
      </trkpt>
      <trkpt lat="42.79924" lon="0.39931">
        <ele>1674.788</ele>
        <time>2011-10-03T17:57:11Z</time>
      </trkpt>
      <trkpt lat="42.79929" lon="0.39926">
        <ele>1675.249</ele>
        <time>2011-10-03T17:57:12Z</time>
      </trkpt>
      <trkpt lat="42.79933" lon="0.39919">
        <ele>1675.202</ele>
        <time>2011-10-03T17:57:13Z</time>
      </trkpt>
      <trkpt lat="42.79935" lon="0.39909">
        <ele>1675.085</ele>
        <time>2011-10-03T17:57:14Z</time>
      </trkpt>
      <trkpt lat="42.79934" lon="0.399">
        <ele>1675.507</ele>
        <time>2011-10-03T17:57:15Z</time>
      </trkpt>
      <trkpt lat="42.79928" lon="0.39893">
        <ele>1676.446</ele>
        <time>2011-10-03T17:57:16Z</time>
      </trkpt>
      <trkpt lat="42.79913" lon="0.39887">
        <ele>1676.949</ele>
        <time>2011-10-03T17:57:18Z</time>
      </trkpt>
      <trkpt lat="42.79906" lon="0.39885">
        <ele>1676.624</ele>
        <time>2011-10-03T17:57:19Z</time>
      </trkpt>
      <trkpt lat="42.79898" lon="0.39883">
        <ele>1675.354</ele>
        <time>2011-10-03T17:57:20Z</time>
      </trkpt>
      <trkpt lat="42.79888" lon="0.39885">
        <ele>1674.204</ele>
        <time>2011-10-03T17:57:21Z</time>
      </trkpt>
      <trkpt lat="42.79879" lon="0.39893">
        <ele>1673.34</ele>
        <time>2011-10-03T17:57:22Z</time>
      </trkpt>
      <trkpt lat="42.79875" lon="0.39905">
        <ele>1673.287</ele>
        <time>2011-10-03T17:57:23Z</time>
      </trkpt>
      <trkpt lat="42.79875" lon="0.39905">
        <ele>1673.843</ele>
        <time>2011-10-03T17:57:23Z</time>
      </trkpt>
      <trkpt lat="42.79878" lon="0.39927">
        <ele>1675.084</ele>
        <time>2011-10-03T17:57:25Z</time>
      </trkpt>
      <trkpt lat="42.79881" lon="0.39935">
        <ele>1676.464</ele>
        <time>2011-10-03T17:57:26Z</time>
      </trkpt>
      <trkpt lat="42.79884" lon="0.39943">
        <ele>1677.46</ele>
        <time>2011-10-03T17:57:27Z</time>
      </trkpt>
      <trkpt lat="42.79888" lon="0.3995">
        <ele>1677.684</ele>
        <time>2011-10-03T17:57:28Z</time>
      </trkpt>
      <trkpt lat="42.79893" lon="0.39955">
        <ele>1677.256</ele>
        <time>2011-10-03T17:57:29Z</time>
      </trkpt>
      <trkpt lat="42.799" lon="0.3996">
        <ele>1676.615</ele>
        <time>2011-10-03T17:57:30Z</time>
      </trkpt>
      <trkpt lat="42.79905" lon="0.39961">
        <ele>1676.438</ele>
        <time>2011-10-03T17:57:31Z</time>
      </trkpt>
      <trkpt lat="42.79912" lon="0.39961">
        <ele>1676.77</ele>
        <time>2011-10-03T17:57:32Z</time>
      </trkpt>
      <trkpt lat="42.79919" lon="0.39962">
        <ele>1677.341</ele>
        <time>2011-10-03T17:57:33Z</time>
      </trkpt>
      <trkpt lat="42.79925" lon="0.39964">
        <ele>1677.752</ele>
        <time>2011-10-03T17:57:34Z</time>
      </trkpt>
      <trkpt lat="42.79933" lon="0.39966">
        <ele>1677.922</ele>
        <time>2011-10-03T17:57:35Z</time>
      </trkpt>
      <trkpt lat="42.7994" lon="0.39966">
        <ele>1678.242</ele>
        <time>2011-10-03T17:57:36Z</time>
      </trkpt>
      <trkpt lat="42.79948" lon="0.39965">
        <ele>1678.716</ele>
        <time>2011-10-03T17:57:37Z</time>
      </trkpt>
      <trkpt lat="42.79955" lon="0.39963">
        <ele>1679.765</ele>
        <time>2011-10-03T17:57:38Z</time>
      </trkpt>
      <trkpt lat="42.79962" lon="0.39962">
        <ele>1680.924</ele>
        <time>2011-10-03T17:57:39Z</time>
      </trkpt>
      <trkpt lat="42.79969" lon="0.39961">
        <ele>1681.502</ele>
        <time>2011-10-03T17:57:40Z</time>
      </trkpt>
      <trkpt lat="42.79975" lon="0.39957">
        <ele>1681.68</ele>
        <time>2011-10-03T17:57:41Z</time>
      </trkpt>
      <trkpt lat="42.7998" lon="0.3995">
        <ele>1681.889</ele>
        <time>2011-10-03T17:57:42Z</time>
      </trkpt>
      <trkpt lat="42.79984" lon="0.39942">
        <ele>1682.186</ele>
        <time>2011-10-03T17:57:43Z</time>
      </trkpt>
      <trkpt lat="42.79984" lon="0.39932">
        <ele>1682.784</ele>
        <time>2011-10-03T17:57:44Z</time>
      </trkpt>
      <trkpt lat="42.79981" lon="0.39924">
        <ele>1683.943</ele>
        <time>2011-10-03T17:57:45Z</time>
      </trkpt>
      <trkpt lat="42.79981" lon="0.39924">
        <ele>1685.519</ele>
        <time>2011-10-03T17:57:45Z</time>
      </trkpt>
      <trkpt lat="42.7996" lon="0.39913">
        <ele>1687.027</ele>
        <time>2011-10-03T17:57:48Z</time>
      </trkpt>
      <trkpt lat="42.79952" lon="0.39913">
        <ele>1688.438</ele>
        <time>2011-10-03T17:57:49Z</time>
      </trkpt>
      <trkpt lat="42.79944" lon="0.39917">
        <ele>1689.29</ele>
        <time>2011-10-03T17:57:50Z</time>
      </trkpt>
      <trkpt lat="42.79935" lon="0.39923">
        <ele>1689.745</ele>
        <time>2011-10-03T17:57:51Z</time>
      </trkpt>
      <trkpt lat="42.79935" lon="0.39923">
        <ele>1690.138</ele>
        <time>2011-10-03T17:57:51Z</time>
      </trkpt>
      <trkpt lat="42.79922" lon="0.39943">
        <ele>1690.707</ele>
        <time>2011-10-03T17:57:53Z</time>
      </trkpt>
      <trkpt lat="42.7992" lon="0.39955">
        <ele>1691.509</ele>
        <time>2011-10-03T17:57:54Z</time>
      </trkpt>
      <trkpt lat="42.79919" lon="0.39968">
        <ele>1692.389</ele>
        <time>2011-10-03T17:57:55Z</time>
      </trkpt>
      <trkpt lat="42.7992" lon="0.39981">
        <ele>1692.909</ele>
        <time>2011-10-03T17:57:56Z</time>
      </trkpt>
      <trkpt lat="42.7992" lon="0.39981">
        <ele>1693.202</ele>
        <time>2011-10-03T17:57:56Z</time>
      </trkpt>
      <trkpt lat="42.79927" lon="0.40006">
        <ele>1693.557</ele>
        <time>2011-10-03T17:57:58Z</time>
      </trkpt>
      <trkpt lat="42.79934" lon="0.40016">
        <ele>1693.916</ele>
        <time>2011-10-03T17:57:59Z</time>
      </trkpt>
      <trkpt lat="42.79941" lon="0.40022">
        <ele>1694.043</ele>
        <time>2011-10-03T17:58:00Z</time>
      </trkpt>
      <trkpt lat="42.79949" lon="0.40023">
        <ele>1693.616</ele>
        <time>2011-10-03T17:58:01Z</time>
      </trkpt>
      <trkpt lat="42.79958" lon="0.40018">
        <ele>1692.837</ele>
        <time>2011-10-03T17:58:02Z</time>
      </trkpt>
      <trkpt lat="42.79964" lon="0.40013">
        <ele>1692.044</ele>
        <time>2011-10-03T17:58:03Z</time>
      </trkpt>
      <trkpt lat="42.79971" lon="0.40006">
        <ele>1692.007</ele>
        <time>2011-10-03T17:58:04Z</time>
      </trkpt>
      <trkpt lat="42.79975" lon="0.39997">
        <ele>1692.633</ele>
        <time>2011-10-03T17:58:05Z</time>
      </trkpt>
      <trkpt lat="42.79978" lon="0.39987">
        <ele>1693.339</ele>
        <time>2011-10-03T17:58:06Z</time>
      </trkpt>
      <trkpt lat="42.7998" lon="0.39977">
        <ele>1693.841</ele>
        <time>2011-10-03T17:58:07Z</time>
      </trkpt>
      <trkpt lat="42.79981" lon="0.39967">
        <ele>1693.991</ele>
        <time>2011-10-03T17:58:08Z</time>
      </trkpt>
      <trkpt lat="42.79982" lon="0.39956">
        <ele>1694.046</ele>
        <time>2011-10-03T17:58:09Z</time>
      </trkpt>
      <trkpt lat="42.79981" lon="0.39945">
        <ele>1694.48</ele>
        <time>2011-10-03T17:58:10Z</time>
      </trkpt>
      <trkpt lat="42.79977" lon="0.39936">
        <ele>1695.119</ele>
        <time>2011-10-03T17:58:11Z</time>
      </trkpt>
      <trkpt lat="42.79973" lon="0.39927">
        <ele>1695.481</ele>
        <time>2011-10-03T17:58:12Z</time>
      </trkpt>
      <trkpt lat="42.79968" lon="0.3992">
        <ele>1695.451</ele>
        <time>2011-10-03T17:58:13Z</time>
      </trkpt>
      <trkpt lat="42.79963" lon="0.39913">
        <ele>1695.616</ele>
        <time>2011-10-03T17:58:14Z</time>
      </trkpt>
      <trkpt lat="42.79956" lon="0.39908">
        <ele>1695.933</ele>
        <time>2011-10-03T17:58:15Z</time>
      </trkpt>
      <trkpt lat="42.79948" lon="0.39907">
        <ele>1696.326</ele>
        <time>2011-10-03T17:58:16Z</time>
      </trkpt>
      <trkpt lat="42.79939" lon="0.39912">
        <ele>1697.043</ele>
        <time>2011-10-03T17:58:17Z</time>
      </trkpt>
      <trkpt lat="42.79923" lon="0.39926">
        <ele>1697.831</ele>
        <time>2011-10-03T17:58:19Z</time>
      </trkpt>
      <trkpt lat="42.79917" lon="0.39937">
        <ele>1698.607</ele>
        <time>2011-10-03T17:58:20Z</time>
      </trkpt>
      <trkpt lat="42.79912" lon="0.39948">
        <ele>1699.22</ele>
        <time>2011-10-03T17:58:21Z</time>
      </trkpt>
      <trkpt lat="42.79909" lon="0.3996">
        <ele>1699.819</ele>
        <time>2011-10-03T17:58:22Z</time>
      </trkpt>
      <trkpt lat="42.79907" lon="0.39972">
        <ele>1700.313</ele>
        <time>2011-10-03T17:58:23Z</time>
      </trkpt>
      <trkpt lat="42.7991" lon="0.39984">
        <ele>1700.679</ele>
        <time>2011-10-03T17:58:24Z</time>
      </trkpt>
      <trkpt lat="42.79912" lon="0.39994">
        <ele>1701.213</ele>
        <time>2011-10-03T17:58:25Z</time>
      </trkpt>
      <trkpt lat="42.79916" lon="0.40002">
        <ele>1702.062</ele>
        <time>2011-10-03T17:58:26Z</time>
      </trkpt>
      <trkpt lat="42.79922" lon="0.40007">
        <ele>1702.862</ele>
        <time>2011-10-03T17:58:27Z</time>
      </trkpt>
      <trkpt lat="42.79929" lon="0.40011">
        <ele>1703.291</ele>
        <time>2011-10-03T17:58:28Z</time>
      </trkpt>
      <trkpt lat="42.79936" lon="0.40011">
        <ele>1702.971</ele>
        <time>2011-10-03T17:58:29Z</time>
      </trkpt>
      <trkpt lat="42.79943" lon="0.40008">
        <ele>1702.451</ele>
        <time>2011-10-03T17:58:30Z</time>
      </trkpt>
      <trkpt lat="42.79949" lon="0.40004">
        <ele>1702.303</ele>
        <time>2011-10-03T17:58:31Z</time>
      </trkpt>
      <trkpt lat="42.79955" lon="0.39998">
        <ele>1702.677</ele>
        <time>2011-10-03T17:58:32Z</time>
      </trkpt>
      <trkpt lat="42.7996" lon="0.39991">
        <ele>1703.666</ele>
        <time>2011-10-03T17:58:33Z</time>
      </trkpt>
      <trkpt lat="42.79966" lon="0.39987">
        <ele>1704.329</ele>
        <time>2011-10-03T17:58:34Z</time>
      </trkpt>
      <trkpt lat="42.79972" lon="0.39984">
        <ele>1704.389</ele>
        <time>2011-10-03T17:58:35Z</time>
      </trkpt>
      <trkpt lat="42.79979" lon="0.39982">
        <ele>1704.089</ele>
        <time>2011-10-03T17:58:36Z</time>
      </trkpt>
      <trkpt lat="42.79986" lon="0.39978">
        <ele>1703.792</ele>
        <time>2011-10-03T17:58:37Z</time>
      </trkpt>
      <trkpt lat="42.79993" lon="0.39973">
        <ele>1704.092</ele>
        <time>2011-10-03T17:58:38Z</time>
      </trkpt>
      <trkpt lat="42.80006" lon="0.39963">
        <ele>1705.121</ele>
        <time>2011-10-03T17:58:40Z</time>
      </trkpt>
      <trkpt lat="42.80009" lon="0.39956">
        <ele>1706.257</ele>
        <time>2011-10-03T17:58:41Z</time>
      </trkpt>
      <trkpt lat="42.80009" lon="0.39956">
        <ele>1706.924</ele>
        <time>2011-10-03T17:58:41Z</time>
      </trkpt>
      <trkpt lat="42.80013" lon="0.39938">
        <ele>1707.113</ele>
        <time>2011-10-03T17:58:43Z</time>
      </trkpt>
      <trkpt lat="42.8001" lon="0.3993">
        <ele>1707.56</ele>
        <time>2011-10-03T17:58:44Z</time>
      </trkpt>
      <trkpt lat="42.80006" lon="0.39923">
        <ele>1708.64</ele>
        <time>2011-10-03T17:58:45Z</time>
      </trkpt>
      <trkpt lat="42.79999" lon="0.3992">
        <ele>1709.935</ele>
        <time>2011-10-03T17:58:46Z</time>
      </trkpt>
      <trkpt lat="42.79991" lon="0.39919">
        <ele>1710.845</ele>
        <time>2011-10-03T17:58:47Z</time>
      </trkpt>
      <trkpt lat="42.79983" lon="0.39921">
        <ele>1711.609</ele>
        <time>2011-10-03T17:58:48Z</time>
      </trkpt>
      <trkpt lat="42.79975" lon="0.39925">
        <ele>1712.239</ele>
        <time>2011-10-03T17:58:49Z</time>
      </trkpt>
      <trkpt lat="42.7997" lon="0.39933">
        <ele>1712.525</ele>
        <time>2011-10-03T17:58:50Z</time>
      </trkpt>
      <trkpt lat="42.79965" lon="0.39942">
        <ele>1712.079</ele>
        <time>2011-10-03T17:58:51Z</time>
      </trkpt>
      <trkpt lat="42.79961" lon="0.39954">
        <ele>1711.468</ele>
        <time>2011-10-03T17:58:52Z</time>
      </trkpt>
      <trkpt lat="42.79959" lon="0.39966">
        <ele>1711.596</ele>
        <time>2011-10-03T17:58:53Z</time>
      </trkpt>
      <trkpt lat="42.79958" lon="0.39978">
        <ele>1712.132</ele>
        <time>2011-10-03T17:58:54Z</time>
      </trkpt>
      <trkpt lat="42.79961" lon="0.39987">
        <ele>1712.546</ele>
        <time>2011-10-03T17:58:55Z</time>
      </trkpt>
      <trkpt lat="42.79966" lon="0.39996">
        <ele>1712.749</ele>
        <time>2011-10-03T17:58:56Z</time>
      </trkpt>
      <trkpt lat="42.79971" lon="0.40003">
        <ele>1713.15</ele>
        <time>2011-10-03T17:58:57Z</time>
      </trkpt>
      <trkpt lat="42.79978" lon="0.4001">
        <ele>1713.982</ele>
        <time>2011-10-03T17:58:58Z</time>
      </trkpt>
      <trkpt lat="42.79978" lon="0.4001">
        <ele>1714.661</ele>
        <time>2011-10-03T17:58:58Z</time>
      </trkpt>
      <trkpt lat="42.79994" lon="0.40014">
        <ele>1715.508</ele>
        <time>2011-10-03T17:59:00Z</time>
      </trkpt>
      <trkpt lat="42.80002" lon="0.40012">
        <ele>1715.931</ele>
        <time>2011-10-03T17:59:01Z</time>
      </trkpt>
      <trkpt lat="42.80009" lon="0.40007">
        <ele>1716.178</ele>
        <time>2011-10-03T17:59:02Z</time>
      </trkpt>
      <trkpt lat="42.80015" lon="0.4">
        <ele>1716.269</ele>
        <time>2011-10-03T17:59:03Z</time>
      </trkpt>
      <trkpt lat="42.80021" lon="0.39991">
        <ele>1716.245</ele>
        <time>2011-10-03T17:59:04Z</time>
      </trkpt>
      <trkpt lat="42.80025" lon="0.39981">
        <ele>1716.498</ele>
        <time>2011-10-03T17:59:05Z</time>
      </trkpt>
      <trkpt lat="42.80027" lon="0.39971">
        <ele>1717.095</ele>
        <time>2011-10-03T17:59:06Z</time>
      </trkpt>
      <trkpt lat="42.80028" lon="0.39962">
        <ele>1717.82</ele>
        <time>2011-10-03T17:59:07Z</time>
      </trkpt>
      <trkpt lat="42.80029" lon="0.39953">
        <ele>1718.227</ele>
        <time>2011-10-03T17:59:08Z</time>
      </trkpt>
      <trkpt lat="42.80031" lon="0.39943">
        <ele>1718.564</ele>
        <time>2011-10-03T17:59:09Z</time>
      </trkpt>
      <trkpt lat="42.80035" lon="0.39934">
        <ele>1719.033</ele>
        <time>2011-10-03T17:59:10Z</time>
      </trkpt>
      <trkpt lat="42.80039" lon="0.39925">
        <ele>1719.406</ele>
        <time>2011-10-03T17:59:11Z</time>
      </trkpt>
      <trkpt lat="42.80044" lon="0.39917">
        <ele>1719.498</ele>
        <time>2011-10-03T17:59:12Z</time>
      </trkpt>
      <trkpt lat="42.80054" lon="0.39907">
        <ele>1719.512</ele>
        <time>2011-10-03T17:59:14Z</time>
      </trkpt>
      <trkpt lat="42.80061" lon="0.39909">
        <ele>1719.6</ele>
        <time>2011-10-03T17:59:15Z</time>
      </trkpt>
      <trkpt lat="42.80068" lon="0.39919">
        <ele>1719.621</ele>
        <time>2011-10-03T17:59:16Z</time>
      </trkpt>
      <trkpt lat="42.80068" lon="0.39919">
        <ele>1719.41</ele>
        <time>2011-10-03T17:59:16Z</time>
      </trkpt>
      <trkpt lat="42.80077" lon="0.3994">
        <ele>1719.331</ele>
        <time>2011-10-03T17:59:18Z</time>
      </trkpt>
      <trkpt lat="42.80079" lon="0.39952">
        <ele>1719.034</ele>
        <time>2011-10-03T17:59:19Z</time>
      </trkpt>
      <trkpt lat="42.80077" lon="0.39963">
        <ele>1718.211</ele>
        <time>2011-10-03T17:59:20Z</time>
      </trkpt>
      <trkpt lat="42.8007" lon="0.39973">
        <ele>1717.241</ele>
        <time>2011-10-03T17:59:21Z</time>
      </trkpt>
      <trkpt lat="42.8007" lon="0.39973">
        <ele>1716.427</ele>
        <time>2011-10-03T17:59:21Z</time>
      </trkpt>
      <trkpt lat="42.80053" lon="0.39981">
        <ele>1715.947</ele>
        <time>2011-10-03T17:59:23Z</time>
      </trkpt>
      <trkpt lat="42.80045" lon="0.39978">
        <ele>1715.493</ele>
        <time>2011-10-03T17:59:24Z</time>
      </trkpt>
      <trkpt lat="42.80038" lon="0.39972">
        <ele>1714.881</ele>
        <time>2011-10-03T17:59:25Z</time>
      </trkpt>
      <trkpt lat="42.80033" lon="0.39964">
        <ele>1714.356</ele>
        <time>2011-10-03T17:59:26Z</time>
      </trkpt>
      <trkpt lat="42.80029" lon="0.39955">
        <ele>1713.991</ele>
        <time>2011-10-03T17:59:27Z</time>
      </trkpt>
      <trkpt lat="42.8003" lon="0.39945">
        <ele>1713.111</ele>
        <time>2011-10-03T17:59:28Z</time>
      </trkpt>
      <trkpt lat="42.80032" lon="0.39935">
        <ele>1711.913</ele>
        <time>2011-10-03T17:59:29Z</time>
      </trkpt>
      <trkpt lat="42.80038" lon="0.39928">
        <ele>1710.824</ele>
        <time>2011-10-03T17:59:30Z</time>
      </trkpt>
      <trkpt lat="42.80044" lon="0.39921">
        <ele>1710.754</ele>
        <time>2011-10-03T17:59:31Z</time>
      </trkpt>
      <trkpt lat="42.80049" lon="0.39915">
        <ele>1711.386</ele>
        <time>2011-10-03T17:59:32Z</time>
      </trkpt>
      <trkpt lat="42.80052" lon="0.39908">
        <ele>1711.738</ele>
        <time>2011-10-03T17:59:33Z</time>
      </trkpt>
      <trkpt lat="42.80053" lon="0.39898">
        <ele>1711.514</ele>
        <time>2011-10-03T17:59:34Z</time>
      </trkpt>
      <trkpt lat="42.80052" lon="0.39887">
        <ele>1710.859</ele>
        <time>2011-10-03T17:59:35Z</time>
      </trkpt>
      <trkpt lat="42.80051" lon="0.39875">
        <ele>1710.063</ele>
        <time>2011-10-03T17:59:36Z</time>
      </trkpt>
      <trkpt lat="42.80046" lon="0.39866">
        <ele>1709.38</ele>
        <time>2011-10-03T17:59:37Z</time>
      </trkpt>
      <trkpt lat="42.80039" lon="0.3986">
        <ele>1708.736</ele>
        <time>2011-10-03T17:59:38Z</time>
      </trkpt>
      <trkpt lat="42.80032" lon="0.39861">
        <ele>1708.35</ele>
        <time>2011-10-03T17:59:39Z</time>
      </trkpt>
      <trkpt lat="42.80025" lon="0.39867">
        <ele>1708.454</ele>
        <time>2011-10-03T17:59:40Z</time>
      </trkpt>
      <trkpt lat="42.8002" lon="0.39875">
        <ele>1709.064</ele>
        <time>2011-10-03T17:59:41Z</time>
      </trkpt>
      <trkpt lat="42.80018" lon="0.39895">
        <ele>1710.023</ele>
        <time>2011-10-03T17:59:43Z</time>
      </trkpt>
      <trkpt lat="42.80022" lon="0.39905">
        <ele>1710.8</ele>
        <time>2011-10-03T17:59:44Z</time>
      </trkpt>
      <trkpt lat="42.80026" lon="0.39913">
        <ele>1710.675</ele>
        <time>2011-10-03T17:59:45Z</time>
      </trkpt>
      <trkpt lat="42.80033" lon="0.39919">
        <ele>1710.046</ele>
        <time>2011-10-03T17:59:46Z</time>
      </trkpt>
      <trkpt lat="42.80033" lon="0.39919">
        <ele>1709.608</ele>
        <time>2011-10-03T17:59:46Z</time>
      </trkpt>
      <trkpt lat="42.80046" lon="0.39921">
        <ele>1709.48</ele>
        <time>2011-10-03T17:59:48Z</time>
      </trkpt>
      <trkpt lat="42.80054" lon="0.39917">
        <ele>1709.468</ele>
        <time>2011-10-03T17:59:49Z</time>
      </trkpt>
      <trkpt lat="42.8006" lon="0.3991">
        <ele>1709.426</ele>
        <time>2011-10-03T17:59:50Z</time>
      </trkpt>
      <trkpt lat="42.80065" lon="0.39902">
        <ele>1709.329</ele>
        <time>2011-10-03T17:59:51Z</time>
      </trkpt>
      <trkpt lat="42.80069" lon="0.39893">
        <ele>1708.878</ele>
        <time>2011-10-03T17:59:52Z</time>
      </trkpt>
      <trkpt lat="42.80073" lon="0.39883">
        <ele>1707.91</ele>
        <time>2011-10-03T17:59:53Z</time>
      </trkpt>
      <trkpt lat="42.80075" lon="0.39871">
        <ele>1706.787</ele>
        <time>2011-10-03T17:59:54Z</time>
      </trkpt>
      <trkpt lat="42.80069" lon="0.39859">
        <ele>1705.032</ele>
        <time>2011-10-03T17:59:55Z</time>
      </trkpt>
      <trkpt lat="42.80061" lon="0.39851">
        <ele>1703.582</ele>
        <time>2011-10-03T17:59:56Z</time>
      </trkpt>
      <trkpt lat="42.80053" lon="0.3985">
        <ele>1703.025</ele>
        <time>2011-10-03T17:59:57Z</time>
      </trkpt>
      <trkpt lat="42.80044" lon="0.39854">
        <ele>1703.108</ele>
        <time>2011-10-03T17:59:58Z</time>
      </trkpt>
      <trkpt lat="42.80037" lon="0.39861">
        <ele>1703.432</ele>
        <time>2011-10-03T17:59:59Z</time>
      </trkpt>
      <trkpt lat="42.80032" lon="0.39869">
        <ele>1703.828</ele>
        <time>2011-10-03T18:00:00Z</time>
      </trkpt>
      <trkpt lat="42.80028" lon="0.39879">
        <ele>1704.142</ele>
        <time>2011-10-03T18:00:01Z</time>
      </trkpt>
      <trkpt lat="42.80028" lon="0.39879">
        <ele>1704.199</ele>
        <time>2011-10-03T18:00:01Z</time>
      </trkpt>
      <trkpt lat="42.80028" lon="0.39899">
        <ele>1704.082</ele>
        <time>2011-10-03T18:00:03Z</time>
      </trkpt>
      <trkpt lat="42.80033" lon="0.39907">
        <ele>1703.988</ele>
        <time>2011-10-03T18:00:04Z</time>
      </trkpt>
      <trkpt lat="42.80033" lon="0.39907">
        <ele>1704.028</ele>
        <time>2011-10-03T18:00:04Z</time>
      </trkpt>
      <trkpt lat="42.80044" lon="0.39917">
        <ele>1703.954</ele>
        <time>2011-10-03T18:00:06Z</time>
      </trkpt>
      <trkpt lat="42.8005" lon="0.3992">
        <ele>1703.58</ele>
        <time>2011-10-03T18:00:07Z</time>
      </trkpt>
      <trkpt lat="42.80056" lon="0.39924">
        <ele>1703.037</ele>
        <time>2011-10-03T18:00:08Z</time>
      </trkpt>
      <trkpt lat="42.80056" lon="0.39924">
        <ele>1702.593</ele>
        <time>2011-10-03T18:00:08Z</time>
      </trkpt>
      <trkpt lat="42.80056" lon="0.39924">
        <ele>1702.175</ele>
        <time>2011-10-03T18:00:08Z</time>
      </trkpt>
      <trkpt lat="42.80079" lon="0.39931">
        <ele>1701.764</ele>
        <time>2011-10-03T18:00:11Z</time>
      </trkpt>
      <trkpt lat="42.80094" lon="0.39931">
        <ele>1701.379</ele>
        <time>2011-10-03T18:00:13Z</time>
      </trkpt>
      <trkpt lat="42.80101" lon="0.39931">
        <ele>1701.337</ele>
        <time>2011-10-03T18:00:14Z</time>
      </trkpt>
      <trkpt lat="42.80107" lon="0.39931">
        <ele>1700.967</ele>
        <time>2011-10-03T18:00:15Z</time>
      </trkpt>
      <trkpt lat="42.80112" lon="0.39926">
        <ele>1699.929</ele>
        <time>2011-10-03T18:00:16Z</time>
      </trkpt>
      <trkpt lat="42.80112" lon="0.39926">
        <ele>1697.224</ele>
        <time>2011-10-03T18:00:16Z</time>
      </trkpt>
      <trkpt lat="42.80117" lon="0.39904">
        <ele>1694.803</ele>
        <time>2011-10-03T18:00:18Z</time>
      </trkpt>
      <trkpt lat="42.80115" lon="0.39892">
        <ele>1693.782</ele>
        <time>2011-10-03T18:00:19Z</time>
      </trkpt>
      <trkpt lat="42.80112" lon="0.39883">
        <ele>1693.921</ele>
        <time>2011-10-03T18:00:20Z</time>
      </trkpt>
      <trkpt lat="42.80108" lon="0.39875">
        <ele>1694.126</ele>
        <time>2011-10-03T18:00:21Z</time>
      </trkpt>
      <trkpt lat="42.80104" lon="0.39867">
        <ele>1693.779</ele>
        <time>2011-10-03T18:00:22Z</time>
      </trkpt>
      <trkpt lat="42.80099" lon="0.39859">
        <ele>1692.208</ele>
        <time>2011-10-03T18:00:23Z</time>
      </trkpt>
      <trkpt lat="42.80093" lon="0.39852">
        <ele>1690.226</ele>
        <time>2011-10-03T18:00:24Z</time>
      </trkpt>
      <trkpt lat="42.80084" lon="0.39848">
        <ele>1688.837</ele>
        <time>2011-10-03T18:00:25Z</time>
      </trkpt>
      <trkpt lat="42.80076" lon="0.3985">
        <ele>1688.855</ele>
        <time>2011-10-03T18:00:26Z</time>
      </trkpt>
      <trkpt lat="42.80069" lon="0.39855">
        <ele>1689.641</ele>
        <time>2011-10-03T18:00:27Z</time>
      </trkpt>
      <trkpt lat="42.80064" lon="0.39863">
        <ele>1690.656</ele>
        <time>2011-10-03T18:00:28Z</time>
      </trkpt>
      <trkpt lat="42.80061" lon="0.39871">
        <ele>1691.589</ele>
        <time>2011-10-03T18:00:29Z</time>
      </trkpt>
      <trkpt lat="42.80058" lon="0.3988">
        <ele>1692.274</ele>
        <time>2011-10-03T18:00:30Z</time>
      </trkpt>
      <trkpt lat="42.80055" lon="0.3989">
        <ele>1691.876</ele>
        <time>2011-10-03T18:00:31Z</time>
      </trkpt>
      <trkpt lat="42.80054" lon="0.399">
        <ele>1690.8</ele>
        <time>2011-10-03T18:00:32Z</time>
      </trkpt>
      <trkpt lat="42.80059" lon="0.3991">
        <ele>1689.893</ele>
        <time>2011-10-03T18:00:33Z</time>
      </trkpt>
      <trkpt lat="42.80065" lon="0.39917">
        <ele>1689.81</ele>
        <time>2011-10-03T18:00:34Z</time>
      </trkpt>
      <trkpt lat="42.80071" lon="0.39921">
        <ele>1690.341</ele>
        <time>2011-10-03T18:00:35Z</time>
      </trkpt>
      <trkpt lat="42.80078" lon="0.39921">
        <ele>1690.909</ele>
        <time>2011-10-03T18:00:36Z</time>
      </trkpt>
      <trkpt lat="42.80086" lon="0.39918">
        <ele>1691.154</ele>
        <time>2011-10-03T18:00:37Z</time>
      </trkpt>
      <trkpt lat="42.80093" lon="0.39913">
        <ele>1690.731</ele>
        <time>2011-10-03T18:00:38Z</time>
      </trkpt>
      <trkpt lat="42.801" lon="0.39905">
        <ele>1689.66</ele>
        <time>2011-10-03T18:00:39Z</time>
      </trkpt>
      <trkpt lat="42.80104" lon="0.39895">
        <ele>1687.865</ele>
        <time>2011-10-03T18:00:40Z</time>
      </trkpt>
      <trkpt lat="42.80107" lon="0.39883">
        <ele>1686.307</ele>
        <time>2011-10-03T18:00:41Z</time>
      </trkpt>
      <trkpt lat="42.80102" lon="0.39861">
        <ele>1685.553</ele>
        <time>2011-10-03T18:00:43Z</time>
      </trkpt>
      <trkpt lat="42.80097" lon="0.39853">
        <ele>1686.005</ele>
        <time>2011-10-03T18:00:44Z</time>
      </trkpt>
      <trkpt lat="42.8009" lon="0.39848">
        <ele>1687.243</ele>
        <time>2011-10-03T18:00:45Z</time>
      </trkpt>
      <trkpt lat="42.80084" lon="0.39844">
        <ele>1688.373</ele>
        <time>2011-10-03T18:00:46Z</time>
      </trkpt>
      <trkpt lat="42.80078" lon="0.39839">
        <ele>1688.581</ele>
        <time>2011-10-03T18:00:47Z</time>
      </trkpt>
      <trkpt lat="42.80072" lon="0.39834">
        <ele>1687.584</ele>
        <time>2011-10-03T18:00:48Z</time>
      </trkpt>
      <trkpt lat="42.80064" lon="0.39833">
        <ele>1686.307</ele>
        <time>2011-10-03T18:00:49Z</time>
      </trkpt>
      <trkpt lat="42.80055" lon="0.39839">
        <ele>1684.799</ele>
        <time>2011-10-03T18:00:50Z</time>
      </trkpt>
      <trkpt lat="42.80049" lon="0.39851">
        <ele>1684.008</ele>
        <time>2011-10-03T18:00:51Z</time>
      </trkpt>
      <trkpt lat="42.80047" lon="0.39864">
        <ele>1683.949</ele>
        <time>2011-10-03T18:00:52Z</time>
      </trkpt>
      <trkpt lat="42.80049" lon="0.39878">
        <ele>1684.155</ele>
        <time>2011-10-03T18:00:53Z</time>
      </trkpt>
      <trkpt lat="42.80053" lon="0.3989">
        <ele>1684.262</ele>
        <time>2011-10-03T18:00:54Z</time>
      </trkpt>
      <trkpt lat="42.80057" lon="0.39902">
        <ele>1684.116</ele>
        <time>2011-10-03T18:00:55Z</time>
      </trkpt>
      <trkpt lat="42.80062" lon="0.39913">
        <ele>1683.782</ele>
        <time>2011-10-03T18:00:56Z</time>
      </trkpt>
      <trkpt lat="42.8007" lon="0.39921">
        <ele>1683.059</ele>
        <time>2011-10-03T18:00:57Z</time>
      </trkpt>
      <trkpt lat="42.80078" lon="0.39924">
        <ele>1682.105</ele>
        <time>2011-10-03T18:00:58Z</time>
      </trkpt>
      <trkpt lat="42.80087" lon="0.3992">
        <ele>1681.243</ele>
        <time>2011-10-03T18:00:59Z</time>
      </trkpt>
      <trkpt lat="42.80093" lon="0.39914">
        <ele>1680.896</ele>
        <time>2011-10-03T18:01:00Z</time>
      </trkpt>
      <trkpt lat="42.80097" lon="0.39905">
        <ele>1681.011</ele>
        <time>2011-10-03T18:01:01Z</time>
      </trkpt>
      <trkpt lat="42.80101" lon="0.39888">
        <ele>1681.349</ele>
        <time>2011-10-03T18:01:03Z</time>
      </trkpt>
      <trkpt lat="42.801" lon="0.39879">
        <ele>1681.366</ele>
        <time>2011-10-03T18:01:04Z</time>
      </trkpt>
      <trkpt lat="42.80098" lon="0.3987">
        <ele>1680.834</ele>
        <time>2011-10-03T18:01:05Z</time>
      </trkpt>
      <trkpt lat="42.80092" lon="0.39861">
        <ele>1680.288</ele>
        <time>2011-10-03T18:01:06Z</time>
      </trkpt>
      <trkpt lat="42.80086" lon="0.39854">
        <ele>1680.04</ele>
        <time>2011-10-03T18:01:07Z</time>
      </trkpt>
      <trkpt lat="42.80079" lon="0.39849">
        <ele>1679.893</ele>
        <time>2011-10-03T18:01:08Z</time>
      </trkpt>
      <trkpt lat="42.80072" lon="0.39847">
        <ele>1679.608</ele>
        <time>2011-10-03T18:01:09Z</time>
      </trkpt>
      <trkpt lat="42.80064" lon="0.39848">
        <ele>1679.139</ele>
        <time>2011-10-03T18:01:10Z</time>
      </trkpt>
      <trkpt lat="42.80056" lon="0.39853">
        <ele>1678.491</ele>
        <time>2011-10-03T18:01:11Z</time>
      </trkpt>
      <trkpt lat="42.80048" lon="0.3986">
        <ele>1677.983</ele>
        <time>2011-10-03T18:01:12Z</time>
      </trkpt>
      <trkpt lat="42.80041" lon="0.39871">
        <ele>1677.688</ele>
        <time>2011-10-03T18:01:13Z</time>
      </trkpt>
      <trkpt lat="42.80036" lon="0.39882">
        <ele>1677.468</ele>
        <time>2011-10-03T18:01:14Z</time>
      </trkpt>
      <trkpt lat="42.80033" lon="0.39895">
        <ele>1677.25</ele>
        <time>2011-10-03T18:01:15Z</time>
      </trkpt>
      <trkpt lat="42.80032" lon="0.39908">
        <ele>1677.063</ele>
        <time>2011-10-03T18:01:16Z</time>
      </trkpt>
      <trkpt lat="42.80033" lon="0.3992">
        <ele>1676.934</ele>
        <time>2011-10-03T18:01:17Z</time>
      </trkpt>
      <trkpt lat="42.80036" lon="0.39933">
        <ele>1676.542</ele>
        <time>2011-10-03T18:01:18Z</time>
      </trkpt>
      <trkpt lat="42.80041" lon="0.39944">
        <ele>1675.779</ele>
        <time>2011-10-03T18:01:19Z</time>
      </trkpt>
      <trkpt lat="42.80047" lon="0.39953">
        <ele>1674.839</ele>
        <time>2011-10-03T18:01:20Z</time>
      </trkpt>
      <trkpt lat="42.80054" lon="0.3996">
        <ele>1673.95</ele>
        <time>2011-10-03T18:01:21Z</time>
      </trkpt>
      <trkpt lat="42.80062" lon="0.39964">
        <ele>1673.365</ele>
        <time>2011-10-03T18:01:22Z</time>
      </trkpt>
      <trkpt lat="42.80071" lon="0.39963">
        <ele>1673.038</ele>
        <time>2011-10-03T18:01:23Z</time>
      </trkpt>
      <trkpt lat="42.80078" lon="0.39958">
        <ele>1673.014</ele>
        <time>2011-10-03T18:01:24Z</time>
      </trkpt>
      <trkpt lat="42.80084" lon="0.39951">
        <ele>1673.302</ele>
        <time>2011-10-03T18:01:25Z</time>
      </trkpt>
      <trkpt lat="42.80088" lon="0.39941">
        <ele>1673.524</ele>
        <time>2011-10-03T18:01:26Z</time>
      </trkpt>
      <trkpt lat="42.80093" lon="0.39923">
        <ele>1673.314</ele>
        <time>2011-10-03T18:01:28Z</time>
      </trkpt>
      <trkpt lat="42.80095" lon="0.39914">
        <ele>1672.624</ele>
        <time>2011-10-03T18:01:29Z</time>
      </trkpt>
      <trkpt lat="42.80095" lon="0.39904">
        <ele>1671.632</ele>
        <time>2011-10-03T18:01:30Z</time>
      </trkpt>
      <trkpt lat="42.80091" lon="0.39894">
        <ele>1670.573</ele>
        <time>2011-10-03T18:01:31Z</time>
      </trkpt>
      <trkpt lat="42.80091" lon="0.39894">
        <ele>1669.681</ele>
        <time>2011-10-03T18:01:31Z</time>
      </trkpt>
      <trkpt lat="42.80085" lon="0.39873">
        <ele>1669.208</ele>
        <time>2011-10-03T18:01:33Z</time>
      </trkpt>
      <trkpt lat="42.80082" lon="0.39864">
        <ele>1669.264</ele>
        <time>2011-10-03T18:01:34Z</time>
      </trkpt>
      <trkpt lat="42.8008" lon="0.39855">
        <ele>1669.594</ele>
        <time>2011-10-03T18:01:35Z</time>
      </trkpt>
      <trkpt lat="42.80077" lon="0.39846">
        <ele>1669.743</ele>
        <time>2011-10-03T18:01:36Z</time>
      </trkpt>
      <trkpt lat="42.80074" lon="0.39838">
        <ele>1669.599</ele>
        <time>2011-10-03T18:01:37Z</time>
      </trkpt>
      <trkpt lat="42.80071" lon="0.39829">
        <ele>1669.254</ele>
        <time>2011-10-03T18:01:38Z</time>
      </trkpt>
      <trkpt lat="42.80068" lon="0.3982">
        <ele>1669.124</ele>
        <time>2011-10-03T18:01:39Z</time>
      </trkpt>
      <trkpt lat="42.80066" lon="0.39812">
        <ele>1669.268</ele>
        <time>2011-10-03T18:01:40Z</time>
      </trkpt>
      <trkpt lat="42.80063" lon="0.39804">
        <ele>1669.43</ele>
        <time>2011-10-03T18:01:41Z</time>
      </trkpt>
      <trkpt lat="42.8006" lon="0.39796">
        <ele>1669.319</ele>
        <time>2011-10-03T18:01:42Z</time>
      </trkpt>
      <trkpt lat="42.80054" lon="0.39789">
        <ele>1669.147</ele>
        <time>2011-10-03T18:01:43Z</time>
      </trkpt>
      <trkpt lat="42.80054" lon="0.39789">
        <ele>1669.115</ele>
        <time>2011-10-03T18:01:43Z</time>
      </trkpt>
      <trkpt lat="42.80037" lon="0.39784">
        <ele>1669.078</ele>
        <time>2011-10-03T18:01:45Z</time>
      </trkpt>
      <trkpt lat="42.80029" lon="0.39788">
        <ele>1668.792</ele>
        <time>2011-10-03T18:01:46Z</time>
      </trkpt>
      <trkpt lat="42.80022" lon="0.39797">
        <ele>1668.103</ele>
        <time>2011-10-03T18:01:47Z</time>
      </trkpt>
      <trkpt lat="42.80018" lon="0.39809">
        <ele>1667.302</ele>
        <time>2011-10-03T18:01:48Z</time>
      </trkpt>
      <trkpt lat="42.80018" lon="0.39809">
        <ele>1666.64</ele>
        <time>2011-10-03T18:01:48Z</time>
      </trkpt>
      <trkpt lat="42.80024" lon="0.39847">
        <ele>1666.433</ele>
        <time>2011-10-03T18:01:51Z</time>
      </trkpt>
      <trkpt lat="42.80024" lon="0.39847">
        <ele>1666.53</ele>
        <time>2011-10-03T18:01:51Z</time>
      </trkpt>
      <trkpt lat="42.80037" lon="0.39861">
        <ele>1666.604</ele>
        <time>2011-10-03T18:01:53Z</time>
      </trkpt>
      <trkpt lat="42.80044" lon="0.39865">
        <ele>1666.429</ele>
        <time>2011-10-03T18:01:54Z</time>
      </trkpt>
      <trkpt lat="42.80052" lon="0.39867">
        <ele>1665.886</ele>
        <time>2011-10-03T18:01:55Z</time>
      </trkpt>
      <trkpt lat="42.8006" lon="0.39867">
        <ele>1665.181</ele>
        <time>2011-10-03T18:01:56Z</time>
      </trkpt>
      <trkpt lat="42.8006" lon="0.39867">
        <ele>1664.472</ele>
        <time>2011-10-03T18:01:56Z</time>
      </trkpt>
      <trkpt lat="42.80073" lon="0.39864">
        <ele>1664.217</ele>
        <time>2011-10-03T18:01:58Z</time>
      </trkpt>
      <trkpt lat="42.80081" lon="0.39862">
        <ele>1664.461</ele>
        <time>2011-10-03T18:01:59Z</time>
      </trkpt>
      <trkpt lat="42.80088" lon="0.3986">
        <ele>1664.731</ele>
        <time>2011-10-03T18:02:00Z</time>
      </trkpt>
      <trkpt lat="42.80095" lon="0.39858">
        <ele>1664.752</ele>
        <time>2011-10-03T18:02:01Z</time>
      </trkpt>
      <trkpt lat="42.80102" lon="0.39855">
        <ele>1664.347</ele>
        <time>2011-10-03T18:02:02Z</time>
      </trkpt>
      <trkpt lat="42.80109" lon="0.39852">
        <ele>1664.259</ele>
        <time>2011-10-03T18:02:03Z</time>
      </trkpt>
      <trkpt lat="42.80117" lon="0.39848">
        <ele>1664.973</ele>
        <time>2011-10-03T18:02:04Z</time>
      </trkpt>
      <trkpt lat="42.80124" lon="0.39846">
        <ele>1666.017</ele>
        <time>2011-10-03T18:02:05Z</time>
      </trkpt>
      <trkpt lat="42.80131" lon="0.39843">
        <ele>1666.776</ele>
        <time>2011-10-03T18:02:06Z</time>
      </trkpt>
      <trkpt lat="42.80136" lon="0.39837">
        <ele>1666.692</ele>
        <time>2011-10-03T18:02:07Z</time>
      </trkpt>
      <trkpt lat="42.80139" lon="0.39829">
        <ele>1666.241</ele>
        <time>2011-10-03T18:02:08Z</time>
      </trkpt>
      <trkpt lat="42.8014" lon="0.39818">
        <ele>1666.271</ele>
        <time>2011-10-03T18:02:09Z</time>
      </trkpt>
      <trkpt lat="42.80138" lon="0.39808">
        <ele>1666.89</ele>
        <time>2011-10-03T18:02:10Z</time>
      </trkpt>
      <trkpt lat="42.80132" lon="0.39801">
        <ele>1667.838</ele>
        <time>2011-10-03T18:02:11Z</time>
      </trkpt>
      <trkpt lat="42.80116" lon="0.39793">
        <ele>1668.348</ele>
        <time>2011-10-03T18:02:13Z</time>
      </trkpt>
      <trkpt lat="42.80108" lon="0.39792">
        <ele>1668.966</ele>
        <time>2011-10-03T18:02:14Z</time>
      </trkpt>
      <trkpt lat="42.801" lon="0.39793">
        <ele>1669.487</ele>
        <time>2011-10-03T18:02:15Z</time>
      </trkpt>
      <trkpt lat="42.80092" lon="0.39798">
        <ele>1669.617</ele>
        <time>2011-10-03T18:02:16Z</time>
      </trkpt>
      <trkpt lat="42.80084" lon="0.39807">
        <ele>1669.25</ele>
        <time>2011-10-03T18:02:17Z</time>
      </trkpt>
      <trkpt lat="42.80078" lon="0.39818">
        <ele>1668.883</ele>
        <time>2011-10-03T18:02:18Z</time>
      </trkpt>
      <trkpt lat="42.80076" lon="0.3983">
        <ele>1668.691</ele>
        <time>2011-10-03T18:02:19Z</time>
      </trkpt>
      <trkpt lat="42.80076" lon="0.39843">
        <ele>1668.589</ele>
        <time>2011-10-03T18:02:20Z</time>
      </trkpt>
      <trkpt lat="42.80084" lon="0.39854">
        <ele>1668.729</ele>
        <time>2011-10-03T18:02:21Z</time>
      </trkpt>
      <trkpt lat="42.80084" lon="0.39854">
        <ele>1669.071</ele>
        <time>2011-10-03T18:02:21Z</time>
      </trkpt>
      <trkpt lat="42.80097" lon="0.39868">
        <ele>1669.392</ele>
        <time>2011-10-03T18:02:23Z</time>
      </trkpt>
      <trkpt lat="42.80105" lon="0.39871">
        <ele>1669.469</ele>
        <time>2011-10-03T18:02:24Z</time>
      </trkpt>
      <trkpt lat="42.80113" lon="0.39873">
        <ele>1669.455</ele>
        <time>2011-10-03T18:02:25Z</time>
      </trkpt>
      <trkpt lat="42.80121" lon="0.39872">
        <ele>1669.5</ele>
        <time>2011-10-03T18:02:26Z</time>
      </trkpt>
      <trkpt lat="42.80128" lon="0.39871">
        <ele>1669.502</ele>
        <time>2011-10-03T18:02:27Z</time>
      </trkpt>
      <trkpt lat="42.80135" lon="0.3987">
        <ele>1669.466</ele>
        <time>2011-10-03T18:02:28Z</time>
      </trkpt>
      <trkpt lat="42.80142" lon="0.39869">
        <ele>1669.595</ele>
        <time>2011-10-03T18:02:29Z</time>
      </trkpt>
      <trkpt lat="42.8015" lon="0.39869">
        <ele>1669.809</ele>
        <time>2011-10-03T18:02:30Z</time>
      </trkpt>
      <trkpt lat="42.80157" lon="0.39869">
        <ele>1670.025</ele>
        <time>2011-10-03T18:02:31Z</time>
      </trkpt>
      <trkpt lat="42.80164" lon="0.3987">
        <ele>1670.629</ele>
        <time>2011-10-03T18:02:32Z</time>
      </trkpt>
      <trkpt lat="42.80171" lon="0.39869">
        <ele>1671.148</ele>
        <time>2011-10-03T18:02:33Z</time>
      </trkpt>
      <trkpt lat="42.80177" lon="0.39867">
        <ele>1671.475</ele>
        <time>2011-10-03T18:02:34Z</time>
      </trkpt>
      <trkpt lat="42.80181" lon="0.39861">
        <ele>1671.258</ele>
        <time>2011-10-03T18:02:35Z</time>
      </trkpt>
      <trkpt lat="42.80183" lon="0.39853">
        <ele>1671.126</ele>
        <time>2011-10-03T18:02:36Z</time>
      </trkpt>
      <trkpt lat="42.80182" lon="0.39844">
        <ele>1671.731</ele>
        <time>2011-10-03T18:02:37Z</time>
      </trkpt>
      <trkpt lat="42.8018" lon="0.39836">
        <ele>1672.969</ele>
        <time>2011-10-03T18:02:38Z</time>
      </trkpt>
      <trkpt lat="42.8018" lon="0.39836">
        <ele>1673.977</ele>
        <time>2011-10-03T18:02:38Z</time>
      </trkpt>
      <trkpt lat="42.80168" lon="0.39825">
        <ele>1674.985</ele>
        <time>2011-10-03T18:02:40Z</time>
      </trkpt>
      <trkpt lat="42.80161" lon="0.39821">
        <ele>1675.265</ele>
        <time>2011-10-03T18:02:41Z</time>
      </trkpt>
      <trkpt lat="42.80152" lon="0.39818">
        <ele>1675.469</ele>
        <time>2011-10-03T18:02:42Z</time>
      </trkpt>
      <trkpt lat="42.80144" lon="0.39819">
        <ele>1675.762</ele>
        <time>2011-10-03T18:02:43Z</time>
      </trkpt>
      <trkpt lat="42.80128" lon="0.39833">
        <ele>1675.963</ele>
        <time>2011-10-03T18:02:45Z</time>
      </trkpt>
      <trkpt lat="42.80122" lon="0.39845">
        <ele>1675.942</ele>
        <time>2011-10-03T18:02:46Z</time>
      </trkpt>
      <trkpt lat="42.80122" lon="0.39845">
        <ele>1675.863</ele>
        <time>2011-10-03T18:02:46Z</time>
      </trkpt>
      <trkpt lat="42.80123" lon="0.3987">
        <ele>1676.271</ele>
        <time>2011-10-03T18:02:48Z</time>
      </trkpt>
      <trkpt lat="42.80127" lon="0.3988">
        <ele>1677.034</ele>
        <time>2011-10-03T18:02:49Z</time>
      </trkpt>
      <trkpt lat="42.80133" lon="0.39888">
        <ele>1677.546</ele>
        <time>2011-10-03T18:02:50Z</time>
      </trkpt>
      <trkpt lat="42.80141" lon="0.39891">
        <ele>1677.939</ele>
        <time>2011-10-03T18:02:51Z</time>
      </trkpt>
      <trkpt lat="42.80141" lon="0.39891">
        <ele>1678.08</ele>
        <time>2011-10-03T18:02:51Z</time>
      </trkpt>
      <trkpt lat="42.80155" lon="0.39888">
        <ele>1678.232</ele>
        <time>2011-10-03T18:02:53Z</time>
      </trkpt>
      <trkpt lat="42.80159" lon="0.3988">
        <ele>1678.476</ele>
        <time>2011-10-03T18:02:54Z</time>
      </trkpt>
      <trkpt lat="42.80161" lon="0.39871">
        <ele>1678.85</ele>
        <time>2011-10-03T18:02:55Z</time>
      </trkpt>
      <trkpt lat="42.8016" lon="0.39863">
        <ele>1679.585</ele>
        <time>2011-10-03T18:02:56Z</time>
      </trkpt>
      <trkpt lat="42.80157" lon="0.39856">
        <ele>1680.901</ele>
        <time>2011-10-03T18:02:57Z</time>
      </trkpt>
      <trkpt lat="42.80153" lon="0.3985">
        <ele>1682.143</ele>
        <time>2011-10-03T18:02:58Z</time>
      </trkpt>
      <trkpt lat="42.80147" lon="0.39847">
        <ele>1682.679</ele>
        <time>2011-10-03T18:02:59Z</time>
      </trkpt>
      <trkpt lat="42.80141" lon="0.39842">
        <ele>1682.308</ele>
        <time>2011-10-03T18:03:00Z</time>
      </trkpt>
      <trkpt lat="42.80135" lon="0.39836">
        <ele>1681.748</ele>
        <time>2011-10-03T18:03:01Z</time>
      </trkpt>
      <trkpt lat="42.80129" lon="0.39829">
        <ele>1681.794</ele>
        <time>2011-10-03T18:03:02Z</time>
      </trkpt>
      <trkpt lat="42.80122" lon="0.39824">
        <ele>1682.06</ele>
        <time>2011-10-03T18:03:03Z</time>
      </trkpt>
      <trkpt lat="42.80115" lon="0.39821">
        <ele>1682.143</ele>
        <time>2011-10-03T18:03:04Z</time>
      </trkpt>
      <trkpt lat="42.80108" lon="0.39822">
        <ele>1681.784</ele>
        <time>2011-10-03T18:03:05Z</time>
      </trkpt>
      <trkpt lat="42.80101" lon="0.39827">
        <ele>1680.89</ele>
        <time>2011-10-03T18:03:06Z</time>
      </trkpt>
      <trkpt lat="42.80094" lon="0.39834">
        <ele>1680.162</ele>
        <time>2011-10-03T18:03:07Z</time>
      </trkpt>
      <trkpt lat="42.80088" lon="0.39843">
        <ele>1679.308</ele>
        <time>2011-10-03T18:03:08Z</time>
      </trkpt>
      <trkpt lat="42.80083" lon="0.39853">
        <ele>1678.6</ele>
        <time>2011-10-03T18:03:09Z</time>
      </trkpt>
      <trkpt lat="42.80082" lon="0.39866">
        <ele>1678.019</ele>
        <time>2011-10-03T18:03:10Z</time>
      </trkpt>
      <trkpt lat="42.80082" lon="0.39878">
        <ele>1677.847</ele>
        <time>2011-10-03T18:03:11Z</time>
      </trkpt>
      <trkpt lat="42.80082" lon="0.39878">
        <ele>1678.25</ele>
        <time>2011-10-03T18:03:11Z</time>
      </trkpt>
      <trkpt lat="42.80094" lon="0.39897">
        <ele>1678.837</ele>
        <time>2011-10-03T18:03:13Z</time>
      </trkpt>
      <trkpt lat="42.80101" lon="0.39904">
        <ele>1679.309</ele>
        <time>2011-10-03T18:03:14Z</time>
      </trkpt>
      <trkpt lat="42.8011" lon="0.3991">
        <ele>1679.784</ele>
        <time>2011-10-03T18:03:15Z</time>
      </trkpt>
      <trkpt lat="42.8011" lon="0.3991">
        <ele>1680.772</ele>
        <time>2011-10-03T18:03:15Z</time>
      </trkpt>
      <trkpt lat="42.80127" lon="0.39919">
        <ele>1681.821</ele>
        <time>2011-10-03T18:03:17Z</time>
      </trkpt>
      <trkpt lat="42.80144" lon="0.39925">
        <ele>1682.768</ele>
        <time>2011-10-03T18:03:19Z</time>
      </trkpt>
      <trkpt lat="42.80151" lon="0.39927">
        <ele>1683.552</ele>
        <time>2011-10-03T18:03:20Z</time>
      </trkpt>
      <trkpt lat="42.80159" lon="0.3993">
        <ele>1683.962</ele>
        <time>2011-10-03T18:03:21Z</time>
      </trkpt>
      <trkpt lat="42.80159" lon="0.3993">
        <ele>1684.612</ele>
        <time>2011-10-03T18:03:21Z</time>
      </trkpt>
      <trkpt lat="42.80175" lon="0.39938">
        <ele>1685.375</ele>
        <time>2011-10-03T18:03:23Z</time>
      </trkpt>
      <trkpt lat="42.8018" lon="0.39944">
        <ele>1686.185</ele>
        <time>2011-10-03T18:03:24Z</time>
      </trkpt>
      <trkpt lat="42.80185" lon="0.39954">
        <ele>1686.534</ele>
        <time>2011-10-03T18:03:25Z</time>
      </trkpt>
      <trkpt lat="42.80185" lon="0.39954">
        <ele>1686.583</ele>
        <time>2011-10-03T18:03:25Z</time>
      </trkpt>
      <trkpt lat="42.80189" lon="0.3998">
        <ele>1686.994</ele>
        <time>2011-10-03T18:03:27Z</time>
      </trkpt>
      <trkpt lat="42.80187" lon="0.39992">
        <ele>1687.723</ele>
        <time>2011-10-03T18:03:28Z</time>
      </trkpt>
      <trkpt lat="42.80181" lon="0.40001">
        <ele>1688.298</ele>
        <time>2011-10-03T18:03:29Z</time>
      </trkpt>
      <trkpt lat="42.80174" lon="0.40008">
        <ele>1688.548</ele>
        <time>2011-10-03T18:03:30Z</time>
      </trkpt>
      <trkpt lat="42.80166" lon="0.40009">
        <ele>1688.661</ele>
        <time>2011-10-03T18:03:31Z</time>
      </trkpt>
      <trkpt lat="42.80158" lon="0.40005">
        <ele>1688.352</ele>
        <time>2011-10-03T18:03:32Z</time>
      </trkpt>
      <trkpt lat="42.80157" lon="0.39995">
        <ele>1687.59</ele>
        <time>2011-10-03T18:03:33Z</time>
      </trkpt>
      <trkpt lat="42.80161" lon="0.39986">
        <ele>1686.807</ele>
        <time>2011-10-03T18:03:34Z</time>
      </trkpt>
      <trkpt lat="42.80169" lon="0.39983">
        <ele>1686.189</ele>
        <time>2011-10-03T18:03:35Z</time>
      </trkpt>
      <trkpt lat="42.80179" lon="0.39981">
        <ele>1686.641</ele>
        <time>2011-10-03T18:03:36Z</time>
      </trkpt>
      <trkpt lat="42.80187" lon="0.39979">
        <ele>1687.943</ele>
        <time>2011-10-03T18:03:37Z</time>
      </trkpt>
      <trkpt lat="42.80194" lon="0.39975">
        <ele>1689.218</ele>
        <time>2011-10-03T18:03:38Z</time>
      </trkpt>
      <trkpt lat="42.80198" lon="0.39969">
        <ele>1689.703</ele>
        <time>2011-10-03T18:03:39Z</time>
      </trkpt>
      <trkpt lat="42.80202" lon="0.39962">
        <ele>1689.821</ele>
        <time>2011-10-03T18:03:40Z</time>
      </trkpt>
      <trkpt lat="42.80206" lon="0.39955">
        <ele>1689.849</ele>
        <time>2011-10-03T18:03:41Z</time>
      </trkpt>
      <trkpt lat="42.8021" lon="0.39948">
        <ele>1689.791</ele>
        <time>2011-10-03T18:03:42Z</time>
      </trkpt>
      <trkpt lat="42.8021" lon="0.39938">
        <ele>1689.512</ele>
        <time>2011-10-03T18:03:43Z</time>
      </trkpt>
      <trkpt lat="42.8021" lon="0.39929">
        <ele>1688.965</ele>
        <time>2011-10-03T18:03:44Z</time>
      </trkpt>
      <trkpt lat="42.80206" lon="0.39919">
        <ele>1688.709</ele>
        <time>2011-10-03T18:03:45Z</time>
      </trkpt>
      <trkpt lat="42.802" lon="0.39909">
        <ele>1688.933</ele>
        <time>2011-10-03T18:03:46Z</time>
      </trkpt>
      <trkpt lat="42.80194" lon="0.39902">
        <ele>1689.709</ele>
        <time>2011-10-03T18:03:47Z</time>
      </trkpt>
      <trkpt lat="42.80189" lon="0.39895">
        <ele>1690.827</ele>
        <time>2011-10-03T18:03:48Z</time>
      </trkpt>
      <trkpt lat="42.80184" lon="0.3989">
        <ele>1691.235</ele>
        <time>2011-10-03T18:03:49Z</time>
      </trkpt>
      <trkpt lat="42.80176" lon="0.39877">
        <ele>1691.107</ele>
        <time>2011-10-03T18:03:51Z</time>
      </trkpt>
      <trkpt lat="42.80176" lon="0.39877">
        <ele>1690.742</ele>
        <time>2011-10-03T18:03:51Z</time>
      </trkpt>
      <trkpt lat="42.80166" lon="0.39862">
        <ele>1690.61</ele>
        <time>2011-10-03T18:03:53Z</time>
      </trkpt>
      <trkpt lat="42.8016" lon="0.39858">
        <ele>1690.698</ele>
        <time>2011-10-03T18:03:54Z</time>
      </trkpt>
      <trkpt lat="42.80152" lon="0.39855">
        <ele>1690.585</ele>
        <time>2011-10-03T18:03:55Z</time>
      </trkpt>
      <trkpt lat="42.80143" lon="0.39856">
        <ele>1690.176</ele>
        <time>2011-10-03T18:03:56Z</time>
      </trkpt>
      <trkpt lat="42.80134" lon="0.39859">
        <ele>1689.893</ele>
        <time>2011-10-03T18:03:57Z</time>
      </trkpt>
      <trkpt lat="42.80127" lon="0.39865">
        <ele>1689.829</ele>
        <time>2011-10-03T18:03:58Z</time>
      </trkpt>
      <trkpt lat="42.80121" lon="0.39873">
        <ele>1689.907</ele>
        <time>2011-10-03T18:03:59Z</time>
      </trkpt>
      <trkpt lat="42.80115" lon="0.39883">
        <ele>1689.701</ele>
        <time>2011-10-03T18:04:00Z</time>
      </trkpt>
      <trkpt lat="42.80111" lon="0.39894">
        <ele>1689.064</ele>
        <time>2011-10-03T18:04:01Z</time>
      </trkpt>
      <trkpt lat="42.80111" lon="0.39906">
        <ele>1688.46</ele>
        <time>2011-10-03T18:04:02Z</time>
      </trkpt>
      <trkpt lat="42.80111" lon="0.39919">
        <ele>1687.572</ele>
        <time>2011-10-03T18:04:03Z</time>
      </trkpt>
      <trkpt lat="42.80111" lon="0.39919">
        <ele>1686.773</ele>
        <time>2011-10-03T18:04:03Z</time>
      </trkpt>
      <trkpt lat="42.80122" lon="0.39939">
        <ele>1686.012</ele>
        <time>2011-10-03T18:04:05Z</time>
      </trkpt>
      <trkpt lat="42.8013" lon="0.39945">
        <ele>1685.602</ele>
        <time>2011-10-03T18:04:06Z</time>
      </trkpt>
      <trkpt lat="42.80137" lon="0.39949">
        <ele>1685.798</ele>
        <time>2011-10-03T18:04:07Z</time>
      </trkpt>
      <trkpt lat="42.80144" lon="0.3995">
        <ele>1686.31</ele>
        <time>2011-10-03T18:04:08Z</time>
      </trkpt>
      <trkpt lat="42.80152" lon="0.39942">
        <ele>1686.816</ele>
        <time>2011-10-03T18:04:09Z</time>
      </trkpt>
      <trkpt lat="42.80158" lon="0.39936">
        <ele>1687.006</ele>
        <time>2011-10-03T18:04:10Z</time>
      </trkpt>
      <trkpt lat="42.80164" lon="0.39929">
        <ele>1686.867</ele>
        <time>2011-10-03T18:04:11Z</time>
      </trkpt>
      <trkpt lat="42.80174" lon="0.39913">
        <ele>1686.285</ele>
        <time>2011-10-03T18:04:13Z</time>
      </trkpt>
      <trkpt lat="42.80178" lon="0.39903">
        <ele>1685.405</ele>
        <time>2011-10-03T18:04:14Z</time>
      </trkpt>
      <trkpt lat="42.80181" lon="0.39892">
        <ele>1684.571</ele>
        <time>2011-10-03T18:04:15Z</time>
      </trkpt>
      <trkpt lat="42.80183" lon="0.39881">
        <ele>1684.096</ele>
        <time>2011-10-03T18:04:16Z</time>
      </trkpt>
      <trkpt lat="42.80183" lon="0.39881">
        <ele>1684.173</ele>
        <time>2011-10-03T18:04:16Z</time>
      </trkpt>
      <trkpt lat="42.80186" lon="0.39862">
        <ele>1684.532</ele>
        <time>2011-10-03T18:04:18Z</time>
      </trkpt>
      <trkpt lat="42.80187" lon="0.39853">
        <ele>1684.794</ele>
        <time>2011-10-03T18:04:19Z</time>
      </trkpt>
      <trkpt lat="42.80187" lon="0.39844">
        <ele>1684.634</ele>
        <time>2011-10-03T18:04:20Z</time>
      </trkpt>
      <trkpt lat="42.80186" lon="0.39834">
        <ele>1684.163</ele>
        <time>2011-10-03T18:04:21Z</time>
      </trkpt>
      <trkpt lat="42.80183" lon="0.39824">
        <ele>1683.801</ele>
        <time>2011-10-03T18:04:22Z</time>
      </trkpt>
      <trkpt lat="42.80179" lon="0.39816">
        <ele>1683.711</ele>
        <time>2011-10-03T18:04:23Z</time>
      </trkpt>
      <trkpt lat="42.8017" lon="0.39811">
        <ele>1683.806</ele>
        <time>2011-10-03T18:04:24Z</time>
      </trkpt>
      <trkpt lat="42.80161" lon="0.39809">
        <ele>1684.068</ele>
        <time>2011-10-03T18:04:25Z</time>
      </trkpt>
      <trkpt lat="42.80153" lon="0.3981">
        <ele>1684.558</ele>
        <time>2011-10-03T18:04:26Z</time>
      </trkpt>
      <trkpt lat="42.80145" lon="0.39813">
        <ele>1684.689</ele>
        <time>2011-10-03T18:04:27Z</time>
      </trkpt>
      <trkpt lat="42.80137" lon="0.39818">
        <ele>1684.237</ele>
        <time>2011-10-03T18:04:28Z</time>
      </trkpt>
      <trkpt lat="42.80137" lon="0.39818">
        <ele>1683.592</ele>
        <time>2011-10-03T18:04:28Z</time>
      </trkpt>
      <trkpt lat="42.80127" lon="0.39838">
        <ele>1682.306</ele>
        <time>2011-10-03T18:04:30Z</time>
      </trkpt>
      <trkpt lat="42.80126" lon="0.3985">
        <ele>1681.152</ele>
        <time>2011-10-03T18:04:31Z</time>
      </trkpt>
      <trkpt lat="42.80127" lon="0.39861">
        <ele>1680.369</ele>
        <time>2011-10-03T18:04:32Z</time>
      </trkpt>
      <trkpt lat="42.80135" lon="0.39881">
        <ele>1679.936</ele>
        <time>2011-10-03T18:04:34Z</time>
      </trkpt>
      <trkpt lat="42.80142" lon="0.39887">
        <ele>1679.809</ele>
        <time>2011-10-03T18:04:35Z</time>
      </trkpt>
      <trkpt lat="42.80149" lon="0.39891">
        <ele>1679.749</ele>
        <time>2011-10-03T18:04:36Z</time>
      </trkpt>
      <trkpt lat="42.80156" lon="0.39892">
        <ele>1679.547</ele>
        <time>2011-10-03T18:04:37Z</time>
      </trkpt>
      <trkpt lat="42.80164" lon="0.39889">
        <ele>1679.194</ele>
        <time>2011-10-03T18:04:38Z</time>
      </trkpt>
      <trkpt lat="42.80172" lon="0.39884">
        <ele>1678.714</ele>
        <time>2011-10-03T18:04:39Z</time>
      </trkpt>
      <trkpt lat="42.80178" lon="0.39875">
        <ele>1678.07</ele>
        <time>2011-10-03T18:04:40Z</time>
      </trkpt>
      <trkpt lat="42.80181" lon="0.39865">
        <ele>1677.743</ele>
        <time>2011-10-03T18:04:41Z</time>
      </trkpt>
      <trkpt lat="42.80182" lon="0.39855">
        <ele>1677.785</ele>
        <time>2011-10-03T18:04:42Z</time>
      </trkpt>
      <trkpt lat="42.8018" lon="0.39846">
        <ele>1677.929</ele>
        <time>2011-10-03T18:04:43Z</time>
      </trkpt>
      <trkpt lat="42.80176" lon="0.39838">
        <ele>1677.945</ele>
        <time>2011-10-03T18:04:44Z</time>
      </trkpt>
      <trkpt lat="42.80171" lon="0.3983">
        <ele>1677.469</ele>
        <time>2011-10-03T18:04:45Z</time>
      </trkpt>
      <trkpt lat="42.80166" lon="0.39821">
        <ele>1676.707</ele>
        <time>2011-10-03T18:04:46Z</time>
      </trkpt>
      <trkpt lat="42.80161" lon="0.39812">
        <ele>1675.896</ele>
        <time>2011-10-03T18:04:47Z</time>
      </trkpt>
      <trkpt lat="42.80155" lon="0.39803">
        <ele>1675.713</ele>
        <time>2011-10-03T18:04:48Z</time>
      </trkpt>
      <trkpt lat="42.80148" lon="0.39794">
        <ele>1676.085</ele>
        <time>2011-10-03T18:04:49Z</time>
      </trkpt>
      <trkpt lat="42.80142" lon="0.39786">
        <ele>1676.609</ele>
        <time>2011-10-03T18:04:50Z</time>
      </trkpt>
      <trkpt lat="42.80137" lon="0.39778">
        <ele>1676.774</ele>
        <time>2011-10-03T18:04:51Z</time>
      </trkpt>
      <trkpt lat="42.80132" lon="0.39769">
        <ele>1676.593</ele>
        <time>2011-10-03T18:04:52Z</time>
      </trkpt>
      <trkpt lat="42.80128" lon="0.39759">
        <ele>1676.311</ele>
        <time>2011-10-03T18:04:53Z</time>
      </trkpt>
      <trkpt lat="42.80117" lon="0.39742">
        <ele>1676.163</ele>
        <time>2011-10-03T18:04:55Z</time>
      </trkpt>
      <trkpt lat="42.80113" lon="0.39734">
        <ele>1675.761</ele>
        <time>2011-10-03T18:04:56Z</time>
      </trkpt>
      <trkpt lat="42.80113" lon="0.39734">
        <ele>1674.865</ele>
        <time>2011-10-03T18:04:56Z</time>
      </trkpt>
      <trkpt lat="42.80112" lon="0.39714">
        <ele>1673.404</ele>
        <time>2011-10-03T18:04:58Z</time>
      </trkpt>
      <trkpt lat="42.80115" lon="0.39705">
        <ele>1671.436</ele>
        <time>2011-10-03T18:04:59Z</time>
      </trkpt>
      <trkpt lat="42.80119" lon="0.39697">
        <ele>1669.676</ele>
        <time>2011-10-03T18:05:00Z</time>
      </trkpt>
      <trkpt lat="42.80126" lon="0.39693">
        <ele>1667.93</ele>
        <time>2011-10-03T18:05:01Z</time>
      </trkpt>
      <trkpt lat="42.80131" lon="0.39694">
        <ele>1666.204</ele>
        <time>2011-10-03T18:05:02Z</time>
      </trkpt>
      <trkpt lat="42.80137" lon="0.39705">
        <ele>1664.164</ele>
        <time>2011-10-03T18:05:03Z</time>
      </trkpt>
      <trkpt lat="42.80138" lon="0.39721">
        <ele>1662.225</ele>
        <time>2011-10-03T18:05:04Z</time>
      </trkpt>
      <trkpt lat="42.80134" lon="0.39736">
        <ele>1661.342</ele>
        <time>2011-10-03T18:05:05Z</time>
      </trkpt>
      <trkpt lat="42.80129" lon="0.39751">
        <ele>1661.715</ele>
        <time>2011-10-03T18:05:06Z</time>
      </trkpt>
      <trkpt lat="42.80125" lon="0.39765">
        <ele>1662.38</ele>
        <time>2011-10-03T18:05:07Z</time>
      </trkpt>
      <trkpt lat="42.80125" lon="0.39774">
        <ele>1662.552</ele>
        <time>2011-10-03T18:05:08Z</time>
      </trkpt>
      <trkpt lat="42.80125" lon="0.39774">
        <ele>1662.151</ele>
        <time>2011-10-03T18:05:08Z</time>
      </trkpt>
      <trkpt lat="42.80134" lon="0.39803">
        <ele>1661.513</ele>
        <time>2011-10-03T18:05:11Z</time>
      </trkpt>
      <trkpt lat="42.80134" lon="0.39803">
        <ele>1660.702</ele>
        <time>2011-10-03T18:05:11Z</time>
      </trkpt>
      <trkpt lat="42.80148" lon="0.39807">
        <ele>1659.793</ele>
        <time>2011-10-03T18:05:13Z</time>
      </trkpt>
      <trkpt lat="42.80155" lon="0.398">
        <ele>1658.605</ele>
        <time>2011-10-03T18:05:14Z</time>
      </trkpt>
      <trkpt lat="42.80159" lon="0.39791">
        <ele>1658.075</ele>
        <time>2011-10-03T18:05:15Z</time>
      </trkpt>
      <trkpt lat="42.80162" lon="0.39782">
        <ele>1658.178</ele>
        <time>2011-10-03T18:05:16Z</time>
      </trkpt>
      <trkpt lat="42.80164" lon="0.39773">
        <ele>1658.517</ele>
        <time>2011-10-03T18:05:17Z</time>
      </trkpt>
      <trkpt lat="42.80163" lon="0.39763">
        <ele>1658.395</ele>
        <time>2011-10-03T18:05:18Z</time>
      </trkpt>
      <trkpt lat="42.80161" lon="0.39753">
        <ele>1657.495</ele>
        <time>2011-10-03T18:05:19Z</time>
      </trkpt>
      <trkpt lat="42.80158" lon="0.39742">
        <ele>1655.797</ele>
        <time>2011-10-03T18:05:20Z</time>
      </trkpt>
      <trkpt lat="42.80153" lon="0.39732">
        <ele>1653.998</ele>
        <time>2011-10-03T18:05:21Z</time>
      </trkpt>
      <trkpt lat="42.80145" lon="0.39726">
        <ele>1652.938</ele>
        <time>2011-10-03T18:05:22Z</time>
      </trkpt>
      <trkpt lat="42.80136" lon="0.39722">
        <ele>1652.558</ele>
        <time>2011-10-03T18:05:23Z</time>
      </trkpt>
      <trkpt lat="42.80128" lon="0.39719">
        <ele>1652.836</ele>
        <time>2011-10-03T18:05:24Z</time>
      </trkpt>
      <trkpt lat="42.80114" lon="0.39711">
        <ele>1652.858</ele>
        <time>2011-10-03T18:05:26Z</time>
      </trkpt>
      <trkpt lat="42.80114" lon="0.39711">
        <ele>1652.068</ele>
        <time>2011-10-03T18:05:26Z</time>
      </trkpt>
      <trkpt lat="42.80098" lon="0.39705">
        <ele>1650.369</ele>
        <time>2011-10-03T18:05:28Z</time>
      </trkpt>
      <trkpt lat="42.80089" lon="0.39702">
        <ele>1648.232</ele>
        <time>2011-10-03T18:05:29Z</time>
      </trkpt>
      <trkpt lat="42.8008" lon="0.39701">
        <ele>1647.01</ele>
        <time>2011-10-03T18:05:30Z</time>
      </trkpt>
      <trkpt lat="42.80072" lon="0.39701">
        <ele>1646.118</ele>
        <time>2011-10-03T18:05:31Z</time>
      </trkpt>
      <trkpt lat="42.80065" lon="0.39703">
        <ele>1644.653</ele>
        <time>2011-10-03T18:05:32Z</time>
      </trkpt>
      <trkpt lat="42.80057" lon="0.39711">
        <ele>1642.574</ele>
        <time>2011-10-03T18:05:33Z</time>
      </trkpt>
      <trkpt lat="42.80051" lon="0.39721">
        <ele>1640.049</ele>
        <time>2011-10-03T18:05:34Z</time>
      </trkpt>
      <trkpt lat="42.80049" lon="0.39734">
        <ele>1638.286</ele>
        <time>2011-10-03T18:05:35Z</time>
      </trkpt>
      <trkpt lat="42.8005" lon="0.39746">
        <ele>1636.843</ele>
        <time>2011-10-03T18:05:36Z</time>
      </trkpt>
      <trkpt lat="42.80055" lon="0.39757">
        <ele>1635.648</ele>
        <time>2011-10-03T18:05:37Z</time>
      </trkpt>
      <trkpt lat="42.80055" lon="0.39757">
        <ele>1634.674</ele>
        <time>2011-10-03T18:05:37Z</time>
      </trkpt>
      <trkpt lat="42.80068" lon="0.39771">
        <ele>1633.708</ele>
        <time>2011-10-03T18:05:39Z</time>
      </trkpt>
      <trkpt lat="42.80076" lon="0.39774">
        <ele>1632.774</ele>
        <time>2011-10-03T18:05:40Z</time>
      </trkpt>
      <trkpt lat="42.80083" lon="0.39776">
        <ele>1631.755</ele>
        <time>2011-10-03T18:05:41Z</time>
      </trkpt>
      <trkpt lat="42.80091" lon="0.39774">
        <ele>1630.244</ele>
        <time>2011-10-03T18:05:42Z</time>
      </trkpt>
      <trkpt lat="42.80098" lon="0.39767">
        <ele>1628.315</ele>
        <time>2011-10-03T18:05:43Z</time>
      </trkpt>
      <trkpt lat="42.80098" lon="0.39767">
        <ele>1626.528</ele>
        <time>2011-10-03T18:05:43Z</time>
      </trkpt>
      <trkpt lat="42.80106" lon="0.39737">
        <ele>1624.933</ele>
        <time>2011-10-03T18:05:46Z</time>
      </trkpt>
      <trkpt lat="42.80106" lon="0.39737">
        <ele>1623.463</ele>
        <time>2011-10-03T18:05:46Z</time>
      </trkpt>
      <trkpt lat="42.80095" lon="0.39721">
        <ele>1621.932</ele>
        <time>2011-10-03T18:05:48Z</time>
      </trkpt>
      <trkpt lat="42.80089" lon="0.39714">
        <ele>1620.418</ele>
        <time>2011-10-03T18:05:49Z</time>
      </trkpt>
      <trkpt lat="42.80082" lon="0.39707">
        <ele>1619.323</ele>
        <time>2011-10-03T18:05:50Z</time>
      </trkpt>
      <trkpt lat="42.80076" lon="0.397">
        <ele>1617.937</ele>
        <time>2011-10-03T18:05:51Z</time>
      </trkpt>
      <trkpt lat="42.80069" lon="0.39694">
        <ele>1616.907</ele>
        <time>2011-10-03T18:05:52Z</time>
      </trkpt>
      <trkpt lat="42.80062" lon="0.39689">
        <ele>1615.473</ele>
        <time>2011-10-03T18:05:53Z</time>
      </trkpt>
      <trkpt lat="42.80055" lon="0.39683">
        <ele>1614.652</ele>
        <time>2011-10-03T18:05:54Z</time>
      </trkpt>
      <trkpt lat="42.80049" lon="0.39677">
        <ele>1613.769</ele>
        <time>2011-10-03T18:05:55Z</time>
      </trkpt>
      <trkpt lat="42.80042" lon="0.39673">
        <ele>1612.924</ele>
        <time>2011-10-03T18:05:56Z</time>
      </trkpt>
      <trkpt lat="42.80036" lon="0.39671">
        <ele>1611.487</ele>
        <time>2011-10-03T18:05:57Z</time>
      </trkpt>
      <trkpt lat="42.80029" lon="0.39671">
        <ele>1609.42</ele>
        <time>2011-10-03T18:05:58Z</time>
      </trkpt>
      <trkpt lat="42.8002" lon="0.39679">
        <ele>1606.716</ele>
        <time>2011-10-03T18:05:59Z</time>
      </trkpt>
      <trkpt lat="42.80013" lon="0.39685">
        <ele>1604.331</ele>
        <time>2011-10-03T18:06:00Z</time>
      </trkpt>
      <trkpt lat="42.80007" lon="0.39694">
        <ele>1602.428</ele>
        <time>2011-10-03T18:06:01Z</time>
      </trkpt>
      <trkpt lat="42.80004" lon="0.39707">
        <ele>1600.351</ele>
        <time>2011-10-03T18:06:02Z</time>
      </trkpt>
      <trkpt lat="42.80002" lon="0.3972">
        <ele>1598.122</ele>
        <time>2011-10-03T18:06:03Z</time>
      </trkpt>
      <trkpt lat="42.80001" lon="0.39734">
        <ele>1596.34</ele>
        <time>2011-10-03T18:06:04Z</time>
      </trkpt>
      <trkpt lat="42.80003" lon="0.39748">
        <ele>1595.346</ele>
        <time>2011-10-03T18:06:05Z</time>
      </trkpt>
      <trkpt lat="42.80003" lon="0.39748">
        <ele>1594.432</ele>
        <time>2011-10-03T18:06:05Z</time>
      </trkpt>
      <trkpt lat="42.80023" lon="0.39773">
        <ele>1593.278</ele>
        <time>2011-10-03T18:06:08Z</time>
      </trkpt>
      <trkpt lat="42.80032" lon="0.39775">
        <ele>1592.25</ele>
        <time>2011-10-03T18:06:09Z</time>
      </trkpt>
      <trkpt lat="42.80041" lon="0.39775">
        <ele>1591.376</ele>
        <time>2011-10-03T18:06:10Z</time>
      </trkpt>
      <trkpt lat="42.80048" lon="0.39773">
        <ele>1590.847</ele>
        <time>2011-10-03T18:06:11Z</time>
      </trkpt>
      <trkpt lat="42.80055" lon="0.39765">
        <ele>1589.932</ele>
        <time>2011-10-03T18:06:12Z</time>
      </trkpt>
      <trkpt lat="42.80063" lon="0.39759">
        <ele>1588.964</ele>
        <time>2011-10-03T18:06:13Z</time>
      </trkpt>
      <trkpt lat="42.8007" lon="0.39752">
        <ele>1588.184</ele>
        <time>2011-10-03T18:06:14Z</time>
      </trkpt>
      <trkpt lat="42.80078" lon="0.39747">
        <ele>1587.929</ele>
        <time>2011-10-03T18:06:15Z</time>
      </trkpt>
      <trkpt lat="42.80084" lon="0.39744">
        <ele>1588.025</ele>
        <time>2011-10-03T18:06:16Z</time>
      </trkpt>
      <trkpt lat="42.80091" lon="0.3974">
        <ele>1587.914</ele>
        <time>2011-10-03T18:06:17Z</time>
      </trkpt>
      <trkpt lat="42.80098" lon="0.39736">
        <ele>1587.265</ele>
        <time>2011-10-03T18:06:18Z</time>
      </trkpt>
      <trkpt lat="42.80105" lon="0.39733">
        <ele>1586.532</ele>
        <time>2011-10-03T18:06:19Z</time>
      </trkpt>
      <trkpt lat="42.80113" lon="0.3973">
        <ele>1586.104</ele>
        <time>2011-10-03T18:06:20Z</time>
      </trkpt>
      <trkpt lat="42.80113" lon="0.3973">
        <ele>1586.043</ele>
        <time>2011-10-03T18:06:20Z</time>
      </trkpt>
      <trkpt lat="42.80128" lon="0.39725">
        <ele>1586.218</ele>
        <time>2011-10-03T18:06:22Z</time>
      </trkpt>
      <trkpt lat="42.80142" lon="0.39716">
        <ele>1586.2</ele>
        <time>2011-10-03T18:06:24Z</time>
      </trkpt>
      <trkpt lat="42.80149" lon="0.39712">
        <ele>1585.659</ele>
        <time>2011-10-03T18:06:25Z</time>
      </trkpt>
      <trkpt lat="42.80158" lon="0.39709">
        <ele>1585.07</ele>
        <time>2011-10-03T18:06:26Z</time>
      </trkpt>
      <trkpt lat="42.80158" lon="0.39709">
        <ele>1584.785</ele>
        <time>2011-10-03T18:06:26Z</time>
      </trkpt>
      <trkpt lat="42.80173" lon="0.39703">
        <ele>1585.198</ele>
        <time>2011-10-03T18:06:28Z</time>
      </trkpt>
      <trkpt lat="42.8018" lon="0.39699">
        <ele>1585.624</ele>
        <time>2011-10-03T18:06:29Z</time>
      </trkpt>
      <trkpt lat="42.80187" lon="0.39696">
        <ele>1585.535</ele>
        <time>2011-10-03T18:06:30Z</time>
      </trkpt>
      <trkpt lat="42.80194" lon="0.39694">
        <ele>1584.613</ele>
        <time>2011-10-03T18:06:31Z</time>
      </trkpt>
      <trkpt lat="42.80202" lon="0.39691">
        <ele>1583.396</ele>
        <time>2011-10-03T18:06:32Z</time>
      </trkpt>
      <trkpt lat="42.80209" lon="0.39688">
        <ele>1582.534</ele>
        <time>2011-10-03T18:06:33Z</time>
      </trkpt>
      <trkpt lat="42.80216" lon="0.39684">
        <ele>1582.098</ele>
        <time>2011-10-03T18:06:34Z</time>
      </trkpt>
      <trkpt lat="42.80223" lon="0.3968">
        <ele>1581.95</ele>
        <time>2011-10-03T18:06:35Z</time>
      </trkpt>
      <trkpt lat="42.80229" lon="0.39676">
        <ele>1581.732</ele>
        <time>2011-10-03T18:06:36Z</time>
      </trkpt>
      <trkpt lat="42.80234" lon="0.39671">
        <ele>1581.395</ele>
        <time>2011-10-03T18:06:37Z</time>
      </trkpt>
      <trkpt lat="42.80239" lon="0.39664">
        <ele>1580.631</ele>
        <time>2011-10-03T18:06:38Z</time>
      </trkpt>
      <trkpt lat="42.80239" lon="0.39654">
        <ele>1579.76</ele>
        <time>2011-10-03T18:06:39Z</time>
      </trkpt>
      <trkpt lat="42.80238" lon="0.39644">
        <ele>1578.427</ele>
        <time>2011-10-03T18:06:40Z</time>
      </trkpt>
      <trkpt lat="42.80234" lon="0.39636">
        <ele>1577.186</ele>
        <time>2011-10-03T18:06:41Z</time>
      </trkpt>
      <trkpt lat="42.80226" lon="0.3963">
        <ele>1576.29</ele>
        <time>2011-10-03T18:06:42Z</time>
      </trkpt>
      <trkpt lat="42.80218" lon="0.39628">
        <ele>1575.855</ele>
        <time>2011-10-03T18:06:43Z</time>
      </trkpt>
      <trkpt lat="42.80202" lon="0.39637">
        <ele>1575.576</ele>
        <time>2011-10-03T18:06:45Z</time>
      </trkpt>
      <trkpt lat="42.80195" lon="0.39646">
        <ele>1575.177</ele>
        <time>2011-10-03T18:06:46Z</time>
      </trkpt>
      <trkpt lat="42.80195" lon="0.39646">
        <ele>1574.617</ele>
        <time>2011-10-03T18:06:46Z</time>
      </trkpt>
      <trkpt lat="42.80185" lon="0.39669">
        <ele>1573.746</ele>
        <time>2011-10-03T18:06:48Z</time>
      </trkpt>
      <trkpt lat="42.80181" lon="0.39682">
        <ele>1572.837</ele>
        <time>2011-10-03T18:06:49Z</time>
      </trkpt>
      <trkpt lat="42.8018" lon="0.39696">
        <ele>1572.119</ele>
        <time>2011-10-03T18:06:50Z</time>
      </trkpt>
      <trkpt lat="42.80181" lon="0.39709">
        <ele>1570.827</ele>
        <time>2011-10-03T18:06:51Z</time>
      </trkpt>
      <trkpt lat="42.80186" lon="0.39722">
        <ele>1569.341</ele>
        <time>2011-10-03T18:06:52Z</time>
      </trkpt>
      <trkpt lat="42.80192" lon="0.39732">
        <ele>1567.757</ele>
        <time>2011-10-03T18:06:53Z</time>
      </trkpt>
      <trkpt lat="42.802" lon="0.3974">
        <ele>1566.718</ele>
        <time>2011-10-03T18:06:54Z</time>
      </trkpt>
      <trkpt lat="42.80207" lon="0.39745">
        <ele>1566.073</ele>
        <time>2011-10-03T18:06:55Z</time>
      </trkpt>
      <trkpt lat="42.80214" lon="0.39746">
        <ele>1565.55</ele>
        <time>2011-10-03T18:06:56Z</time>
      </trkpt>
      <trkpt lat="42.80222" lon="0.39741">
        <ele>1564.915</ele>
        <time>2011-10-03T18:06:57Z</time>
      </trkpt>
      <trkpt lat="42.80229" lon="0.39735">
        <ele>1564.023</ele>
        <time>2011-10-03T18:06:58Z</time>
      </trkpt>
      <trkpt lat="42.80234" lon="0.39728">
        <ele>1563.208</ele>
        <time>2011-10-03T18:06:59Z</time>
      </trkpt>
      <trkpt lat="42.80237" lon="0.39719">
        <ele>1562.671</ele>
        <time>2011-10-03T18:07:00Z</time>
      </trkpt>
      <trkpt lat="42.80236" lon="0.39709">
        <ele>1562.656</ele>
        <time>2011-10-03T18:07:01Z</time>
      </trkpt>
      <trkpt lat="42.8023" lon="0.397">
        <ele>1562.851</ele>
        <time>2011-10-03T18:07:02Z</time>
      </trkpt>
      <trkpt lat="42.80223" lon="0.39694">
        <ele>1562.93</ele>
        <time>2011-10-03T18:07:03Z</time>
      </trkpt>
      <trkpt lat="42.80215" lon="0.39691">
        <ele>1562.777</ele>
        <time>2011-10-03T18:07:04Z</time>
      </trkpt>
      <trkpt lat="42.80207" lon="0.3969">
        <ele>1562.358</ele>
        <time>2011-10-03T18:07:05Z</time>
      </trkpt>
      <trkpt lat="42.80198" lon="0.39692">
        <ele>1561.894</ele>
        <time>2011-10-03T18:07:06Z</time>
      </trkpt>
      <trkpt lat="42.80181" lon="0.39697">
        <ele>1561.356</ele>
        <time>2011-10-03T18:07:08Z</time>
      </trkpt>
      <trkpt lat="42.80172" lon="0.397">
        <ele>1560.804</ele>
        <time>2011-10-03T18:07:09Z</time>
      </trkpt>
      <trkpt lat="42.80164" lon="0.39703">
        <ele>1560.079</ele>
        <time>2011-10-03T18:07:10Z</time>
      </trkpt>
      <trkpt lat="42.80155" lon="0.39706">
        <ele>1559.448</ele>
        <time>2011-10-03T18:07:11Z</time>
      </trkpt>
      <trkpt lat="42.80146" lon="0.3971">
        <ele>1559.088</ele>
        <time>2011-10-03T18:07:12Z</time>
      </trkpt>
      <trkpt lat="42.80138" lon="0.39714">
        <ele>1559.094</ele>
        <time>2011-10-03T18:07:13Z</time>
      </trkpt>
      <trkpt lat="42.8013" lon="0.39717">
        <ele>1559.077</ele>
        <time>2011-10-03T18:07:14Z</time>
      </trkpt>
      <trkpt lat="42.80123" lon="0.39718">
        <ele>1558.77</ele>
        <time>2011-10-03T18:07:15Z</time>
      </trkpt>
      <trkpt lat="42.80115" lon="0.3972">
        <ele>1558.122</ele>
        <time>2011-10-03T18:07:16Z</time>
      </trkpt>
      <trkpt lat="42.80107" lon="0.39721">
        <ele>1557.968</ele>
        <time>2011-10-03T18:07:17Z</time>
      </trkpt>
      <trkpt lat="42.80099" lon="0.39724">
        <ele>1558.211</ele>
        <time>2011-10-03T18:07:18Z</time>
      </trkpt>
      <trkpt lat="42.80093" lon="0.39729">
        <ele>1558.549</ele>
        <time>2011-10-03T18:07:19Z</time>
      </trkpt>
      <trkpt lat="42.80088" lon="0.39737">
        <ele>1558.31</ele>
        <time>2011-10-03T18:07:20Z</time>
      </trkpt>
      <trkpt lat="42.80085" lon="0.39749">
        <ele>1557.15</ele>
        <time>2011-10-03T18:07:21Z</time>
      </trkpt>
      <trkpt lat="42.80084" lon="0.3976">
        <ele>1556.023</ele>
        <time>2011-10-03T18:07:22Z</time>
      </trkpt>
      <trkpt lat="42.80086" lon="0.39772">
        <ele>1555.111</ele>
        <time>2011-10-03T18:07:23Z</time>
      </trkpt>
      <trkpt lat="42.80091" lon="0.39782">
        <ele>1554.458</ele>
        <time>2011-10-03T18:07:24Z</time>
      </trkpt>
      <trkpt lat="42.80099" lon="0.39788">
        <ele>1553.703</ele>
        <time>2011-10-03T18:07:25Z</time>
      </trkpt>
      <trkpt lat="42.80107" lon="0.39792">
        <ele>1553.166</ele>
        <time>2011-10-03T18:07:26Z</time>
      </trkpt>
      <trkpt lat="42.80115" lon="0.39793">
        <ele>1553.108</ele>
        <time>2011-10-03T18:07:27Z</time>
      </trkpt>
      <trkpt lat="42.80122" lon="0.39792">
        <ele>1553.281</ele>
        <time>2011-10-03T18:07:28Z</time>
      </trkpt>
      <trkpt lat="42.80133" lon="0.3978">
        <ele>1552.98</ele>
        <time>2011-10-03T18:07:30Z</time>
      </trkpt>
      <trkpt lat="42.80135" lon="0.39771">
        <ele>1551.921</ele>
        <time>2011-10-03T18:07:31Z</time>
      </trkpt>
      <trkpt lat="42.80135" lon="0.39771">
        <ele>1550.507</ele>
        <time>2011-10-03T18:07:31Z</time>
      </trkpt>
      <trkpt lat="42.80133" lon="0.39752">
        <ele>1549.205</ele>
        <time>2011-10-03T18:07:33Z</time>
      </trkpt>
      <trkpt lat="42.80128" lon="0.39744">
        <ele>1548.145</ele>
        <time>2011-10-03T18:07:34Z</time>
      </trkpt>
      <trkpt lat="42.80122" lon="0.39738">
        <ele>1547.656</ele>
        <time>2011-10-03T18:07:35Z</time>
      </trkpt>
      <trkpt lat="42.80116" lon="0.39732">
        <ele>1547.757</ele>
        <time>2011-10-03T18:07:36Z</time>
      </trkpt>
      <trkpt lat="42.80111" lon="0.39726">
        <ele>1547.963</ele>
        <time>2011-10-03T18:07:37Z</time>
      </trkpt>
      <trkpt lat="42.80106" lon="0.39721">
        <ele>1547.661</ele>
        <time>2011-10-03T18:07:38Z</time>
      </trkpt>
      <trkpt lat="42.80101" lon="0.39716">
        <ele>1547.03</ele>
        <time>2011-10-03T18:07:39Z</time>
      </trkpt>
      <trkpt lat="42.80093" lon="0.39714">
        <ele>1546.3</ele>
        <time>2011-10-03T18:07:40Z</time>
      </trkpt>
      <trkpt lat="42.80086" lon="0.39715">
        <ele>1545.606</ele>
        <time>2011-10-03T18:07:41Z</time>
      </trkpt>
      <trkpt lat="42.8008" lon="0.39723">
        <ele>1544.959</ele>
        <time>2011-10-03T18:07:42Z</time>
      </trkpt>
      <trkpt lat="42.8008" lon="0.39723">
        <ele>1543.487</ele>
        <time>2011-10-03T18:07:42Z</time>
      </trkpt>
      <trkpt lat="42.80078" lon="0.39749">
        <ele>1541.931</ele>
        <time>2011-10-03T18:07:44Z</time>
      </trkpt>
      <trkpt lat="42.80078" lon="0.39749">
        <ele>1541.192</ele>
        <time>2011-10-03T18:07:44Z</time>
      </trkpt>
      <trkpt lat="42.80091" lon="0.3977">
        <ele>1540.676</ele>
        <time>2011-10-03T18:07:46Z</time>
      </trkpt>
      <trkpt lat="42.80098" lon="0.39776">
        <ele>1540.374</ele>
        <time>2011-10-03T18:07:47Z</time>
      </trkpt>
      <trkpt lat="42.80107" lon="0.39777">
        <ele>1540.403</ele>
        <time>2011-10-03T18:07:48Z</time>
      </trkpt>
      <trkpt lat="42.80115" lon="0.39776">
        <ele>1540.611</ele>
        <time>2011-10-03T18:07:49Z</time>
      </trkpt>
      <trkpt lat="42.80123" lon="0.39773">
        <ele>1540.819</ele>
        <time>2011-10-03T18:07:50Z</time>
      </trkpt>
      <trkpt lat="42.8013" lon="0.3977">
        <ele>1540.64</ele>
        <time>2011-10-03T18:07:51Z</time>
      </trkpt>
      <trkpt lat="42.80144" lon="0.39761">
        <ele>1540.005</ele>
        <time>2011-10-03T18:07:53Z</time>
      </trkpt>
      <trkpt lat="42.80152" lon="0.39757">
        <ele>1539.286</ele>
        <time>2011-10-03T18:07:54Z</time>
      </trkpt>
      <trkpt lat="42.80159" lon="0.39753">
        <ele>1538.802</ele>
        <time>2011-10-03T18:07:55Z</time>
      </trkpt>
      <trkpt lat="42.80167" lon="0.3975">
        <ele>1538.362</ele>
        <time>2011-10-03T18:07:56Z</time>
      </trkpt>
      <trkpt lat="42.80175" lon="0.39748">
        <ele>1537.717</ele>
        <time>2011-10-03T18:07:57Z</time>
      </trkpt>
      <trkpt lat="42.80183" lon="0.39745">
        <ele>1536.95</ele>
        <time>2011-10-03T18:07:58Z</time>
      </trkpt>
      <trkpt lat="42.80191" lon="0.3974">
        <ele>1536.107</ele>
        <time>2011-10-03T18:07:59Z</time>
      </trkpt>
      <trkpt lat="42.80198" lon="0.39735">
        <ele>1535.446</ele>
        <time>2011-10-03T18:08:00Z</time>
      </trkpt>
      <trkpt lat="42.80206" lon="0.39731">
        <ele>1535.111</ele>
        <time>2011-10-03T18:08:01Z</time>
      </trkpt>
      <trkpt lat="42.80214" lon="0.39728">
        <ele>1534.722</ele>
        <time>2011-10-03T18:08:02Z</time>
      </trkpt>
      <trkpt lat="42.80221" lon="0.39727">
        <ele>1534.359</ele>
        <time>2011-10-03T18:08:03Z</time>
      </trkpt>
      <trkpt lat="42.80229" lon="0.39726">
        <ele>1533.753</ele>
        <time>2011-10-03T18:08:04Z</time>
      </trkpt>
      <trkpt lat="42.80237" lon="0.39725">
        <ele>1533.376</ele>
        <time>2011-10-03T18:08:05Z</time>
      </trkpt>
      <trkpt lat="42.80246" lon="0.39727">
        <ele>1533.071</ele>
        <time>2011-10-03T18:08:06Z</time>
      </trkpt>
      <trkpt lat="42.80254" lon="0.3973">
        <ele>1533.073</ele>
        <time>2011-10-03T18:08:07Z</time>
      </trkpt>
      <trkpt lat="42.80262" lon="0.39735">
        <ele>1533.054</ele>
        <time>2011-10-03T18:08:08Z</time>
      </trkpt>
      <trkpt lat="42.80265" lon="0.39743">
        <ele>1532.884</ele>
        <time>2011-10-03T18:08:09Z</time>
      </trkpt>
      <trkpt lat="42.80267" lon="0.39755">
        <ele>1532.592</ele>
        <time>2011-10-03T18:08:10Z</time>
      </trkpt>
      <trkpt lat="42.80266" lon="0.39767">
        <ele>1532.302</ele>
        <time>2011-10-03T18:08:11Z</time>
      </trkpt>
      <trkpt lat="42.80255" lon="0.39787">
        <ele>1531.786</ele>
        <time>2011-10-03T18:08:13Z</time>
      </trkpt>
      <trkpt lat="42.80247" lon="0.39791">
        <ele>1530.729</ele>
        <time>2011-10-03T18:08:14Z</time>
      </trkpt>
      <trkpt lat="42.80238" lon="0.39792">
        <ele>1529.423</ele>
        <time>2011-10-03T18:08:15Z</time>
      </trkpt>
      <trkpt lat="42.8023" lon="0.39791">
        <ele>1528.593</ele>
        <time>2011-10-03T18:08:16Z</time>
      </trkpt>
      <trkpt lat="42.80222" lon="0.39789">
        <ele>1528.476</ele>
        <time>2011-10-03T18:08:17Z</time>
      </trkpt>
      <trkpt lat="42.80216" lon="0.39787">
        <ele>1528.617</ele>
        <time>2011-10-03T18:08:18Z</time>
      </trkpt>
      <trkpt lat="42.8021" lon="0.39785">
        <ele>1528.398</ele>
        <time>2011-10-03T18:08:19Z</time>
      </trkpt>
      <trkpt lat="42.80205" lon="0.39781">
        <ele>1527.665</ele>
        <time>2011-10-03T18:08:20Z</time>
      </trkpt>
      <trkpt lat="42.802" lon="0.39775">
        <ele>1526.685</ele>
        <time>2011-10-03T18:08:21Z</time>
      </trkpt>
      <trkpt lat="42.80195" lon="0.39768">
        <ele>1525.99</ele>
        <time>2011-10-03T18:08:22Z</time>
      </trkpt>
      <trkpt lat="42.80189" lon="0.39763">
        <ele>1525.564</ele>
        <time>2011-10-03T18:08:23Z</time>
      </trkpt>
      <trkpt lat="42.80184" lon="0.39759">
        <ele>1525.042</ele>
        <time>2011-10-03T18:08:24Z</time>
      </trkpt>
      <trkpt lat="42.80177" lon="0.39755">
        <ele>1524.272</ele>
        <time>2011-10-03T18:08:25Z</time>
      </trkpt>
      <trkpt lat="42.80171" lon="0.3975">
        <ele>1523.22</ele>
        <time>2011-10-03T18:08:26Z</time>
      </trkpt>
      <trkpt lat="42.80164" lon="0.39746">
        <ele>1522.414</ele>
        <time>2011-10-03T18:08:27Z</time>
      </trkpt>
      <trkpt lat="42.80158" lon="0.39741">
        <ele>1521.889</ele>
        <time>2011-10-03T18:08:28Z</time>
      </trkpt>
      <trkpt lat="42.80152" lon="0.39736">
        <ele>1521.455</ele>
        <time>2011-10-03T18:08:29Z</time>
      </trkpt>
      <trkpt lat="42.80149" lon="0.39731">
        <ele>1520.674</ele>
        <time>2011-10-03T18:08:30Z</time>
      </trkpt>
      <trkpt lat="42.80148" lon="0.39724">
        <ele>1519.378</ele>
        <time>2011-10-03T18:08:31Z</time>
      </trkpt>
      <trkpt lat="42.80155" lon="0.39709">
        <ele>1518.049</ele>
        <time>2011-10-03T18:08:33Z</time>
      </trkpt>
      <trkpt lat="42.80162" lon="0.39705">
        <ele>1516.953</ele>
        <time>2011-10-03T18:08:34Z</time>
      </trkpt>
      <trkpt lat="42.8017" lon="0.39703">
        <ele>1516.446</ele>
        <time>2011-10-03T18:08:35Z</time>
      </trkpt>
      <trkpt lat="42.80178" lon="0.39701">
        <ele>1516.657</ele>
        <time>2011-10-03T18:08:36Z</time>
      </trkpt>
      <trkpt lat="42.80178" lon="0.39701">
        <ele>1516.96</ele>
        <time>2011-10-03T18:08:36Z</time>
      </trkpt>
      <trkpt lat="42.80191" lon="0.39699">
        <ele>1516.603</ele>
        <time>2011-10-03T18:08:38Z</time>
      </trkpt>
      <trkpt lat="42.80199" lon="0.39701">
        <ele>1514.939</ele>
        <time>2011-10-03T18:08:39Z</time>
      </trkpt>
      <trkpt lat="42.80207" lon="0.39709">
        <ele>1512.99</ele>
        <time>2011-10-03T18:08:40Z</time>
      </trkpt>
      <trkpt lat="42.80215" lon="0.39719">
        <ele>1512.122</ele>
        <time>2011-10-03T18:08:41Z</time>
      </trkpt>
      <trkpt lat="42.80222" lon="0.3973">
        <ele>1511.664</ele>
        <time>2011-10-03T18:08:42Z</time>
      </trkpt>
      <trkpt lat="42.80228" lon="0.39741">
        <ele>1511.738</ele>
        <time>2011-10-03T18:08:43Z</time>
      </trkpt>
      <trkpt lat="42.80234" lon="0.39751">
        <ele>1511.474</ele>
        <time>2011-10-03T18:08:44Z</time>
      </trkpt>
      <trkpt lat="42.8024" lon="0.39761">
        <ele>1510.67</ele>
        <time>2011-10-03T18:08:45Z</time>
      </trkpt>
      <trkpt lat="42.80246" lon="0.39769">
        <ele>1509.774</ele>
        <time>2011-10-03T18:08:46Z</time>
      </trkpt>
      <trkpt lat="42.80253" lon="0.39776">
        <ele>1509.402</ele>
        <time>2011-10-03T18:08:47Z</time>
      </trkpt>
      <trkpt lat="42.8026" lon="0.39782">
        <ele>1509.544</ele>
        <time>2011-10-03T18:08:48Z</time>
      </trkpt>
      <trkpt lat="42.80268" lon="0.39786">
        <ele>1509.464</ele>
        <time>2011-10-03T18:08:49Z</time>
      </trkpt>
      <trkpt lat="42.80276" lon="0.39787">
        <ele>1508.624</ele>
        <time>2011-10-03T18:08:50Z</time>
      </trkpt>
      <trkpt lat="42.80283" lon="0.39782">
        <ele>1507.428</ele>
        <time>2011-10-03T18:08:51Z</time>
      </trkpt>
      <trkpt lat="42.80288" lon="0.39775">
        <ele>1506.334</ele>
        <time>2011-10-03T18:08:52Z</time>
      </trkpt>
      <trkpt lat="42.80289" lon="0.39759">
        <ele>1504.923</ele>
        <time>2011-10-03T18:08:54Z</time>
      </trkpt>
      <trkpt lat="42.80284" lon="0.39752">
        <ele>1503.755</ele>
        <time>2011-10-03T18:08:55Z</time>
      </trkpt>
      <trkpt lat="42.80277" lon="0.39746">
        <ele>1502.74</ele>
        <time>2011-10-03T18:08:56Z</time>
      </trkpt>
      <trkpt lat="42.80269" lon="0.39743">
        <ele>1502.177</ele>
        <time>2011-10-03T18:08:57Z</time>
      </trkpt>
      <trkpt lat="42.80261" lon="0.39743">
        <ele>1502.073</ele>
        <time>2011-10-03T18:08:58Z</time>
      </trkpt>
      <trkpt lat="42.80253" lon="0.39744">
        <ele>1502.135</ele>
        <time>2011-10-03T18:08:59Z</time>
      </trkpt>
      <trkpt lat="42.80247" lon="0.39744">
        <ele>1501.9</ele>
        <time>2011-10-03T18:09:00Z</time>
      </trkpt>
      <trkpt lat="42.8024" lon="0.39743">
        <ele>1500.959</ele>
        <time>2011-10-03T18:09:01Z</time>
      </trkpt>
      <trkpt lat="42.80231" lon="0.39742">
        <ele>1499.626</ele>
        <time>2011-10-03T18:09:02Z</time>
      </trkpt>
      <trkpt lat="42.80223" lon="0.39741">
        <ele>1498.732</ele>
        <time>2011-10-03T18:09:03Z</time>
      </trkpt>
      <trkpt lat="42.80214" lon="0.3974">
        <ele>1498.585</ele>
        <time>2011-10-03T18:09:04Z</time>
      </trkpt>
      <trkpt lat="42.80207" lon="0.39739">
        <ele>1498.907</ele>
        <time>2011-10-03T18:09:05Z</time>
      </trkpt>
      <trkpt lat="42.80201" lon="0.39738">
        <ele>1499.517</ele>
        <time>2011-10-03T18:09:06Z</time>
      </trkpt>
      <trkpt lat="42.80195" lon="0.39736">
        <ele>1499.675</ele>
        <time>2011-10-03T18:09:07Z</time>
      </trkpt>
      <trkpt lat="42.80189" lon="0.39736">
        <ele>1499.175</ele>
        <time>2011-10-03T18:09:08Z</time>
      </trkpt>
      <trkpt lat="42.80182" lon="0.39738">
        <ele>1497.787</ele>
        <time>2011-10-03T18:09:09Z</time>
      </trkpt>
      <trkpt lat="42.80175" lon="0.39746">
        <ele>1496.786</ele>
        <time>2011-10-03T18:09:10Z</time>
      </trkpt>
      <trkpt lat="42.80171" lon="0.39758">
        <ele>1496.886</ele>
        <time>2011-10-03T18:09:11Z</time>
      </trkpt>
      <trkpt lat="42.8017" lon="0.39772">
        <ele>1497.566</ele>
        <time>2011-10-03T18:09:12Z</time>
      </trkpt>
      <trkpt lat="42.8017" lon="0.39772">
        <ele>1497.856</ele>
        <time>2011-10-03T18:09:12Z</time>
      </trkpt>
      <trkpt lat="42.80179" lon="0.39811">
        <ele>1497.64</ele>
        <time>2011-10-03T18:09:15Z</time>
      </trkpt>
      <trkpt lat="42.80184" lon="0.39821">
        <ele>1497.134</ele>
        <time>2011-10-03T18:09:16Z</time>
      </trkpt>
      <trkpt lat="42.80191" lon="0.39829">
        <ele>1495.808</ele>
        <time>2011-10-03T18:09:17Z</time>
      </trkpt>
      <trkpt lat="42.80199" lon="0.39833">
        <ele>1494.131</ele>
        <time>2011-10-03T18:09:18Z</time>
      </trkpt>
      <trkpt lat="42.80207" lon="0.39834">
        <ele>1493.131</ele>
        <time>2011-10-03T18:09:19Z</time>
      </trkpt>
      <trkpt lat="42.80215" lon="0.39834">
        <ele>1493.137</ele>
        <time>2011-10-03T18:09:20Z</time>
      </trkpt>
      <trkpt lat="42.80223" lon="0.39835">
        <ele>1493.195</ele>
        <time>2011-10-03T18:09:21Z</time>
      </trkpt>
      <trkpt lat="42.8023" lon="0.3984">
        <ele>1492.544</ele>
        <time>2011-10-03T18:09:22Z</time>
      </trkpt>
      <trkpt lat="42.80237" lon="0.39849">
        <ele>1491.338</ele>
        <time>2011-10-03T18:09:23Z</time>
      </trkpt>
      <trkpt lat="42.80244" lon="0.3986">
        <ele>1490.055</ele>
        <time>2011-10-03T18:09:24Z</time>
      </trkpt>
      <trkpt lat="42.80249" lon="0.39872">
        <ele>1489.08</ele>
        <time>2011-10-03T18:09:25Z</time>
      </trkpt>
      <trkpt lat="42.80252" lon="0.39887">
        <ele>1487.659</ele>
        <time>2011-10-03T18:09:26Z</time>
      </trkpt>
      <trkpt lat="42.8025" lon="0.39901">
        <ele>1486.05</ele>
        <time>2011-10-03T18:09:27Z</time>
      </trkpt>
      <trkpt lat="42.80244" lon="0.39911">
        <ele>1484.435</ele>
        <time>2011-10-03T18:09:28Z</time>
      </trkpt>
      <trkpt lat="42.80237" lon="0.39916">
        <ele>1483.261</ele>
        <time>2011-10-03T18:09:29Z</time>
      </trkpt>
      <trkpt lat="42.80231" lon="0.39916">
        <ele>1482.515</ele>
        <time>2011-10-03T18:09:30Z</time>
      </trkpt>
      <trkpt lat="42.80225" lon="0.39915">
        <ele>1482.098</ele>
        <time>2011-10-03T18:09:31Z</time>
      </trkpt>
      <trkpt lat="42.8022" lon="0.39912">
        <ele>1481.297</ele>
        <time>2011-10-03T18:09:32Z</time>
      </trkpt>
      <trkpt lat="42.80215" lon="0.39909">
        <ele>1480.298</ele>
        <time>2011-10-03T18:09:33Z</time>
      </trkpt>
      <trkpt lat="42.80211" lon="0.39905">
        <ele>1479.226</ele>
        <time>2011-10-03T18:09:34Z</time>
      </trkpt>
      <trkpt lat="42.80211" lon="0.39905">
        <ele>1478.521</ele>
        <time>2011-10-03T18:09:34Z</time>
      </trkpt>
      <trkpt lat="42.80203" lon="0.39894">
        <ele>1477.733</ele>
        <time>2011-10-03T18:09:36Z</time>
      </trkpt>
      <trkpt lat="42.80195" lon="0.39886">
        <ele>1477.052</ele>
        <time>2011-10-03T18:09:38Z</time>
      </trkpt>
      <trkpt lat="42.8019" lon="0.39885">
        <ele>1475.694</ele>
        <time>2011-10-03T18:09:39Z</time>
      </trkpt>
      <trkpt lat="42.80184" lon="0.39886">
        <ele>1473.547</ele>
        <time>2011-10-03T18:09:40Z</time>
      </trkpt>
      <trkpt lat="42.80176" lon="0.39888">
        <ele>1471.76</ele>
        <time>2011-10-03T18:09:41Z</time>
      </trkpt>
      <trkpt lat="42.80169" lon="0.39889">
        <ele>1470.137</ele>
        <time>2011-10-03T18:09:42Z</time>
      </trkpt>
      <trkpt lat="42.80161" lon="0.39891">
        <ele>1468.857</ele>
        <time>2011-10-03T18:09:43Z</time>
      </trkpt>
      <trkpt lat="42.80154" lon="0.3989">
        <ele>1467.315</ele>
        <time>2011-10-03T18:09:44Z</time>
      </trkpt>
      <trkpt lat="42.80146" lon="0.3989">
        <ele>1465.92</ele>
        <time>2011-10-03T18:09:45Z</time>
      </trkpt>
      <trkpt lat="42.80138" lon="0.39893">
        <ele>1464.821</ele>
        <time>2011-10-03T18:09:46Z</time>
      </trkpt>
      <trkpt lat="42.80129" lon="0.39897">
        <ele>1464.101</ele>
        <time>2011-10-03T18:09:47Z</time>
      </trkpt>
      <trkpt lat="42.80121" lon="0.39904">
        <ele>1464.314</ele>
        <time>2011-10-03T18:09:48Z</time>
      </trkpt>
      <trkpt lat="42.80116" lon="0.39911">
        <ele>1465.192</ele>
        <time>2011-10-03T18:09:49Z</time>
      </trkpt>
      <trkpt lat="42.80112" lon="0.3992">
        <ele>1465.917</ele>
        <time>2011-10-03T18:09:50Z</time>
      </trkpt>
      <trkpt lat="42.80109" lon="0.3993">
        <ele>1465.776</ele>
        <time>2011-10-03T18:09:51Z</time>
      </trkpt>
      <trkpt lat="42.80108" lon="0.39942">
        <ele>1464.837</ele>
        <time>2011-10-03T18:09:52Z</time>
      </trkpt>
      <trkpt lat="42.80109" lon="0.39952">
        <ele>1463.971</ele>
        <time>2011-10-03T18:09:53Z</time>
      </trkpt>
      <trkpt lat="42.80113" lon="0.39961">
        <ele>1462.71</ele>
        <time>2011-10-03T18:09:54Z</time>
      </trkpt>
      <trkpt lat="42.80113" lon="0.39961">
        <ele>1461.807</ele>
        <time>2011-10-03T18:09:54Z</time>
      </trkpt>
      <trkpt lat="42.80113" lon="0.39961">
        <ele>1460.973</ele>
        <time>2011-10-03T18:09:54Z</time>
      </trkpt>
      <trkpt lat="42.80137" lon="0.39973">
        <ele>1460.524</ele>
        <time>2011-10-03T18:09:58Z</time>
      </trkpt>
      <trkpt lat="42.80142" lon="0.39976">
        <ele>1459.678</ele>
        <time>2011-10-03T18:09:59Z</time>
      </trkpt>
      <trkpt lat="42.80142" lon="0.39976">
        <ele>1458.081</ele>
        <time>2011-10-03T18:09:59Z</time>
      </trkpt>
      <trkpt lat="42.80154" lon="0.39981">
        <ele>1456.27</ele>
        <time>2011-10-03T18:10:01Z</time>
      </trkpt>
      <trkpt lat="42.80161" lon="0.39981">
        <ele>1454.38</ele>
        <time>2011-10-03T18:10:02Z</time>
      </trkpt>
      <trkpt lat="42.80167" lon="0.39982">
        <ele>1453.734</ele>
        <time>2011-10-03T18:10:03Z</time>
      </trkpt>
      <trkpt lat="42.80172" lon="0.39982">
        <ele>1453.976</ele>
        <time>2011-10-03T18:10:04Z</time>
      </trkpt>
      <trkpt lat="42.80177" lon="0.39981">
        <ele>1454.27</ele>
        <time>2011-10-03T18:10:05Z</time>
      </trkpt>
      <trkpt lat="42.80182" lon="0.39979">
        <ele>1453.776</ele>
        <time>2011-10-03T18:10:06Z</time>
      </trkpt>
      <trkpt lat="42.80188" lon="0.39979">
        <ele>1452.822</ele>
        <time>2011-10-03T18:10:07Z</time>
      </trkpt>
      <trkpt lat="42.80193" lon="0.39977">
        <ele>1451.807</ele>
        <time>2011-10-03T18:10:08Z</time>
      </trkpt>
      <trkpt lat="42.80199" lon="0.39976">
        <ele>1451.098</ele>
        <time>2011-10-03T18:10:09Z</time>
      </trkpt>
      <trkpt lat="42.80199" lon="0.39976">
        <ele>1450.618</ele>
        <time>2011-10-03T18:10:09Z</time>
      </trkpt>
      <trkpt lat="42.80207" lon="0.39974">
        <ele>1449.854</ele>
        <time>2011-10-03T18:10:11Z</time>
      </trkpt>
      <trkpt lat="42.80211" lon="0.39973">
        <ele>1448.609</ele>
        <time>2011-10-03T18:10:12Z</time>
      </trkpt>
      <trkpt lat="42.80216" lon="0.39973">
        <ele>1446.724</ele>
        <time>2011-10-03T18:10:13Z</time>
      </trkpt>
      <trkpt lat="42.80221" lon="0.39974">
        <ele>1445.062</ele>
        <time>2011-10-03T18:10:14Z</time>
      </trkpt>
      <trkpt lat="42.80221" lon="0.39974">
        <ele>1443.458</ele>
        <time>2011-10-03T18:10:14Z</time>
      </trkpt>
      <trkpt lat="42.80234" lon="0.3998">
        <ele>1442.348</ele>
        <time>2011-10-03T18:10:16Z</time>
      </trkpt>
      <trkpt lat="42.80239" lon="0.39984">
        <ele>1441.282</ele>
        <time>2011-10-03T18:10:17Z</time>
      </trkpt>
      <trkpt lat="42.80244" lon="0.39989">
        <ele>1440.535</ele>
        <time>2011-10-03T18:10:18Z</time>
      </trkpt>
      <trkpt lat="42.80248" lon="0.39994">
        <ele>1439.788</ele>
        <time>2011-10-03T18:10:19Z</time>
      </trkpt>
      <trkpt lat="42.80253" lon="0.39999">
        <ele>1438.439</ele>
        <time>2011-10-03T18:10:20Z</time>
      </trkpt>
      <trkpt lat="42.80257" lon="0.40003">
        <ele>1436.985</ele>
        <time>2011-10-03T18:10:21Z</time>
      </trkpt>
      <trkpt lat="42.80267" lon="0.40013">
        <ele>1435.63</ele>
        <time>2011-10-03T18:10:23Z</time>
      </trkpt>
      <trkpt lat="42.80272" lon="0.40018">
        <ele>1434.205</ele>
        <time>2011-10-03T18:10:24Z</time>
      </trkpt>
      <trkpt lat="42.80278" lon="0.40021">
        <ele>1432.786</ele>
        <time>2011-10-03T18:10:25Z</time>
      </trkpt>
      <trkpt lat="42.80283" lon="0.40023">
        <ele>1431.001</ele>
        <time>2011-10-03T18:10:26Z</time>
      </trkpt>
      <trkpt lat="42.80289" lon="0.40024">
        <ele>1428.632</ele>
        <time>2011-10-03T18:10:27Z</time>
      </trkpt>
      <trkpt lat="42.80296" lon="0.40026">
        <ele>1426.517</ele>
        <time>2011-10-03T18:10:28Z</time>
      </trkpt>
      <trkpt lat="42.80302" lon="0.4003">
        <ele>1425.103</ele>
        <time>2011-10-03T18:10:29Z</time>
      </trkpt>
      <trkpt lat="42.80307" lon="0.40035">
        <ele>1423.9</ele>
        <time>2011-10-03T18:10:30Z</time>
      </trkpt>
      <trkpt lat="42.80312" lon="0.4004">
        <ele>1422.782</ele>
        <time>2011-10-03T18:10:31Z</time>
      </trkpt>
      <trkpt lat="42.80317" lon="0.40045">
        <ele>1421.151</ele>
        <time>2011-10-03T18:10:32Z</time>
      </trkpt>
      <trkpt lat="42.80323" lon="0.4005">
        <ele>1419.27</ele>
        <time>2011-10-03T18:10:33Z</time>
      </trkpt>
      <trkpt lat="42.80328" lon="0.40055">
        <ele>1417.719</ele>
        <time>2011-10-03T18:10:34Z</time>
      </trkpt>
      <trkpt lat="42.80333" lon="0.40061">
        <ele>1416.531</ele>
        <time>2011-10-03T18:10:35Z</time>
      </trkpt>
      <trkpt lat="42.80337" lon="0.40067">
        <ele>1415.452</ele>
        <time>2011-10-03T18:10:36Z</time>
      </trkpt>
      <trkpt lat="42.80341" lon="0.40074">
        <ele>1414.164</ele>
        <time>2011-10-03T18:10:37Z</time>
      </trkpt>
      <trkpt lat="42.80345" lon="0.4008">
        <ele>1412.841</ele>
        <time>2011-10-03T18:10:38Z</time>
      </trkpt>
      <trkpt lat="42.8035" lon="0.40086">
        <ele>1411.952</ele>
        <time>2011-10-03T18:10:39Z</time>
      </trkpt>
      <trkpt lat="42.80354" lon="0.4009">
        <ele>1411.044</ele>
        <time>2011-10-03T18:10:40Z</time>
      </trkpt>
      <trkpt lat="42.80359" lon="0.40095">
        <ele>1410.435</ele>
        <time>2011-10-03T18:10:41Z</time>
      </trkpt>
      <trkpt lat="42.80364" lon="0.401">
        <ele>1409.663</ele>
        <time>2011-10-03T18:10:42Z</time>
      </trkpt>
      <trkpt lat="42.80369" lon="0.40104">
        <ele>1408.721</ele>
        <time>2011-10-03T18:10:43Z</time>
      </trkpt>
      <trkpt lat="42.80374" lon="0.40108">
        <ele>1407.533</ele>
        <time>2011-10-03T18:10:44Z</time>
      </trkpt>
      <trkpt lat="42.80383" lon="0.40118">
        <ele>1406.366</ele>
        <time>2011-10-03T18:10:46Z</time>
      </trkpt>
      <trkpt lat="42.80383" lon="0.40118">
        <ele>1405.647</ele>
        <time>2011-10-03T18:10:46Z</time>
      </trkpt>
      <trkpt lat="42.80392" lon="0.40129">
        <ele>1405.231</ele>
        <time>2011-10-03T18:10:48Z</time>
      </trkpt>
      <trkpt lat="42.80396" lon="0.40134">
        <ele>1404.957</ele>
        <time>2011-10-03T18:10:49Z</time>
      </trkpt>
      <trkpt lat="42.804" lon="0.40139">
        <ele>1404.457</ele>
        <time>2011-10-03T18:10:50Z</time>
      </trkpt>
      <trkpt lat="42.80404" lon="0.40145">
        <ele>1403.632</ele>
        <time>2011-10-03T18:10:51Z</time>
      </trkpt>
      <trkpt lat="42.80408" lon="0.4015">
        <ele>1402.863</ele>
        <time>2011-10-03T18:10:52Z</time>
      </trkpt>
      <trkpt lat="42.80413" lon="0.40156">
        <ele>1402.244</ele>
        <time>2011-10-03T18:10:53Z</time>
      </trkpt>
      <trkpt lat="42.80417" lon="0.40161">
        <ele>1401.788</ele>
        <time>2011-10-03T18:10:54Z</time>
      </trkpt>
      <trkpt lat="42.8042" lon="0.40166">
        <ele>1401.203</ele>
        <time>2011-10-03T18:10:55Z</time>
      </trkpt>
      <trkpt lat="42.80424" lon="0.40171">
        <ele>1400.257</ele>
        <time>2011-10-03T18:10:56Z</time>
      </trkpt>
      <trkpt lat="42.80428" lon="0.40176">
        <ele>1399.189</ele>
        <time>2011-10-03T18:10:57Z</time>
      </trkpt>
      <trkpt lat="42.80432" lon="0.40181">
        <ele>1398.021</ele>
        <time>2011-10-03T18:10:58Z</time>
      </trkpt>
      <trkpt lat="42.80436" lon="0.40187">
        <ele>1397.354</ele>
        <time>2011-10-03T18:10:59Z</time>
      </trkpt>
      <trkpt lat="42.80439" lon="0.40193">
        <ele>1396.554</ele>
        <time>2011-10-03T18:11:00Z</time>
      </trkpt>
      <trkpt lat="42.80443" lon="0.40199">
        <ele>1395.876</ele>
        <time>2011-10-03T18:11:01Z</time>
      </trkpt>
      <trkpt lat="42.80446" lon="0.40205">
        <ele>1395.054</ele>
        <time>2011-10-03T18:11:02Z</time>
      </trkpt>
      <trkpt lat="42.80449" lon="0.40212">
        <ele>1394.384</ele>
        <time>2011-10-03T18:11:03Z</time>
      </trkpt>
      <trkpt lat="42.80452" lon="0.40218">
        <ele>1394.009</ele>
        <time>2011-10-03T18:11:04Z</time>
      </trkpt>
      <trkpt lat="42.80455" lon="0.40225">
        <ele>1393.895</ele>
        <time>2011-10-03T18:11:05Z</time>
      </trkpt>
      <trkpt lat="42.80458" lon="0.40232">
        <ele>1393.705</ele>
        <time>2011-10-03T18:11:06Z</time>
      </trkpt>
      <trkpt lat="42.8046" lon="0.40239">
        <ele>1393.095</ele>
        <time>2011-10-03T18:11:07Z</time>
      </trkpt>
      <trkpt lat="42.80463" lon="0.40245">
        <ele>1392.081</ele>
        <time>2011-10-03T18:11:08Z</time>
      </trkpt>
      <trkpt lat="42.80467" lon="0.40251">
        <ele>1390.442</ele>
        <time>2011-10-03T18:11:09Z</time>
      </trkpt>
      <trkpt lat="42.80475" lon="0.40263">
        <ele>1388.763</ele>
        <time>2011-10-03T18:11:11Z</time>
      </trkpt>
      <trkpt lat="42.80475" lon="0.40263">
        <ele>1387.649</ele>
        <time>2011-10-03T18:11:11Z</time>
      </trkpt>
      <trkpt lat="42.80483" lon="0.40272">
        <ele>1387.223</ele>
        <time>2011-10-03T18:11:13Z</time>
      </trkpt>
      <trkpt lat="42.80487" lon="0.40276">
        <ele>1387.082</ele>
        <time>2011-10-03T18:11:14Z</time>
      </trkpt>
      <trkpt lat="42.80491" lon="0.40279">
        <ele>1386.862</ele>
        <time>2011-10-03T18:11:15Z</time>
      </trkpt>
      <trkpt lat="42.80496" lon="0.40282">
        <ele>1386.363</ele>
        <time>2011-10-03T18:11:16Z</time>
      </trkpt>
      <trkpt lat="42.80501" lon="0.40285">
        <ele>1385.328</ele>
        <time>2011-10-03T18:11:17Z</time>
      </trkpt>
      <trkpt lat="42.80505" lon="0.40289">
        <ele>1384.145</ele>
        <time>2011-10-03T18:11:18Z</time>
      </trkpt>
      <trkpt lat="42.8051" lon="0.40293">
        <ele>1383.563</ele>
        <time>2011-10-03T18:11:19Z</time>
      </trkpt>
      <trkpt lat="42.80514" lon="0.40296">
        <ele>1383.407</ele>
        <time>2011-10-03T18:11:20Z</time>
      </trkpt>
      <trkpt lat="42.80518" lon="0.40298">
        <ele>1383.225</ele>
        <time>2011-10-03T18:11:21Z</time>
      </trkpt>
      <trkpt lat="42.80522" lon="0.40301">
        <ele>1382.698</ele>
        <time>2011-10-03T18:11:22Z</time>
      </trkpt>
      <trkpt lat="42.80526" lon="0.40305">
        <ele>1381.704</ele>
        <time>2011-10-03T18:11:23Z</time>
      </trkpt>
      <trkpt lat="42.80531" lon="0.40309">
        <ele>1380.63</ele>
        <time>2011-10-03T18:11:23Z</time>
      </trkpt>
      <trkpt lat="42.80536" lon="0.40314">
        <ele>1379.843</ele>
        <time>2011-10-03T18:11:25Z</time>
      </trkpt>
      <trkpt lat="42.80536" lon="0.40314">
        <ele>1379.393</ele>
        <time>2011-10-03T18:11:25Z</time>
      </trkpt>
      <trkpt lat="42.80545" lon="0.40323">
        <ele>1378.979</ele>
        <time>2011-10-03T18:11:27Z</time>
      </trkpt>
      <trkpt lat="42.80549" lon="0.40327">
        <ele>1378.056</ele>
        <time>2011-10-03T18:11:28Z</time>
      </trkpt>
      <trkpt lat="42.80557" lon="0.40335">
        <ele>1377.034</ele>
        <time>2011-10-03T18:11:30Z</time>
      </trkpt>
      <trkpt lat="42.80561" lon="0.4034">
        <ele>1376.001</ele>
        <time>2011-10-03T18:11:31Z</time>
      </trkpt>
      <trkpt lat="42.80561" lon="0.4034">
        <ele>1375.076</ele>
        <time>2011-10-03T18:11:31Z</time>
      </trkpt>
      <trkpt lat="42.80569" lon="0.40348">
        <ele>1374.198</ele>
        <time>2011-10-03T18:11:33Z</time>
      </trkpt>
      <trkpt lat="42.80572" lon="0.40353">
        <ele>1373.053</ele>
        <time>2011-10-03T18:11:34Z</time>
      </trkpt>
      <trkpt lat="42.80577" lon="0.40358">
        <ele>1371.708</ele>
        <time>2011-10-03T18:11:35Z</time>
      </trkpt>
      <trkpt lat="42.80581" lon="0.40362">
        <ele>1370.493</ele>
        <time>2011-10-03T18:11:36Z</time>
      </trkpt>
      <trkpt lat="42.80586" lon="0.40366">
        <ele>1369.54</ele>
        <time>2011-10-03T18:11:37Z</time>
      </trkpt>
      <trkpt lat="42.8059" lon="0.40369">
        <ele>1368.656</ele>
        <time>2011-10-03T18:11:38Z</time>
      </trkpt>
      <trkpt lat="42.80594" lon="0.40373">
        <ele>1367.683</ele>
        <time>2011-10-03T18:11:39Z</time>
      </trkpt>
      <trkpt lat="42.80598" lon="0.40377">
        <ele>1366.504</ele>
        <time>2011-10-03T18:11:40Z</time>
      </trkpt>
      <trkpt lat="42.80601" lon="0.40381">
        <ele>1365.032</ele>
        <time>2011-10-03T18:11:41Z</time>
      </trkpt>
      <trkpt lat="42.80606" lon="0.40386">
        <ele>1363.226</ele>
        <time>2011-10-03T18:11:42Z</time>
      </trkpt>
      <trkpt lat="42.8061" lon="0.4039">
        <ele>1361.855</ele>
        <time>2011-10-03T18:11:43Z</time>
      </trkpt>
      <trkpt lat="42.80615" lon="0.40393">
        <ele>1360.624</ele>
        <time>2011-10-03T18:11:44Z</time>
      </trkpt>
      <trkpt lat="42.8062" lon="0.40397">
        <ele>1359.654</ele>
        <time>2011-10-03T18:11:45Z</time>
      </trkpt>
      <trkpt lat="42.80624" lon="0.404">
        <ele>1358.501</ele>
        <time>2011-10-03T18:11:46Z</time>
      </trkpt>
      <trkpt lat="42.80629" lon="0.40402">
        <ele>1357.662</ele>
        <time>2011-10-03T18:11:47Z</time>
      </trkpt>
      <trkpt lat="42.80633" lon="0.40405">
        <ele>1356.904</ele>
        <time>2011-10-03T18:11:48Z</time>
      </trkpt>
      <trkpt lat="42.80636" lon="0.40407">
        <ele>1356.264</ele>
        <time>2011-10-03T18:11:49Z</time>
      </trkpt>
      <trkpt lat="42.80641" lon="0.40408">
        <ele>1355.21</ele>
        <time>2011-10-03T18:11:50Z</time>
      </trkpt>
      <trkpt lat="42.80645" lon="0.4041">
        <ele>1353.576</ele>
        <time>2011-10-03T18:11:51Z</time>
      </trkpt>
      <trkpt lat="42.8065" lon="0.40411">
        <ele>1352.056</ele>
        <time>2011-10-03T18:11:52Z</time>
      </trkpt>
      <trkpt lat="42.80655" lon="0.40413">
        <ele>1350.782</ele>
        <time>2011-10-03T18:11:53Z</time>
      </trkpt>
      <trkpt lat="42.80664" lon="0.40416">
        <ele>1350.117</ele>
        <time>2011-10-03T18:11:55Z</time>
      </trkpt>
      <trkpt lat="42.80668" lon="0.40417">
        <ele>1349.523</ele>
        <time>2011-10-03T18:11:56Z</time>
      </trkpt>
      <trkpt lat="42.8067" lon="0.4042">
        <ele>1348.63</ele>
        <time>2011-10-03T18:11:57Z</time>
      </trkpt>
      <trkpt lat="42.80672" lon="0.40428">
        <ele>1347.434</ele>
        <time>2011-10-03T18:11:58Z</time>
      </trkpt>
      <trkpt lat="42.80673" lon="0.40437">
        <ele>1346.031</ele>
        <time>2011-10-03T18:11:59Z</time>
      </trkpt>
      <trkpt lat="42.80671" lon="0.40446">
        <ele>1344.88</ele>
        <time>2011-10-03T18:12:00Z</time>
      </trkpt>
      <trkpt lat="42.80668" lon="0.40456">
        <ele>1344.166</ele>
        <time>2011-10-03T18:12:01Z</time>
      </trkpt>
      <trkpt lat="42.80665" lon="0.40464">
        <ele>1343.665</ele>
        <time>2011-10-03T18:12:02Z</time>
      </trkpt>
      <trkpt lat="42.80662" lon="0.40473">
        <ele>1343.17</ele>
        <time>2011-10-03T18:12:03Z</time>
      </trkpt>
      <trkpt lat="42.8066" lon="0.40481">
        <ele>1342.274</ele>
        <time>2011-10-03T18:12:04Z</time>
      </trkpt>
      <trkpt lat="42.80656" lon="0.4049">
        <ele>1341.165</ele>
        <time>2011-10-03T18:12:05Z</time>
      </trkpt>
      <trkpt lat="42.80652" lon="0.40499">
        <ele>1339.878</ele>
        <time>2011-10-03T18:12:06Z</time>
      </trkpt>
      <trkpt lat="42.80648" lon="0.40509">
        <ele>1338.385</ele>
        <time>2011-10-03T18:12:07Z</time>
      </trkpt>
      <trkpt lat="42.80644" lon="0.40518">
        <ele>1336.875</ele>
        <time>2011-10-03T18:12:08Z</time>
      </trkpt>
      <trkpt lat="42.80642" lon="0.40527">
        <ele>1335.477</ele>
        <time>2011-10-03T18:12:09Z</time>
      </trkpt>
      <trkpt lat="42.80639" lon="0.40536">
        <ele>1334.065</ele>
        <time>2011-10-03T18:12:10Z</time>
      </trkpt>
      <trkpt lat="42.80636" lon="0.40545">
        <ele>1332.718</ele>
        <time>2011-10-03T18:12:11Z</time>
      </trkpt>
      <trkpt lat="42.80635" lon="0.40553">
        <ele>1331.313</ele>
        <time>2011-10-03T18:12:12Z</time>
      </trkpt>
      <trkpt lat="42.80633" lon="0.40562">
        <ele>1329.932</ele>
        <time>2011-10-03T18:12:13Z</time>
      </trkpt>
      <trkpt lat="42.80632" lon="0.40571">
        <ele>1328.433</ele>
        <time>2011-10-03T18:12:14Z</time>
      </trkpt>
      <trkpt lat="42.80631" lon="0.4058">
        <ele>1327.1</ele>
        <time>2011-10-03T18:12:15Z</time>
      </trkpt>
      <trkpt lat="42.80631" lon="0.40587">
        <ele>1325.858</ele>
        <time>2011-10-03T18:12:16Z</time>
      </trkpt>
      <trkpt lat="42.80629" lon="0.40602">
        <ele>1324.385</ele>
        <time>2011-10-03T18:12:18Z</time>
      </trkpt>
      <trkpt lat="42.80629" lon="0.40609">
        <ele>1322.141</ele>
        <time>2011-10-03T18:12:19Z</time>
      </trkpt>
      <trkpt lat="42.80628" lon="0.40618">
        <ele>1319.878</ele>
        <time>2011-10-03T18:12:20Z</time>
      </trkpt>
      <trkpt lat="42.80627" lon="0.40627">
        <ele>1317.997</ele>
        <time>2011-10-03T18:12:21Z</time>
      </trkpt>
      <trkpt lat="42.80626" lon="0.40638">
        <ele>1316.853</ele>
        <time>2011-10-03T18:12:22Z</time>
      </trkpt>
      <trkpt lat="42.80626" lon="0.40645">
        <ele>1315.381</ele>
        <time>2011-10-03T18:12:23Z</time>
      </trkpt>
      <trkpt lat="42.80626" lon="0.40654">
        <ele>1313.306</ele>
        <time>2011-10-03T18:12:24Z</time>
      </trkpt>
      <trkpt lat="42.80626" lon="0.40663">
        <ele>1311.249</ele>
        <time>2011-10-03T18:12:25Z</time>
      </trkpt>
      <trkpt lat="42.80627" lon="0.40671">
        <ele>1309.49</ele>
        <time>2011-10-03T18:12:26Z</time>
      </trkpt>
      <trkpt lat="42.80626" lon="0.40681">
        <ele>1307.072</ele>
        <time>2011-10-03T18:12:27Z</time>
      </trkpt>
      <trkpt lat="42.80626" lon="0.4069">
        <ele>1305.001</ele>
        <time>2011-10-03T18:12:28Z</time>
      </trkpt>
      <trkpt lat="42.80625" lon="0.407">
        <ele>1303.108</ele>
        <time>2011-10-03T18:12:29Z</time>
      </trkpt>
      <trkpt lat="42.80624" lon="0.40711">
        <ele>1301.462</ele>
        <time>2011-10-03T18:12:30Z</time>
      </trkpt>
      <trkpt lat="42.80623" lon="0.40722">
        <ele>1300.231</ele>
        <time>2011-10-03T18:12:31Z</time>
      </trkpt>
      <trkpt lat="42.80621" lon="0.40731">
        <ele>1298.796</ele>
        <time>2011-10-03T18:12:32Z</time>
      </trkpt>
      <trkpt lat="42.8062" lon="0.4074">
        <ele>1297.622</ele>
        <time>2011-10-03T18:12:33Z</time>
      </trkpt>
      <trkpt lat="42.80618" lon="0.40749">
        <ele>1296.889</ele>
        <time>2011-10-03T18:12:34Z</time>
      </trkpt>
      <trkpt lat="42.80616" lon="0.40759">
        <ele>1296.237</ele>
        <time>2011-10-03T18:12:35Z</time>
      </trkpt>
      <trkpt lat="42.80613" lon="0.40768">
        <ele>1295.7</ele>
        <time>2011-10-03T18:12:36Z</time>
      </trkpt>
      <trkpt lat="42.80608" lon="0.40776">
        <ele>1294.625</ele>
        <time>2011-10-03T18:12:37Z</time>
      </trkpt>
      <trkpt lat="42.806" lon="0.40784">
        <ele>1293.369</ele>
        <time>2011-10-03T18:12:38Z</time>
      </trkpt>
      <trkpt lat="42.8059" lon="0.40792">
        <ele>1291.81</ele>
        <time>2011-10-03T18:12:39Z</time>
      </trkpt>
      <trkpt lat="42.80578" lon="0.40797">
        <ele>1290.13</ele>
        <time>2011-10-03T18:12:40Z</time>
      </trkpt>
      <trkpt lat="42.80566" lon="0.408">
        <ele>1288.518</ele>
        <time>2011-10-03T18:12:41Z</time>
      </trkpt>
      <trkpt lat="42.80541" lon="0.40806">
        <ele>1287.233</ele>
        <time>2011-10-03T18:12:43Z</time>
      </trkpt>
      <trkpt lat="42.80529" lon="0.40808">
        <ele>1286.39</ele>
        <time>2011-10-03T18:12:44Z</time>
      </trkpt>
      <trkpt lat="42.80517" lon="0.4081">
        <ele>1285.389</ele>
        <time>2011-10-03T18:12:45Z</time>
      </trkpt>
      <trkpt lat="42.80505" lon="0.40809">
        <ele>1284.374</ele>
        <time>2011-10-03T18:12:46Z</time>
      </trkpt>
      <trkpt lat="42.80493" lon="0.40807">
        <ele>1283.061</ele>
        <time>2011-10-03T18:12:47Z</time>
      </trkpt>
      <trkpt lat="42.80481" lon="0.40805">
        <ele>1281.531</ele>
        <time>2011-10-03T18:12:48Z</time>
      </trkpt>
      <trkpt lat="42.80469" lon="0.40805">
        <ele>1279.54</ele>
        <time>2011-10-03T18:12:49Z</time>
      </trkpt>
      <trkpt lat="42.80456" lon="0.40804">
        <ele>1278.3</ele>
        <time>2011-10-03T18:12:50Z</time>
      </trkpt>
      <trkpt lat="42.80444" lon="0.40805">
        <ele>1276.549</ele>
        <time>2011-10-03T18:12:51Z</time>
      </trkpt>
      <trkpt lat="42.80432" lon="0.40808">
        <ele>1274.839</ele>
        <time>2011-10-03T18:12:52Z</time>
      </trkpt>
      <trkpt lat="42.80421" lon="0.40813">
        <ele>1272.876</ele>
        <time>2011-10-03T18:12:53Z</time>
      </trkpt>
      <trkpt lat="42.80416" lon="0.40824">
        <ele>1270.505</ele>
        <time>2011-10-03T18:12:54Z</time>
      </trkpt>
      <trkpt lat="42.80414" lon="0.40835">
        <ele>1267.941</ele>
        <time>2011-10-03T18:12:55Z</time>
      </trkpt>
      <trkpt lat="42.80417" lon="0.40841">
        <ele>1265.197</ele>
        <time>2011-10-03T18:12:56Z</time>
      </trkpt>
      <trkpt lat="42.80422" lon="0.40841">
        <ele>1262.499</ele>
        <time>2011-10-03T18:12:57Z</time>
      </trkpt>
      <trkpt lat="42.80428" lon="0.40834">
        <ele>1260.176</ele>
        <time>2011-10-03T18:12:58Z</time>
      </trkpt>
      <trkpt lat="42.80424" lon="0.40807">
        <ele>1258.897</ele>
        <time>2011-10-03T18:13:00Z</time>
      </trkpt>
      <trkpt lat="42.80414" lon="0.40797">
        <ele>1258.149</ele>
        <time>2011-10-03T18:13:01Z</time>
      </trkpt>
      <trkpt lat="42.80414" lon="0.40797">
        <ele>1257.63</ele>
        <time>2011-10-03T18:13:01Z</time>
      </trkpt>
      <trkpt lat="42.80392" lon="0.40788">
        <ele>1256.701</ele>
        <time>2011-10-03T18:13:03Z</time>
      </trkpt>
      <trkpt lat="42.8038" lon="0.40793">
        <ele>1255.239</ele>
        <time>2011-10-03T18:13:04Z</time>
      </trkpt>
      <trkpt lat="42.8037" lon="0.40801">
        <ele>1253.359</ele>
        <time>2011-10-03T18:13:05Z</time>
      </trkpt>
      <trkpt lat="42.80362" lon="0.40811">
        <ele>1251.889</ele>
        <time>2011-10-03T18:13:06Z</time>
      </trkpt>
      <trkpt lat="42.80356" lon="0.4082">
        <ele>1250.066</ele>
        <time>2011-10-03T18:13:07Z</time>
      </trkpt>
      <trkpt lat="42.80359" lon="0.40829">
        <ele>1247.764</ele>
        <time>2011-10-03T18:13:08Z</time>
      </trkpt>
      <trkpt lat="42.8036" lon="0.40835">
        <ele>1245.331</ele>
        <time>2011-10-03T18:13:09Z</time>
      </trkpt>
      <trkpt lat="42.80366" lon="0.40833">
        <ele>1242.903</ele>
        <time>2011-10-03T18:13:10Z</time>
      </trkpt>
      <trkpt lat="42.80371" lon="0.40822">
        <ele>1240.903</ele>
        <time>2011-10-03T18:13:11Z</time>
      </trkpt>
      <trkpt lat="42.80373" lon="0.40811">
        <ele>1239.152</ele>
        <time>2011-10-03T18:13:12Z</time>
      </trkpt>
      <trkpt lat="42.8037" lon="0.40799">
        <ele>1237.349</ele>
        <time>2011-10-03T18:13:13Z</time>
      </trkpt>
      <trkpt lat="42.8036" lon="0.4079">
        <ele>1235.235</ele>
        <time>2011-10-03T18:13:14Z</time>
      </trkpt>
      <trkpt lat="42.80347" lon="0.40788">
        <ele>1232.914</ele>
        <time>2011-10-03T18:13:15Z</time>
      </trkpt>
      <trkpt lat="42.80336" lon="0.40796">
        <ele>1230.578</ele>
        <time>2011-10-03T18:13:16Z</time>
      </trkpt>
      <trkpt lat="42.80328" lon="0.40816">
        <ele>1228.953</ele>
        <time>2011-10-03T18:13:18Z</time>
      </trkpt>
      <trkpt lat="42.8033" lon="0.40822">
        <ele>1227.36</ele>
        <time>2011-10-03T18:13:19Z</time>
      </trkpt>
      <trkpt lat="42.80334" lon="0.40824">
        <ele>1225.603</ele>
        <time>2011-10-03T18:13:20Z</time>
      </trkpt>
      <trkpt lat="42.80339" lon="0.40821">
        <ele>1224.321</ele>
        <time>2011-10-03T18:13:21Z</time>
      </trkpt>
      <trkpt lat="42.80343" lon="0.40816">
        <ele>1222.484</ele>
        <time>2011-10-03T18:13:22Z</time>
      </trkpt>
      <trkpt lat="42.80346" lon="0.40808">
        <ele>1220.672</ele>
        <time>2011-10-03T18:13:23Z</time>
      </trkpt>
      <trkpt lat="42.80348" lon="0.40798">
        <ele>1218.201</ele>
        <time>2011-10-03T18:13:24Z</time>
      </trkpt>
      <trkpt lat="42.80349" lon="0.40787">
        <ele>1215.466</ele>
        <time>2011-10-03T18:13:25Z</time>
      </trkpt>
      <trkpt lat="42.80347" lon="0.40777">
        <ele>1212.883</ele>
        <time>2011-10-03T18:13:26Z</time>
      </trkpt>
      <trkpt lat="42.80333" lon="0.40769">
        <ele>1210.265</ele>
        <time>2011-10-03T18:13:27Z</time>
      </trkpt>
      <trkpt lat="42.80319" lon="0.40771">
        <ele>1207.789</ele>
        <time>2011-10-03T18:13:28Z</time>
      </trkpt>
      <trkpt lat="42.80312" lon="0.40781">
        <ele>1204.678</ele>
        <time>2011-10-03T18:13:29Z</time>
      </trkpt>
      <trkpt lat="42.80311" lon="0.40792">
        <ele>1202.134</ele>
        <time>2011-10-03T18:13:30Z</time>
      </trkpt>
      <trkpt lat="42.80313" lon="0.40797">
        <ele>1200.656</ele>
        <time>2011-10-03T18:13:31Z</time>
      </trkpt>
      <trkpt lat="42.80316" lon="0.40799">
        <ele>1200.226</ele>
        <time>2011-10-03T18:13:32Z</time>
      </trkpt>
      <trkpt lat="42.80319" lon="0.40799">
        <ele>1199.403</ele>
        <time>2011-10-03T18:13:33Z</time>
      </trkpt>
      <trkpt lat="42.80321" lon="0.40796">
        <ele>1197.888</ele>
        <time>2011-10-03T18:13:34Z</time>
      </trkpt>
      <trkpt lat="42.80323" lon="0.40793">
        <ele>1194.933</ele>
        <time>2011-10-03T18:13:35Z</time>
      </trkpt>
      <trkpt lat="42.80326" lon="0.40789">
        <ele>1192.5</ele>
        <time>2011-10-03T18:13:36Z</time>
      </trkpt>
      <trkpt lat="42.80332" lon="0.40777">
        <ele>1190.713</ele>
        <time>2011-10-03T18:13:38Z</time>
      </trkpt>
      <trkpt lat="42.80334" lon="0.4077">
        <ele>1190.091</ele>
        <time>2011-10-03T18:13:39Z</time>
      </trkpt>
      <trkpt lat="42.80335" lon="0.40767">
        <ele>1189.23</ele>
        <time>2011-10-03T18:13:40Z</time>
      </trkpt>
      <trkpt lat="42.80335" lon="0.40769">
        <ele>1187.007</ele>
        <time>2011-10-03T18:13:41Z</time>
      </trkpt>
      <trkpt lat="42.80337" lon="0.40777">
        <ele>1184.505</ele>
        <time>2011-10-03T18:13:42Z</time>
      </trkpt>
      <trkpt lat="42.80335" lon="0.40789">
        <ele>1181.649</ele>
        <time>2011-10-03T18:13:43Z</time>
      </trkpt>
      <trkpt lat="42.80327" lon="0.40799">
        <ele>1178.843</ele>
        <time>2011-10-03T18:13:44Z</time>
      </trkpt>
      <trkpt lat="42.80317" lon="0.40804">
        <ele>1176.958</ele>
        <time>2011-10-03T18:13:45Z</time>
      </trkpt>
      <trkpt lat="42.80306" lon="0.40804">
        <ele>1175.946</ele>
        <time>2011-10-03T18:13:46Z</time>
      </trkpt>
      <trkpt lat="42.80297" lon="0.40799">
        <ele>1175.077</ele>
        <time>2011-10-03T18:13:47Z</time>
      </trkpt>
      <trkpt lat="42.80289" lon="0.40792">
        <ele>1173.612</ele>
        <time>2011-10-03T18:13:48Z</time>
      </trkpt>
      <trkpt lat="42.80284" lon="0.40783">
        <ele>1172.315</ele>
        <time>2011-10-03T18:13:49Z</time>
      </trkpt>
      <trkpt lat="42.80283" lon="0.40774">
        <ele>1169.054</ele>
        <time>2011-10-03T18:13:50Z</time>
      </trkpt>
      <trkpt lat="42.80285" lon="0.40769">
        <ele>1165.238</ele>
        <time>2011-10-03T18:13:51Z</time>
      </trkpt>
      <trkpt lat="42.8029" lon="0.4077">
        <ele>1161.925</ele>
        <time>2011-10-03T18:13:52Z</time>
      </trkpt>
      <trkpt lat="42.80293" lon="0.40779">
        <ele>1157.455</ele>
        <time>2011-10-03T18:13:53Z</time>
      </trkpt>
      <trkpt lat="42.8029" lon="0.40792">
        <ele>1153.429</ele>
        <time>2011-10-03T18:13:54Z</time>
      </trkpt>
      <trkpt lat="42.80281" lon="0.40803">
        <ele>1150.503</ele>
        <time>2011-10-03T18:13:55Z</time>
      </trkpt>
      <trkpt lat="42.80271" lon="0.40811">
        <ele>1149.597</ele>
        <time>2011-10-03T18:13:56Z</time>
      </trkpt>
      <trkpt lat="42.80258" lon="0.40822">
        <ele>1149.976</ele>
        <time>2011-10-03T18:13:58Z</time>
      </trkpt>
      <trkpt lat="42.80254" lon="0.40825">
        <ele>1150.092</ele>
        <time>2011-10-03T18:13:59Z</time>
      </trkpt>
      <trkpt lat="42.80249" lon="0.40827">
        <ele>1148.711</ele>
        <time>2011-10-03T18:14:00Z</time>
      </trkpt>
      <trkpt lat="42.80241" lon="0.40825">
        <ele>1145.975</ele>
        <time>2011-10-03T18:14:01Z</time>
      </trkpt>
      <trkpt lat="42.80231" lon="0.4082">
        <ele>1142.615</ele>
        <time>2011-10-03T18:14:02Z</time>
      </trkpt>
      <trkpt lat="42.80221" lon="0.40812">
        <ele>1139.394</ele>
        <time>2011-10-03T18:14:03Z</time>
      </trkpt>
      <trkpt lat="42.80211" lon="0.40807">
        <ele>1138.045</ele>
        <time>2011-10-03T18:14:04Z</time>
      </trkpt>
      <trkpt lat="42.80203" lon="0.40803">
        <ele>1137.404</ele>
        <time>2011-10-03T18:14:05Z</time>
      </trkpt>
      <trkpt lat="42.80195" lon="0.408">
        <ele>1136.795</ele>
        <time>2011-10-03T18:14:06Z</time>
      </trkpt>
      <trkpt lat="42.80187" lon="0.40797">
        <ele>1135.553</ele>
        <time>2011-10-03T18:14:07Z</time>
      </trkpt>
      <trkpt lat="42.80182" lon="0.40788">
        <ele>1133.916</ele>
        <time>2011-10-03T18:14:08Z</time>
      </trkpt>
      <trkpt lat="42.80179" lon="0.40775">
        <ele>1132.872</ele>
        <time>2011-10-03T18:14:09Z</time>
      </trkpt>
      <trkpt lat="42.80177" lon="0.40761">
        <ele>1132.766</ele>
        <time>2011-10-03T18:14:10Z</time>
      </trkpt>
      <trkpt lat="42.80174" lon="0.40749">
        <ele>1133.128</ele>
        <time>2011-10-03T18:14:11Z</time>
      </trkpt>
      <trkpt lat="42.8017" lon="0.4074">
        <ele>1132.838</ele>
        <time>2011-10-03T18:14:12Z</time>
      </trkpt>
      <trkpt lat="42.8017" lon="0.4074">
        <ele>1131.226</ele>
        <time>2011-10-03T18:14:12Z</time>
      </trkpt>
      <trkpt lat="42.80166" lon="0.40717">
        <ele>1128.811</ele>
        <time>2011-10-03T18:14:14Z</time>
      </trkpt>
      <trkpt lat="42.80163" lon="0.40691">
        <ele>1127.217</ele>
        <time>2011-10-03T18:14:16Z</time>
      </trkpt>
      <trkpt lat="42.80163" lon="0.40691">
        <ele>1127.186</ele>
        <time>2011-10-03T18:14:16Z</time>
      </trkpt>
      <trkpt lat="42.80154" lon="0.4067">
        <ele>1127.851</ele>
        <time>2011-10-03T18:14:18Z</time>
      </trkpt>
      <trkpt lat="42.8015" lon="0.40661">
        <ele>1127.838</ele>
        <time>2011-10-03T18:14:19Z</time>
      </trkpt>
      <trkpt lat="42.80146" lon="0.40651">
        <ele>1126.726</ele>
        <time>2011-10-03T18:14:20Z</time>
      </trkpt>
      <trkpt lat="42.80142" lon="0.40637">
        <ele>1124.89</ele>
        <time>2011-10-03T18:14:21Z</time>
      </trkpt>
      <trkpt lat="42.80137" lon="0.40623">
        <ele>1123.277</ele>
        <time>2011-10-03T18:14:22Z</time>
      </trkpt>
      <trkpt lat="42.80132" lon="0.40611">
        <ele>1122.82</ele>
        <time>2011-10-03T18:14:23Z</time>
      </trkpt>
      <trkpt lat="42.80124" lon="0.406">
        <ele>1122.982</ele>
        <time>2011-10-03T18:14:24Z</time>
      </trkpt>
      <trkpt lat="42.80118" lon="0.40591">
        <ele>1123.008</ele>
        <time>2011-10-03T18:14:25Z</time>
      </trkpt>
      <trkpt lat="42.80113" lon="0.40582">
        <ele>1122.465</ele>
        <time>2011-10-03T18:14:26Z</time>
      </trkpt>
      <trkpt lat="42.80108" lon="0.40571">
        <ele>1121.544</ele>
        <time>2011-10-03T18:14:27Z</time>
      </trkpt>
      <trkpt lat="42.80102" lon="0.4056">
        <ele>1120.612</ele>
        <time>2011-10-03T18:14:28Z</time>
      </trkpt>
      <trkpt lat="42.80098" lon="0.4055">
        <ele>1119.72</ele>
        <time>2011-10-03T18:14:29Z</time>
      </trkpt>
      <trkpt lat="42.80097" lon="0.40541">
        <ele>1117.971</ele>
        <time>2011-10-03T18:14:30Z</time>
      </trkpt>
      <trkpt lat="42.80097" lon="0.40541">
        <ele>1115.022</ele>
        <time>2011-10-03T18:14:30Z</time>
      </trkpt>
      <trkpt lat="42.80102" lon="0.40534">
        <ele>1111.577</ele>
        <time>2011-10-03T18:14:32Z</time>
      </trkpt>
      <trkpt lat="42.80104" lon="0.40542">
        <ele>1106.555</ele>
        <time>2011-10-03T18:14:33Z</time>
      </trkpt>
      <trkpt lat="42.80105" lon="0.40554">
        <ele>1103.874</ele>
        <time>2011-10-03T18:14:34Z</time>
      </trkpt>
      <trkpt lat="42.80106" lon="0.40564">
        <ele>1103.461</ele>
        <time>2011-10-03T18:14:35Z</time>
      </trkpt>
      <trkpt lat="42.80107" lon="0.40571">
        <ele>1103.799</ele>
        <time>2011-10-03T18:14:36Z</time>
      </trkpt>
      <trkpt lat="42.80108" lon="0.40579">
        <ele>1103.185</ele>
        <time>2011-10-03T18:14:37Z</time>
      </trkpt>
      <trkpt lat="42.80108" lon="0.40585">
        <ele>1101.084</ele>
        <time>2011-10-03T18:14:38Z</time>
      </trkpt>
      <trkpt lat="42.80108" lon="0.40605">
        <ele>1098.523</ele>
        <time>2011-10-03T18:14:40Z</time>
      </trkpt>
      <trkpt lat="42.80109" lon="0.40616">
        <ele>1096.83</ele>
        <time>2011-10-03T18:14:41Z</time>
      </trkpt>
      <trkpt lat="42.80109" lon="0.40616">
        <ele>1096.155</ele>
        <time>2011-10-03T18:14:41Z</time>
      </trkpt>
      <trkpt lat="42.80104" lon="0.40638">
        <ele>1095.118</ele>
        <time>2011-10-03T18:14:43Z</time>
      </trkpt>
      <trkpt lat="42.80101" lon="0.4065">
        <ele>1093.992</ele>
        <time>2011-10-03T18:14:44Z</time>
      </trkpt>
      <trkpt lat="42.80099" lon="0.40664">
        <ele>1093.255</ele>
        <time>2011-10-03T18:14:45Z</time>
      </trkpt>
      <trkpt lat="42.80099" lon="0.40676">
        <ele>1093.107</ele>
        <time>2011-10-03T18:14:46Z</time>
      </trkpt>
      <trkpt lat="42.801" lon="0.40688">
        <ele>1093.258</ele>
        <time>2011-10-03T18:14:47Z</time>
      </trkpt>
      <trkpt lat="42.80101" lon="0.40699">
        <ele>1093.319</ele>
        <time>2011-10-03T18:14:48Z</time>
      </trkpt>
      <trkpt lat="42.80102" lon="0.4071">
        <ele>1092.815</ele>
        <time>2011-10-03T18:14:49Z</time>
      </trkpt>
      <trkpt lat="42.80105" lon="0.40718">
        <ele>1090.975</ele>
        <time>2011-10-03T18:14:50Z</time>
      </trkpt>
      <trkpt lat="42.80105" lon="0.40718">
        <ele>1088.05</ele>
        <time>2011-10-03T18:14:50Z</time>
      </trkpt>
      <trkpt lat="42.80118" lon="0.40724">
        <ele>1084.791</ele>
        <time>2011-10-03T18:14:52Z</time>
      </trkpt>
      <trkpt lat="42.80123" lon="0.40718">
        <ele>1082.279</ele>
        <time>2011-10-03T18:14:53Z</time>
      </trkpt>
      <trkpt lat="42.80125" lon="0.40707">
        <ele>1081.085</ele>
        <time>2011-10-03T18:14:54Z</time>
      </trkpt>
      <trkpt lat="42.80125" lon="0.40697">
        <ele>1081.444</ele>
        <time>2011-10-03T18:14:55Z</time>
      </trkpt>
      <trkpt lat="42.80123" lon="0.40688">
        <ele>1081.939</ele>
        <time>2011-10-03T18:14:56Z</time>
      </trkpt>
      <trkpt lat="42.80123" lon="0.40683">
        <ele>1081.502</ele>
        <time>2011-10-03T18:14:57Z</time>
      </trkpt>
      <trkpt lat="42.80123" lon="0.40666">
        <ele>1079.77</ele>
        <time>2011-10-03T18:14:59Z</time>
      </trkpt>
      <trkpt lat="42.80122" lon="0.40654">
        <ele>1077.963</ele>
        <time>2011-10-03T18:15:00Z</time>
      </trkpt>
      <trkpt lat="42.80122" lon="0.40642">
        <ele>1076.501</ele>
        <time>2011-10-03T18:15:01Z</time>
      </trkpt>
      <trkpt lat="42.80123" lon="0.40632">
        <ele>1075.829</ele>
        <time>2011-10-03T18:15:02Z</time>
      </trkpt>
      <trkpt lat="42.80123" lon="0.40621">
        <ele>1075.494</ele>
        <time>2011-10-03T18:15:03Z</time>
      </trkpt>
      <trkpt lat="42.80121" lon="0.4061">
        <ele>1074.751</ele>
        <time>2011-10-03T18:15:04Z</time>
      </trkpt>
      <trkpt lat="42.80119" lon="0.40599">
        <ele>1073.438</ele>
        <time>2011-10-03T18:15:05Z</time>
      </trkpt>
      <trkpt lat="42.80115" lon="0.40586">
        <ele>1071.776</ele>
        <time>2011-10-03T18:15:06Z</time>
      </trkpt>
      <trkpt lat="42.80112" lon="0.40574">
        <ele>1070.158</ele>
        <time>2011-10-03T18:15:07Z</time>
      </trkpt>
      <trkpt lat="42.80109" lon="0.40563">
        <ele>1068.836</ele>
        <time>2011-10-03T18:15:08Z</time>
      </trkpt>
      <trkpt lat="42.80105" lon="0.40553">
        <ele>1068.208</ele>
        <time>2011-10-03T18:15:09Z</time>
      </trkpt>
      <trkpt lat="42.80102" lon="0.40544">
        <ele>1067.782</ele>
        <time>2011-10-03T18:15:10Z</time>
      </trkpt>
      <trkpt lat="42.801" lon="0.40537">
        <ele>1066.523</ele>
        <time>2011-10-03T18:15:11Z</time>
      </trkpt>
      <trkpt lat="42.80102" lon="0.40532">
        <ele>1063.84</ele>
        <time>2011-10-03T18:15:12Z</time>
      </trkpt>
      <trkpt lat="42.80108" lon="0.40529">
        <ele>1059.502</ele>
        <time>2011-10-03T18:15:13Z</time>
      </trkpt>
      <trkpt lat="42.80113" lon="0.40534">
        <ele>1055.161</ele>
        <time>2011-10-03T18:15:14Z</time>
      </trkpt>
      <trkpt lat="42.80115" lon="0.40559">
        <ele>1052.902</ele>
        <time>2011-10-03T18:15:16Z</time>
      </trkpt>
      <trkpt lat="42.80115" lon="0.40559">
        <ele>1053.195</ele>
        <time>2011-10-03T18:15:16Z</time>
      </trkpt>
      <trkpt lat="42.80114" lon="0.40566">
        <ele>1053.824</ele>
        <time>2011-10-03T18:15:17Z</time>
      </trkpt>
      <trkpt lat="42.80114" lon="0.40566">
        <ele>1053.255</ele>
        <time>2011-10-03T18:15:17Z</time>
      </trkpt>
      <trkpt lat="42.80115" lon="0.40584">
        <ele>1051.106</ele>
        <time>2011-10-03T18:15:20Z</time>
      </trkpt>
      <trkpt lat="42.80117" lon="0.40594">
        <ele>1048.39</ele>
        <time>2011-10-03T18:15:21Z</time>
      </trkpt>
      <trkpt lat="42.8012" lon="0.40603">
        <ele>1046.423</ele>
        <time>2011-10-03T18:15:22Z</time>
      </trkpt>
      <trkpt lat="42.80125" lon="0.40612">
        <ele>1045.031</ele>
        <time>2011-10-03T18:15:23Z</time>
      </trkpt>
      <trkpt lat="42.80131" lon="0.40617">
        <ele>1043.882</ele>
        <time>2011-10-03T18:15:24Z</time>
      </trkpt>
      <trkpt lat="42.80138" lon="0.40618">
        <ele>1042.649</ele>
        <time>2011-10-03T18:15:25Z</time>
      </trkpt>
      <trkpt lat="42.80144" lon="0.40617">
        <ele>1041.495</ele>
        <time>2011-10-03T18:15:26Z</time>
      </trkpt>
      <trkpt lat="42.80151" lon="0.40614">
        <ele>1039.432</ele>
        <time>2011-10-03T18:15:27Z</time>
      </trkpt>
      <trkpt lat="42.80157" lon="0.4061">
        <ele>1037.089</ele>
        <time>2011-10-03T18:15:28Z</time>
      </trkpt>
      <trkpt lat="42.80164" lon="0.40604">
        <ele>1035.199</ele>
        <time>2011-10-03T18:15:29Z</time>
      </trkpt>
      <trkpt lat="42.80172" lon="0.40598">
        <ele>1033.275</ele>
        <time>2011-10-03T18:15:30Z</time>
      </trkpt>
      <trkpt lat="42.80179" lon="0.40591">
        <ele>1031.804</ele>
        <time>2011-10-03T18:15:31Z</time>
      </trkpt>
      <trkpt lat="42.80187" lon="0.40584">
        <ele>1030.406</ele>
        <time>2011-10-03T18:15:32Z</time>
      </trkpt>
      <trkpt lat="42.80194" lon="0.40576">
        <ele>1028.702</ele>
        <time>2011-10-03T18:15:33Z</time>
      </trkpt>
      <trkpt lat="42.80201" lon="0.40569">
        <ele>1027.187</ele>
        <time>2011-10-03T18:15:34Z</time>
      </trkpt>
      <trkpt lat="42.80208" lon="0.40563">
        <ele>1026.118</ele>
        <time>2011-10-03T18:15:35Z</time>
      </trkpt>
      <trkpt lat="42.80214" lon="0.40557">
        <ele>1025.789</ele>
        <time>2011-10-03T18:15:36Z</time>
      </trkpt>
      <trkpt lat="42.80214" lon="0.40557">
        <ele>1025.37</ele>
        <time>2011-10-03T18:15:36Z</time>
      </trkpt>
      <trkpt lat="42.80226" lon="0.40547">
        <ele>1024.152</ele>
        <time>2011-10-03T18:15:38Z</time>
      </trkpt>
      <trkpt lat="42.80239" lon="0.40542">
        <ele>1021.659</ele>
        <time>2011-10-03T18:15:40Z</time>
      </trkpt>
      <trkpt lat="42.80247" lon="0.40539">
        <ele>1019.735</ele>
        <time>2011-10-03T18:15:41Z</time>
      </trkpt>
      <trkpt lat="42.80247" lon="0.40539">
        <ele>1018.868</ele>
        <time>2011-10-03T18:15:41Z</time>
      </trkpt>
      <trkpt lat="42.80261" lon="0.40532">
        <ele>1018.395</ele>
        <time>2011-10-03T18:15:43Z</time>
      </trkpt>
      <trkpt lat="42.80269" lon="0.40528">
        <ele>1017.493</ele>
        <time>2011-10-03T18:15:44Z</time>
      </trkpt>
      <trkpt lat="42.80276" lon="0.40526">
        <ele>1016.242</ele>
        <time>2011-10-03T18:15:45Z</time>
      </trkpt>
      <trkpt lat="42.80284" lon="0.40523">
        <ele>1014.823</ele>
        <time>2011-10-03T18:15:46Z</time>
      </trkpt>
      <trkpt lat="42.80291" lon="0.4052">
        <ele>1013.769</ele>
        <time>2011-10-03T18:15:47Z</time>
      </trkpt>
      <trkpt lat="42.80298" lon="0.40515">
        <ele>1013.128</ele>
        <time>2011-10-03T18:15:48Z</time>
      </trkpt>
      <trkpt lat="42.80305" lon="0.40511">
        <ele>1012.187</ele>
        <time>2011-10-03T18:15:49Z</time>
      </trkpt>
      <trkpt lat="42.80312" lon="0.40507">
        <ele>1010.791</ele>
        <time>2011-10-03T18:15:50Z</time>
      </trkpt>
      <trkpt lat="42.80319" lon="0.40502">
        <ele>1009.211</ele>
        <time>2011-10-03T18:15:51Z</time>
      </trkpt>
      <trkpt lat="42.80325" lon="0.40496">
        <ele>1007.247</ele>
        <time>2011-10-03T18:15:52Z</time>
      </trkpt>
      <trkpt lat="42.80331" lon="0.40491">
        <ele>1005.768</ele>
        <time>2011-10-03T18:15:53Z</time>
      </trkpt>
      <trkpt lat="42.80337" lon="0.40487">
        <ele>1005.094</ele>
        <time>2011-10-03T18:15:54Z</time>
      </trkpt>
      <trkpt lat="42.8034" lon="0.40485">
        <ele>1005.002</ele>
        <time>2011-10-03T18:15:55Z</time>
      </trkpt>
      <trkpt lat="42.80341" lon="0.40484">
        <ele>1005.109</ele>
        <time>2011-10-03T18:15:56Z</time>
      </trkpt>
      <trkpt lat="42.80344" lon="0.40483">
        <ele>1005.195</ele>
        <time>2011-10-03T18:15:58Z</time>
      </trkpt>
      <trkpt lat="42.80345" lon="0.40482">
        <ele>1005.223</ele>
        <time>2011-10-03T18:15:59Z</time>
      </trkpt>
      <trkpt lat="42.80345" lon="0.40482">
        <ele>1005.279</ele>
        <time>2011-10-03T18:16:00Z</time>
      </trkpt>
      <trkpt lat="42.80345" lon="0.40482">
        <ele>1005.353</ele>
        <time>2011-10-03T18:16:01Z</time>
      </trkpt>
      <trkpt lat="42.80345" lon="0.40482">
        <ele>1005.383</ele>
        <time>2011-10-03T18:16:01Z</time>
      </trkpt>
      <trkpt lat="42.80343" lon="0.40483">
        <ele>1005.397</ele>
        <time>2011-10-03T18:16:03Z</time>
      </trkpt>
      <trkpt lat="42.80343" lon="0.40483">
        <ele>1005.376</ele>
        <time>2011-10-03T18:16:04Z</time>
      </trkpt>
      <trkpt lat="42.80343" lon="0.40483">
        <ele>1005.373</ele>
        <time>2011-10-03T18:16:05Z</time>
      </trkpt>
      <trkpt lat="42.80344" lon="0.40482">
        <ele>1005.399</ele>
        <time>2011-10-03T18:16:06Z</time>
      </trkpt>
      <trkpt lat="42.80344" lon="0.40482">
        <ele>1005.405</ele>
        <time>2011-10-03T18:16:07Z</time>
      </trkpt>
      <trkpt lat="42.80344" lon="0.40482">
        <ele>1005.393</ele>
        <time>2011-10-03T18:16:08Z</time>
      </trkpt>
      <trkpt lat="42.80344" lon="0.40482">
        <ele>1005.363</ele>
        <time>2011-10-03T18:16:09Z</time>
      </trkpt>
      <trkpt lat="42.80344" lon="0.40482">
        <ele>1005.323</ele>
        <time>2011-10-03T18:16:10Z</time>
      </trkpt>
      <trkpt lat="42.80344" lon="0.40482">
        <ele>1005.302</ele>
        <time>2011-10-03T18:16:11Z</time>
      </trkpt>
      <trkpt lat="42.80344" lon="0.40482">
        <ele>1005.28</ele>
        <time>2011-10-03T18:16:12Z</time>
      </trkpt>
      <trkpt lat="42.80344" lon="0.40482">
        <ele>1005.248</ele>
        <time>2011-10-03T18:16:13Z</time>
      </trkpt>
      <trkpt lat="42.80344" lon="0.40482">
        <ele>1005.238</ele>
        <time>2011-10-03T18:16:14Z</time>
      </trkpt>
      <trkpt lat="42.80344" lon="0.40482">
        <ele>1005.271</ele>
        <time>2011-10-03T18:16:15Z</time>
      </trkpt>
      <trkpt lat="42.80344" lon="0.40482">
        <ele>1005.296</ele>
        <time>2011-10-03T18:16:16Z</time>
      </trkpt>
      <trkpt lat="42.80344" lon="0.40482">
        <ele>1005.297</ele>
        <time>2011-10-03T18:16:18Z</time>
      </trkpt>
      <trkpt lat="42.80344" lon="0.40482">
        <ele>1005.281</ele>
        <time>2011-10-03T18:16:19Z</time>
      </trkpt>
      <trkpt lat="42.80344" lon="0.40482">
        <ele>1005.265</ele>
        <time>2011-10-03T18:16:20Z</time>
      </trkpt>
      <trkpt lat="42.80343" lon="0.40483">
        <ele>1005.242</ele>
        <time>2011-10-03T18:16:21Z</time>
      </trkpt>
    </trkseg>
  </trk>
</gpx>